[[{"header":{"parameterUnit":"m.s-1","parameterCategory":1,"la1":30.6,"la2":29.2853,"lo1":-89.7004,"lo2":-87.6739,"dy":0.0162,"dx":0.0183,"nx":112,"ny":82,"refTime":"2026-05-03T00:00:00:Z","depth":0,"parameterNumber":2,"parameterNumberName":"U-component_of_WINDS"},"data":[0.0,0.0,0.0,0.0,0.0,0.0,0.0,0.0,0.0,0.0,0.0,0.0,0.0,0.0,0.0,0.0,0.0,0.0,0.0,0.0,0.0,0.0,0.0,0.0,0.0,0.0,0.0,0.0,0.0,0.0,0.0,0.0,0.0,0.0,0.0,0.0,0.0,0.0,0.0,0.0,0.0,0.0,0.0,0.0,0.0,0.0,0.0,0.0,0.0,0.0,0.0,0.0,0.0,0.0,0.0,0.0,0.0,0.0,0.0,0.0,0.0,0.0,0.0,0.0,0.0,0.0,0.0,0.0,0.0,0.0,0.0,0.0,0.0,0.0,0.0,0.0,0.0,0.0,0.0,0.0,0.0,0.0,0.0,0.0,0.0,0.0,0.0,0.0,0.0,0.0,0.0,-5.481,-6.0753,-6.4003,-6.3269,-6.1361,-5.7068,-4.9765,0.0,0.0,0.0,0.0,0.0,0.0,0.0,0.0,0.0,0.0,0.0,0.0,0.0,0.0,0.0,0.0,0.0,0.0,0.0,0.0,0.0,0.0,0.0,0.0,0.0,0.0,0.0,0.0,0.0,0.0,0.0,0.0,0.0,0.0,0.0,0.0,0.0,0.0,0.0,0.0,0.0,0.0,0.0,0.0,0.0,0.0,0.0,0.0,0.0,0.0,0.0,0.0,0.0,0.0,0.0,0.0,0.0,0.0,0.0,0.0,0.0,0.0,0.0,0.0,0.0,0.0,0.0,0.0,0.0,0.0,0.0,0.0,0.0,0.0,0.0,0.0,0.0,0.0,0.0,0.0,0.0,0.0,0.0,0.0,0.0,0.0,0.0,0.0,0.0,0.0,0.0,0.0,0.0,0.0,0.0,0.0,0.0,0.0,0.0,0.0,0.0,0.0,0.0,0.0,-5.0399,-6.0549,-6.3245,-6.423,-6.4128,-6.1162,-5.6947,-5.1366,0.0,0.0,0.0,0.0,0.0,0.0,0.0,0.0,0.0,0.0,0.0,0.0,0.0,0.0,0.0,0.0,0.0,0.0,0.0,0.0,0.0,0.0,0.0,0.0,0.0,0.0,0.0,0.0,0.0,0.0,0.0,0.0,0.0,0.0,0.0,0.0,0.0,0.0,0.0,0.0,0.0,0.0,0.0,0.0,0.0,0.0,0.0,0.0,0.0,0.0,0.0,0.0,0.0,0.0,0.0,0.0,0.0,0.0,0.0,0.0,0.0,0.0,0.0,0.0,0.0,0.0,0.0,0.0,0.0,0.0,0.0,0.0,0.0,0.0,0.0,0.0,0.0,0.0,0.0,0.0,0.0,0.0,0.0,0.0,0.0,0.0,0.0,0.0,0.0,0.0,0.0,0.0,0.0,0.0,0.0,0.0,0.0,0.0,0.0,0.0,0.0,0.0,0.0,-4.9774,-5.4732,-6.2189,-6.457,-6.5282,-6.4362,-6.1981,-5.7884,-5.1796,-4.6914,0.0,0.0,0.0,0.0,0.0,0.0,0.0,0.0,0.0,0.0,0.0,0.0,0.0,0.0,0.0,0.0,0.0,0.0,0.0,0.0,0.0,0.0,0.0,0.0,0.0,0.0,0.0,0.0,0.0,0.0,0.0,0.0,0.0,0.0,0.0,0.0,0.0,0.0,0.0,0.0,0.0,0.0,0.0,0.0,0.0,0.0,0.0,0.0,0.0,0.0,0.0,0.0,0.0,0.0,0.0,0.0,0.0,0.0,0.0,0.0,0.0,0.0,0.0,0.0,0.0,0.0,0.0,0.0,0.0,0.0,0.0,0.0,0.0,0.0,0.0,0.0,0.0,0.0,0.0,0.0,0.0,0.0,0.0,0.0,0.0,0.0,0.0,0.0,0.0,0.0,0.0,0.0,0.0,0.0,0.0,0.0,0.0,0.0,0.0,0.0,0.0,0.0,-5.5591,-5.9456,-6.293,-6.539,-6.6102,-6.4438,-6.2136,-5.8118,-5.1796,-4.5976,0.0,0.0,0.0,0.0,0.0,0.0,0.0,0.0,0.0,0.0,0.0,0.0,0.0,0.0,0.0,0.0,0.0,0.0,0.0,0.0,0.0,0.0,0.0,0.0,0.0,0.0,0.0,0.0,0.0,0.0,0.0,0.0,0.0,0.0,0.0,0.0,0.0,0.0,0.0,0.0,0.0,0.0,0.0,0.0,0.0,0.0,0.0,0.0,0.0,0.0,0.0,0.0,0.0,0.0,0.0,0.0,0.0,0.0,0.0,0.0,0.0,0.0,0.0,0.0,0.0,0.0,0.0,0.0,0.0,0.0,0.0,0.0,0.0,0.0,0.0,0.0,0.0,0.0,0.0,0.0,0.0,0.0,0.0,0.0,0.0,0.0,0.0,0.0,0.0,0.0,0.0,0.0,0.0,0.0,0.0,0.0,0.0,0.0,0.0,0.0,0.0,0.0,-5.7465,-6.2969,-6.4104,-6.5743,-6.6139,-6.4431,-6.0531,-5.6239,-5.1673,-4.4335,0.0,0.0,0.0,0.0,0.0,0.0,0.0,0.0,0.0,0.0,0.0,0.0,0.0,0.0,0.0,0.0,0.0,0.0,0.0,0.0,0.0,0.0,0.0,0.0,0.0,0.0,0.0,0.0,0.0,0.0,0.0,0.0,0.0,0.0,0.0,0.0,0.0,0.0,0.0,0.0,0.0,0.0,0.0,0.0,0.0,0.0,0.0,0.0,0.0,0.0,0.0,0.0,0.0,0.0,0.0,0.0,0.0,0.0,0.0,0.0,0.0,0.0,0.0,0.0,0.0,0.0,0.0,0.0,0.0,0.0,0.0,0.0,0.0,0.0,0.0,0.0,0.0,0.0,0.0,0.0,0.0,0.0,0.0,0.0,0.0,0.0,0.0,0.0,0.0,0.0,0.0,0.0,0.0,0.0,0.0,0.0,0.0,0.0,0.0,0.0,0.0,0.0,-5.6213,-6.1525,0.0,-6.5351,-6.559,-6.439,-6.1313,-5.6905,-5.0972,0.0,0.0,0.0,0.0,0.0,0.0,0.0,0.0,0.0,0.0,0.0,0.0,0.0,0.0,0.0,0.0,0.0,0.0,0.0,0.0,0.0,0.0,0.0,0.0,0.0,0.0,0.0,0.0,0.0,0.0,0.0,0.0,0.0,0.0,0.0,0.0,0.0,0.0,0.0,0.0,0.0,0.0,0.0,0.0,0.0,0.0,0.0,0.0,0.0,0.0,0.0,0.0,0.0,0.0,0.0,0.0,0.0,0.0,0.0,0.0,0.0,0.0,0.0,0.0,0.0,0.0,0.0,0.0,0.0,0.0,0.0,0.0,0.0,0.0,0.0,0.0,0.0,0.0,0.0,0.0,0.0,0.0,0.0,0.0,0.0,0.0,0.0,0.0,0.0,0.0,0.0,0.0,0.0,0.0,0.0,0.0,0.0,0.0,0.0,0.0,0.0,0.0,-4.985,-5.6489,-6.1759,0.0,-6.5702,-6.6056,-6.5167,-6.1976,-5.7296,-5.0893,0.0,0.0,0.0,0.0,0.0,0.0,0.0,0.0,0.0,0.0,0.0,0.0,0.0,0.0,0.0,0.0,0.0,0.0,0.0,0.0,0.0,0.0,0.0,0.0,0.0,0.0,0.0,0.0,0.0,0.0,0.0,0.0,0.0,0.0,0.0,0.0,0.0,0.0,0.0,0.0,0.0,0.0,0.0,0.0,0.0,0.0,0.0,0.0,0.0,0.0,0.0,0.0,0.0,0.0,0.0,0.0,0.0,0.0,0.0,0.0,0.0,0.0,0.0,0.0,0.0,0.0,0.0,0.0,0.0,0.0,0.0,0.0,0.0,0.0,0.0,0.0,0.0,0.0,0.0,0.0,0.0,0.0,0.0,0.0,0.0,0.0,0.0,0.0,0.0,0.0,0.0,0.0,0.0,0.0,0.0,0.0,0.0,0.0,0.0,0.0,0.0,0.0,-5.0984,-5.8987,-6.4648,-6.5546,-6.7107,-6.7732,-6.6873,-6.2088,-5.6902,0.0,0.0,0.0,0.0,0.0,0.0,0.0,0.0,0.0,0.0,0.0,0.0,0.0,0.0,0.0,0.0,0.0,0.0,0.0,0.0,0.0,0.0,0.0,0.0,0.0,0.0,0.0,0.0,0.0,0.0,0.0,0.0,0.0,0.0,0.0,0.0,0.0,0.0,0.0,0.0,0.0,0.0,0.0,0.0,0.0,0.0,0.0,0.0,0.0,0.0,0.0,0.0,0.0,0.0,0.0,0.0,0.0,0.0,0.0,0.0,0.0,0.0,0.0,0.0,0.0,0.0,0.0,0.0,0.0,0.0,0.0,0.0,0.0,0.0,0.0,0.0,0.0,0.0,0.0,0.0,0.0,0.0,0.0,0.0,0.0,0.0,0.0,0.0,0.0,0.0,0.0,0.0,0.0,0.0,0.0,0.0,0.0,0.0,0.0,0.0,0.0,0.0,0.0,-5.2624,-6.0744,-6.6405,-6.7264,-6.781,-6.7732,-6.6873,-6.3176,-5.795,-5.0925,0.0,0.0,0.0,0.0,0.0,0.0,0.0,0.0,0.0,0.0,0.0,0.0,0.0,0.0,0.0,0.0,0.0,0.0,0.0,0.0,0.0,0.0,0.0,0.0,0.0,0.0,0.0,0.0,0.0,0.0,0.0,0.0,0.0,0.0,0.0,0.0,0.0,0.0,0.0,0.0,0.0,0.0,0.0,0.0,0.0,0.0,0.0,0.0,0.0,0.0,0.0,0.0,0.0,0.0,0.0,0.0,0.0,0.0,0.0,0.0,0.0,0.0,0.0,0.0,0.0,0.0,0.0,0.0,0.0,0.0,0.0,0.0,0.0,0.0,0.0,0.0,0.0,0.0,0.0,0.0,0.0,0.0,0.0,0.0,0.0,0.0,0.0,0.0,0.0,0.0,0.0,0.0,0.0,0.0,0.0,0.0,0.0,0.0,0.0,0.0,0.0,0.0,-5.3327,-6.1486,-6.7264,-6.8474,-6.8947,-6.8794,-6.793,-6.5013,-5.9789,-5.1667,0.0,0.0,0.0,0.0,0.0,0.0,0.0,0.0,0.0,0.0,0.0,0.0,0.0,0.0,0.0,0.0,0.0,0.0,0.0,0.0,0.0,0.0,0.0,0.0,0.0,0.0,0.0,0.0,0.0,0.0,0.0,0.0,0.0,0.0,0.0,0.0,0.0,0.0,0.0,0.0,0.0,0.0,0.0,0.0,0.0,0.0,0.0,0.0,0.0,0.0,0.0,0.0,0.0,0.0,0.0,0.0,0.0,0.0,0.0,0.0,0.0,0.0,0.0,0.0,0.0,0.0,0.0,0.0,0.0,0.0,0.0,0.0,0.0,0.0,0.0,0.0,0.0,0.0,0.0,0.0,0.0,0.0,0.0,0.0,0.0,0.0,0.0,0.0,0.0,0.0,0.0,0.0,0.0,0.0,0.0,0.0,0.0,0.0,0.0,0.0,0.0,0.0,-5.3444,-6.1681,-6.7693,-6.9333,-7.0282,-7.044,-6.9491,-6.7049,-6.198,-5.3464,0.0,0.0,0.0,0.0,0.0,0.0,0.0,0.0,0.0,0.0,0.0,0.0,0.0,0.0,0.0,0.0,0.0,0.0,0.0,0.0,0.0,0.0,0.0,0.0,0.0,0.0,0.0,0.0,0.0,0.0,0.0,0.0,0.0,0.0,0.0,0.0,0.0,0.0,0.0,0.0,0.0,0.0,0.0,0.0,0.0,0.0,0.0,0.0,0.0,0.0,0.0,0.0,0.0,0.0,0.0,0.0,0.0,0.0,0.0,0.0,-5.1063,0.0,0.0,0.0,0.0,0.0,0.0,0.0,0.0,0.0,0.0,0.0,0.0,0.0,0.0,0.0,0.0,0.0,0.0,0.0,0.0,0.0,0.0,0.0,0.0,0.0,0.0,0.0,0.0,0.0,0.0,0.0,0.0,0.0,0.0,0.0,0.0,0.0,0.0,0.0,0.0,0.0,-5.4342,-6.3125,-6.9255,-7.0309,-7.1209,-7.1097,-6.9542,-6.7047,-6.2483,-5.5229,-4.9098,0.0,0.0,0.0,0.0,0.0,0.0,0.0,0.0,0.0,0.0,0.0,0.0,0.0,0.0,0.0,0.0,0.0,0.0,0.0,0.0,0.0,0.0,0.0,0.0,0.0,0.0,0.0,0.0,0.0,0.0,0.0,0.0,0.0,0.0,0.0,0.0,0.0,0.0,0.0,0.0,0.0,0.0,0.0,0.0,0.0,0.0,0.0,0.0,0.0,0.0,0.0,0.0,0.0,0.0,0.0,0.0,0.0,0.0,0.0,0.0,-5.2975,0.0,0.0,0.0,0.0,0.0,0.0,0.0,0.0,0.0,0.0,0.0,0.0,0.0,0.0,0.0,0.0,0.0,0.0,0.0,0.0,0.0,0.0,0.0,0.0,0.0,0.0,0.0,0.0,0.0,0.0,0.0,0.0,0.0,0.0,0.0,0.0,0.0,0.0,0.0,0.0,-5.5201,-6.3828,-6.9879,-7.1206,-7.0977,-7.0204,-6.8882,-6.6426,-6.2566,-5.6911,-5.1637,0.0,0.0,0.0,0.0,0.0,0.0,0.0,0.0,0.0,0.0,0.0,0.0,0.0,0.0,0.0,0.0,0.0,0.0,0.0,0.0,0.0,0.0,0.0,0.0,0.0,0.0,0.0,0.0,0.0,0.0,0.0,0.0,0.0,0.0,0.0,0.0,0.0,0.0,0.0,0.0,0.0,0.0,0.0,0.0,0.0,0.0,0.0,0.0,0.0,0.0,0.0,0.0,0.0,-6.4843,-6.6561,-6.8552,-6.7927,-6.7966,-6.8318,-6.3321,-5.9846,-5.7465,0.0,0.0,0.0,0.0,0.0,0.0,0.0,0.0,0.0,0.0,0.0,0.0,0.0,0.0,0.0,0.0,0.0,0.0,0.0,0.0,0.0,0.0,0.0,0.0,0.0,-5.5903,-5.5435,0.0,0.0,0.0,0.0,0.0,0.0,0.0,0.0,0.0,0.0,0.0,0.0,-5.5864,-6.3711,-6.9294,-7.0738,-6.9733,-6.8648,-6.7947,-6.5689,-6.2649,-5.8826,-5.449,-4.996,0.0,0.0,0.0,0.0,0.0,0.0,0.0,0.0,0.0,0.0,0.0,0.0,0.0,0.0,0.0,0.0,0.0,0.0,0.0,0.0,0.0,0.0,0.0,0.0,0.0,0.0,0.0,0.0,0.0,0.0,0.0,0.0,-4.0758,-4.263,0.0,0.0,0.0,0.0,0.0,0.0,0.0,0.0,0.0,0.0,0.0,0.0,0.0,-6.1213,-6.3089,-6.7888,-7.0426,-7.0699,-7.3783,-7.5423,-7.5735,-7.5618,-7.5657,-7.5696,-7.4915,0.0,-6.2071,-6.0822,0.0,0.0,0.0,0.0,0.0,0.0,0.0,0.0,0.0,0.0,0.0,0.0,0.0,0.0,0.0,0.0,0.0,0.0,0.0,0.0,0.0,0.0,-5.9143,-6.0237,-6.0781,-6.0312,0.0,-5.2468,-4.7198,-4.3411,-4.0952,0.0,0.0,0.0,0.0,0.0,0.0,0.0,-5.602,-6.2149,-6.6209,-6.6405,-6.6876,-6.7119,-6.7057,-6.5379,-6.3392,-6.1328,-5.7148,-5.3476,-5.0508,-4.4805,0.0,0.0,0.0,0.0,0.0,0.0,0.0,0.0,0.0,0.0,0.0,0.0,0.0,0.0,0.0,0.0,0.0,0.0,0.0,0.0,0.0,0.0,0.0,0.0,0.0,0.0,0.0,0.0,0.0,-4.0952,-4.4855,-4.5129,-4.6105,-4.583,0.0,0.0,0.0,0.0,0.0,0.0,0.0,0.0,0.0,-6.3438,-6.6131,-6.8552,-7.0741,-7.3978,-7.6086,-7.7062,-7.9053,-8.0537,-8.1396,-8.0459,-8.0263,-8.0615,-7.917,-7.6203,-7.2026,-6.7264,-6.3047,-5.9339,0.0,0.0,0.0,0.0,-5.5083,-5.5435,-5.8363,-5.9143,0.0,-5.7426,0.0,0.0,0.0,0.0,0.0,0.0,0.0,0.0,0.0,0.0,-6.0978,-6.336,-6.3906,-6.3672,-6.293,-5.9612,-5.5044,0.0,-4.7081,-4.4738,-3.9741,0.0,0.0,0.0,0.0,0.0,-5.6762,-6.2149,-6.578,-6.6249,-6.5748,-6.56,-6.6121,-6.4133,-6.2732,-6.2461,-5.8867,-5.6015,-5.4375,-4.8984,-4.4375,0.0,0.0,0.0,0.0,0.0,0.0,0.0,0.0,0.0,0.0,0.0,0.0,0.0,0.0,0.0,0.0,0.0,0.0,0.0,0.0,0.0,0.0,0.0,0.0,0.0,0.0,0.0,0.0,-4.4972,-4.8642,-4.8017,-5.0399,-5.0826,0.0,0.0,0.0,0.0,0.0,0.0,-6.0588,-6.3047,-6.6209,-7.027,-7.2729,-7.5071,-7.7453,-7.8936,-8.0459,-8.1981,-8.2645,-8.3582,-8.4753,-8.3269,-8.2918,-8.3386,-8.1278,-8.0224,-7.9483,-7.2573,-6.8122,-6.5312,-6.2032,-6.0002,-5.9104,-6.0783,-6.1134,-6.1291,-6.496,-6.6249,-6.5897,-6.3711,0.0,-5.9026,-5.321,0.0,0.0,0.0,0.0,-5.6098,-5.9534,-6.09,-6.2149,-6.5194,-6.5897,-6.5858,-6.5624,-6.4219,-6.1174,0.0,-5.3171,-5.0906,-4.5052,0.0,0.0,0.0,0.0,-5.4617,-5.8011,-6.2071,-6.4843,-6.5429,-6.4386,-6.4005,-6.4872,-6.2964,-6.2069,-6.293,-6.0,-5.793,-5.7305,-5.25,-4.8047,-4.4141,0.0,0.0,0.0,0.0,0.0,0.0,0.0,0.0,0.0,0.0,0.0,0.0,0.0,0.0,0.0,0.0,0.0,0.0,0.0,0.0,0.0,0.0,0.0,0.0,0.0,0.0,0.0,0.0,0.0,-5.2392,-5.5357,0.0,0.0,0.0,0.0,-5.8402,-6.1017,-6.4336,-6.8591,-7.0504,-7.308,-7.6555,-7.839,-8.0185,-8.1942,-8.2801,-8.3699,-8.4597,-8.4636,-8.4714,-8.4753,-8.3855,-8.3465,-8.3465,-8.2567,-8.1708,-8.0576,-7.6047,-7.3627,-7.2534,-6.984,-6.8786,-6.8591,-6.7927,-6.8122,-6.8747,-6.8161,-6.7966,-6.8239,-6.9684,-6.6834,-6.2267,-5.9456,-5.6879,0.0,0.0,-5.8089,-5.9651,-6.3125,-6.4065,-6.4533,-6.6327,-6.6756,-6.6522,-6.578,-6.4219,-6.2384,0.0,-5.7972,-5.5435,-5.2587,0.0,-5.1492,-5.3171,-5.442,-5.6411,-5.9846,-6.1213,-6.1913,-6.1952,-6.1887,-6.2169,-6.3076,-6.2261,-6.2069,-6.293,-6.0586,-5.9101,-5.9062,-5.4844,-5.1289,-4.8633,-4.3594,0.0,0.0,0.0,0.0,0.0,0.0,0.0,0.0,0.0,0.0,0.0,0.0,0.0,0.0,0.0,0.0,0.0,0.0,0.0,0.0,0.0,0.0,0.0,0.0,0.0,0.0,0.0,0.0,-5.7504,-6.1174,0.0,-6.0822,-6.1408,-6.2969,-6.5546,-6.7615,-7.0426,-7.4173,-7.6008,-7.8038,-8.0381,-8.1552,-8.2723,-8.3894,-8.4206,-8.4753,-8.5651,-8.5651,-8.5924,-8.6431,-8.4987,-8.4323,-8.4245,-8.2879,-8.2137,-8.1669,-7.9561,-7.7531,-7.5618,-7.4095,-7.2846,-7.1948,-7.2143,-7.2104,-7.1948,-7.2143,-7.187,-7.1285,-7.0191,-6.7498,-6.4375,-6.2891,-6.1798,-6.1215,-6.18,-6.2618,-6.3672,-6.5468,-6.59,-6.6056,-6.6678,-6.6795,-6.6717,-6.6444,-6.5468,-6.4336,-6.3125,-6.0354,-5.7387,-5.481,-5.5005,-5.5357,-5.4927,-5.6489,-5.8402,-6.0159,-6.1174,-6.1718,-6.1718,-6.1692,-6.1818,-6.2138,-6.1363,-6.1015,-6.1328,-5.8945,-5.7539,-5.7539,-5.4414,-5.1484,-4.8945,-4.5976,-4.1523,0.0,0.0,0.0,0.0,0.0,0.0,0.0,0.0,0.0,0.0,0.0,0.0,0.0,0.0,0.0,0.0,0.0,0.0,0.0,0.0,0.0,0.0,0.0,0.0,0.0,0.0,-6.008,-6.1525,-6.5741,-6.7888,-6.6173,-6.7342,-6.9137,-7.1402,-7.3158,-7.5384,-7.8272,-7.9522,-8.0927,-8.2645,-8.323,-8.405,-8.5221,-8.5221,-8.569,-8.6549,-8.6549,-8.6822,-8.7326,-8.5573,-8.4792,-8.4714,-8.3035,-8.2293,-8.2254,-8.1669,-8.0224,-7.8311,-7.714,-7.6008,-7.5032,-7.5305,-7.5032,-7.4564,-7.4525,-7.3978,-7.2924,-7.0582,-6.8708,-6.7146,-6.6288,-6.6017,-6.5978,-6.5663,-6.6014,-6.6483,-6.6756,-6.6795,-6.6795,-6.6795,-6.6795,-6.6795,-6.6795,-6.617,-6.5351,-6.4455,-6.2189,-5.969,-5.7426,-5.7933,-5.8285,-5.7192,-5.8441,-5.9846,-6.0744,-6.133,-6.1718,-6.1718,-6.1694,-6.1704,-6.1708,-6.0387,-5.9804,-6.0351,-5.7461,-5.5859,-5.6133,-5.3398,-5.0781,-4.8516,-4.5625,-4.1601,-3.6445,0.0,0.0,0.0,0.0,0.0,0.0,0.0,0.0,0.0,0.0,0.0,0.0,0.0,0.0,0.0,0.0,0.0,0.0,0.0,0.0,0.0,0.0,0.0,-5.2782,-5.8792,-6.3477,-6.4416,-6.9059,-7.1519,-6.984,-7.1987,-7.4173,-7.5855,-7.7531,-7.9209,-8.0966,-8.1044,-8.1825,-8.3504,-8.3543,-8.4362,-8.6119,-8.6158,-8.6549,-8.7404,-8.7404,-8.7407,-8.729,-8.5573,-8.4792,-8.4675,-8.3035,-8.2293,-8.2293,-8.2293,-8.1786,-8.0888,-7.9131,-7.8429,-7.8272,-7.7414,-7.7101,-7.6867,-7.5149,-7.4017,-7.3041,-7.1324,-7.0777,-7.0582,-6.9684,-6.945,-6.9255,-6.8357,-6.8083,-6.7888,-6.7029,-6.6795,-6.6795,-6.6795,-6.6795,-6.6795,-6.6798,-6.617,-6.5351,-6.4455,-6.3635,-6.2501,-6.0744,-6.0432,-6.0432,-6.0432,-6.0432,0.0,-6.1601,-6.1718,-6.1718,-6.1718,-6.1699,-6.1669,-6.1631,-5.9334,-5.8555,-6.0156,-5.6289,-5.4336,-5.5195,-5.1992,-4.9375,-4.7656,-4.2617,-3.9141,-3.7422,0.0,0.0,0.0,0.0,0.0,0.0,0.0,0.0,0.0,0.0,0.0,0.0,0.0,0.0,0.0,0.0,0.0,0.0,0.0,0.0,0.0,0.0,-5.7074,-5.7309,-6.2189,-6.6795,-6.9567,-7.3315,-7.5774,-7.5891,-7.714,-7.839,-7.9483,-7.999,-8.0771,-8.1864,-8.1942,-8.2723,-8.4401,-8.4441,-8.5299,-8.7017,-8.7056,-8.7173,-8.7404,-8.7404,-8.7056,-8.6431,-8.5299,-8.448,-8.3816,-8.2762,-8.2293,-8.2293,-8.2293,-8.2176,-8.1786,-8.0029,-7.8975,-7.8272,-7.7414,-7.7101,-7.6945,-7.5813,-7.4876,-7.3978,-7.2924,-7.2143,-7.148,-7.0621,-7.0348,-7.0035,-6.8513,-6.8083,-6.7888,-6.7029,-6.6795,-6.6795,-6.6795,-6.6795,-6.6798,-6.6807,-6.6646,-6.6021,-6.4591,-6.412,-6.3408,-6.1642,-6.133,-6.133,-6.133,-6.133,0.0,-6.1679,-6.1718,-6.1718,-6.1718,-6.1139,-6.0485,-5.9872,-5.8626,-5.7576,-5.6758,-5.4414,-5.3164,-5.3398,-5.1367,-4.9687,-4.8555,-4.4687,-4.1797,0.0,0.0,0.0,0.0,0.0,0.0,0.0,0.0,0.0,0.0,0.0,0.0,0.0,0.0,0.0,0.0,0.0,0.0,0.0,0.0,0.0,0.0,-5.7699,-6.1915,-6.3711,-6.6873,-7.0113,-7.3236,-7.6008,-7.7843,-7.835,-7.9522,-8.0459,-8.0966,-8.1356,-8.1786,-8.2254,-8.2293,-8.3074,-8.4753,-8.4792,-8.5651,-8.7368,-8.7404,-8.7404,-8.7404,-8.7017,-8.6588,-8.6041,-8.4831,-8.3972,0.0,-8.2645,-8.2293,-8.2293,-8.2293,-8.2293,0.0,0.0,0.0,0.0,0.0,-7.7101,-7.6984,-7.6086,-7.5227,-7.4369,-7.3549,-7.2729,-7.1909,-7.1402,-7.1245,-7.0894,-6.9137,-6.863,-6.8357,-6.7107,-6.6795,-6.6795,-6.6795,-6.6795,-6.68,-6.6809,-6.6807,-6.6301,-6.4637,-6.4284,0.0,-6.2008,-6.1694,-6.1692,-6.1688,-6.1688,-6.1688,-6.1688,-6.1688,-6.169,-6.1694,-6.127,-6.0573,-5.9719,-5.8238,0.0,0.0,0.0,-5.1836,-5.1133,-4.9805,0.0,0.0,0.0,0.0,0.0,0.0,0.0,0.0,-4.1013,-4.0502,0.0,0.0,0.0,0.0,0.0,0.0,0.0,0.0,0.0,0.0,0.0,0.0,0.0,0.0,0.0,0.0,-6.2462,-6.6327,-7.0426,-7.1753,-7.3158,-7.5504,-7.7414,-7.8546,-7.8546,-8.0107,-8.1161,-8.1161,-8.1864,-8.2293,-8.2293,0.0,0.0,0.0,0.0,-8.5573,-8.7251,-8.7368,-8.7404,-8.7407,-8.651,-8.6041,-8.5885,-8.4245,-8.3465,-8.3308,-8.2606,-8.2293,-8.2293,-8.2293,-8.2176,-8.1864,-8.0302,-7.96,-7.9209,-7.7687,-7.7101,-7.6984,-7.6203,0.0,0.0,-7.3666,-7.2768,-7.1987,-7.1987,-7.1987,-7.1636,-6.9879,-6.9411,-6.8981,-6.7264,-6.6795,-6.6798,-6.6798,-6.6798,-6.68,-6.6813,-6.6813,-6.6346,-6.4757,-6.4367,-6.378,-6.214,-6.1787,-6.1707,-6.1701,-6.1699,-6.1699,-6.1697,-6.1697,-6.1701,-6.1707,0.0,0.0,-6.0349,-5.8085,-5.6992,-5.7578,-5.3906,-5.0937,-4.9258,-4.8516,-4.7773,-4.6875,-4.7617,-4.8398,-4.918,-4.9961,-5.039,-5.0311,-4.3982,-4.3082,0.0,0.0,0.0,0.0,0.0,0.0,0.0,0.0,0.0,0.0,0.0,0.0,0.0,0.0,0.0,-6.0742,-6.5273,-6.945,-7.2378,-7.351,-7.4447,-7.566,-7.796,-7.9444,-7.9444,-8.1044,-8.2059,-8.2059,-8.2215,-8.2293,-8.2293,-8.2293,0.0,-8.3738,-8.4441,-8.5299,-8.6353,-8.7056,-8.7404,-8.7407,0.0,0.0,-8.5026,-8.3972,-8.3152,-8.2528,-8.2371,-8.2293,-8.2293,-8.2293,-8.1474,-8.0185,-7.9834,-7.8858,-7.757,-7.7218,-7.7101,-7.7062,-7.6906,-7.5813,-7.4486,-7.433,-7.3236,-7.1987,-7.1987,-7.1987,0.0,-6.9879,-6.9411,-6.8981,-6.7264,-6.6795,-6.6798,-6.6807,-6.6802,-6.6805,-6.6867,-6.6823,-6.6507,-6.5545,-6.4764,-6.3981,-6.2929,-6.2184,-6.1708,-6.1707,-6.1707,-6.1705,-6.1699,-6.1697,-6.1699,-6.1701,-6.1076,-6.0302,-5.949,-5.8358,-5.7108,-5.5898,-5.4336,-5.2734,-5.0976,-5.1445,-5.1289,-5.043,-5.0586,-5.0742,-5.0937,-5.1094,-5.1523,-5.2148,-4.9452,-4.863,0.0,0.0,0.0,0.0,0.0,0.0,0.0,0.0,0.0,0.0,0.0,-5.0945,-5.3483,0.0,-6.1915,-6.4492,-6.781,-7.0933,-7.3549,-7.4251,-7.4993,-7.6281,-7.7999,-7.9209,-7.9678,-8.0888,-8.1825,-8.2254,-8.2293,-8.2293,-8.2293,-8.2293,-8.2684,-8.3465,-8.3933,-8.4558,-8.5456,-8.6314,-8.6549,-8.608,-8.5651,-8.4987,-8.4128,-8.3269,-8.2684,-8.2293,-8.2293,-8.2293,-8.2293,-8.2293,-8.1278,-7.9717,-7.9717,-7.8624,-7.7101,-7.7101,-7.7101,-7.7101,-7.7101,-7.5969,-7.4486,-7.4486,-7.3354,-7.1987,-7.1987,-7.1987,-7.1714,-7.0426,-6.9723,-6.9098,-6.7771,-6.7112,-6.6805,-6.6811,-6.6813,-6.6857,-6.687,-6.6868,-6.6478,-6.5195,-6.4609,-6.3867,-6.2578,-6.1991,-6.1716,-6.1713,-6.1713,-6.1712,-6.171,-6.1709,-6.171,-6.1713,-6.1323,-6.0699,-5.9882,-5.8632,-5.7148,-5.539,-5.4883,-5.4062,-5.2773,-5.3125,-5.3164,-5.2695,-5.3125,-5.3359,-5.3359,-5.3789,-5.4219,-5.4609,-5.3359,-5.2733,0.0,0.0,0.0,0.0,0.0,0.0,0.0,0.0,-4.7783,-5.0477,-5.3014,-5.563,-5.8753,-6.1876,-6.4999,-6.8083,-6.9918,-7.1714,-7.3939,-7.4251,-7.4837,-7.6399,-7.7648,-7.8741,-7.9639,-8.0498,-8.1356,-8.2215,-8.2293,-8.2293,-8.2293,-8.2293,-8.2606,-8.323,-8.3426,-8.3855,-8.4558,-8.5416,-8.5495,-8.4792,-8.4636,-8.4167,-8.3465,-8.2684,-8.2293,-8.2293,-8.2293,-8.2293,-8.2293,-8.2293,-8.1278,-7.9717,-7.9717,-7.8624,-7.7101,-7.7101,-7.7101,-7.7101,-7.7101,-7.5969,-7.4486,-7.4486,-7.3354,-7.1987,-7.1987,-7.1987,-7.1831,-7.0933,-7.0077,-6.9182,-6.832,-6.7471,-6.6815,-6.6817,-6.686,-6.6905,-6.6911,-6.6912,-6.6482,-6.5078,-6.4687,-6.4062,-6.2461,-6.207,-6.1914,-6.1718,-6.1717,-6.1717,-6.1717,-6.1717,-6.1717,-6.1718,-6.1719,-6.1289,-6.0234,-5.8789,-5.7226,-5.5664,-5.5547,-5.5156,-5.4297,-5.4258,-5.4258,-5.4258,-5.4922,-5.539,-5.5547,-5.625,-5.6601,-5.6562,-5.5898,-5.5547,-4.1092,-4.1282,-4.2481,-4.4154,-4.5168,-4.7393,0.0,0.0,-5.5083,-5.8402,-6.0588,-6.2423,-6.4375,-6.6249,-6.8161,-7.0113,-7.1206,-7.2221,-7.3275,-7.3432,-7.3783,-7.4681,-7.6945,-7.8741,-7.9639,-8.0498,-8.1356,-8.2215,-8.2293,-8.2293,-8.2293,-8.2293,-8.2332,-8.245,-8.3113,-8.3543,-8.3621,-8.4519,-8.4909,-8.4792,-8.4011,-8.3582,-8.3465,-8.2684,-8.2293,-8.2293,-8.2293,-8.2293,-8.2293,-8.2293,-8.1278,-7.9717,-7.9717,-7.8624,-7.7101,-7.7101,-7.7101,-7.7101,-7.7101,-7.5969,-7.4486,-7.4486,-7.3354,-7.1987,-7.1987,-7.1987,-7.1831,-7.0933,-7.0082,-6.9193,-6.8334,-6.7482,-6.6904,-6.6909,-6.6907,-6.6906,-6.6914,-6.6913,-6.6834,-6.664,-6.5976,-6.5156,-6.418,-6.3359,-6.2578,-6.1836,-6.1719,-6.1718,-6.1717,-6.1717,-6.1717,-6.1717,-6.1717,-6.1054,-5.9453,-5.8437,-5.75,-5.6523,-5.6445,-5.6055,-5.5195,-5.5156,-5.5156,-5.5156,-5.5234,-5.5664,-5.6445,-5.6562,-5.6601,-5.6601,-5.6484,-5.6445,-4.6907,-4.6625,-4.7045,0.0,-5.239,-5.399,-5.7933,-5.8909,-5.9573,-6.1525,-6.3282,-6.4882,-6.6092,-6.7693,-6.9255,0.0,-7.1441,-7.23,-7.3197,-7.3705,-7.4134,-7.4447,-7.5891,-7.7218,-7.8116,-7.9444,-8.0615,-8.1474,-8.202,-8.2293,-8.2293,-8.2293,-8.2293,-8.2293,-8.2645,-8.2801,-8.2801,-8.3621,-8.3816,-8.3347,-8.3465,-8.323,-8.2801,-8.245,-8.2293,-8.2293,-8.2293,-8.2293,-8.2293,-8.2293,-8.1278,-7.9717,-7.9717,-7.8624,-7.7101,-7.7101,-7.7101,-7.7101,-7.7101,-7.6281,-7.5188,-7.4642,-7.3705,-7.2651,-7.2143,-7.1987,-7.1909,-7.1558,-7.0826,-6.9976,-6.9078,-6.8268,-6.7534,-6.7028,-6.6911,-6.6912,-6.6914,-6.6914,-6.6757,-6.625,-6.5859,-6.5156,-6.3789,-6.3242,-6.2695,-6.1836,-6.1719,-6.1719,-6.1718,-6.1718,-6.1718,-6.1718,-6.1718,-6.1211,-6.0,-5.914,-5.8281,-5.7422,-5.6875,-5.6445,-5.6055,-5.6055,-5.6055,-5.6055,-5.6055,-5.625,-5.6601,-5.6601,-5.6601,-5.6601,-5.6601,-5.6601,-4.9988,0.0,0.0,-5.5591,-5.7738,-5.9339,-6.1095,-6.2149,-6.3008,-6.3867,-6.5038,-6.6249,-6.7303,-6.8357,-6.9489,-7.0855,-7.1402,-7.1948,-7.2807,-7.3432,-7.3705,-7.3471,-7.4212,-7.4993,-7.5618,-7.7687,-7.9522,-8.0888,-8.1591,-8.2059,-8.2293,-8.2293,-8.2293,-8.2293,-8.2293,-8.2293,-8.2293,-8.2879,-8.2879,-8.2293,-8.2879,-8.2879,-8.2293,-8.2293,-8.2293,-8.2293,-8.2293,-8.2293,-8.2293,-8.2059,-8.1044,-7.9678,-7.9444,-7.8429,-7.7101,-7.7101,-7.7101,-7.7101,-7.7101,-7.6516,-7.566,-7.4798,-7.3978,-7.3158,-7.226,-7.1987,-7.1987,-7.1993,-7.1377,-7.0489,-6.9632,-6.8782,-6.7967,-6.7108,-6.6914,-6.6914,-6.6914,-6.6914,-6.6719,-6.6094,-6.5976,-6.5469,-6.3984,-6.3515,-6.3047,-6.2187,-6.1836,-6.1719,-6.1719,-6.1719,-6.1719,-6.1719,-6.1719,-6.1367,-6.0469,-5.9883,-5.9062,-5.7969,-5.7305,-5.6836,-5.6601,-5.6601,-5.6601,-5.6601,-5.6601,-5.6601,-5.6601,-5.6601,-5.6601,-5.6601,-5.6601,-5.6719,0.0,0.0,-5.5357,-5.6333,-5.9102,-6.2032,-6.3789,-6.4843,-6.5702,-6.6522,-6.6717,-6.7303,-6.8981,-6.8669,-6.8981,-7.1558,-7.1285,-7.105,-7.1909,-7.2065,-7.1753,-7.0933,-7.1597,-7.2143,0.0,-7.5188,-7.8233,-8.081,-8.1005,-8.1396,-8.2254,-8.2293,-8.2293,-8.2293,-8.2293,-8.2293,-8.2293,-8.2332,-8.2332,-8.2293,-8.2332,-8.2332,-8.2293,-8.2293,-8.2293,-8.2293,-8.2293,-8.2293,-8.2215,-8.1396,-8.0498,-7.9639,-7.878,-7.7882,-7.7101,-7.7101,-7.7101,-7.7101,-7.7101,-7.6516,-7.566,-7.4798,-7.3978,-7.3158,-7.226,-7.1987,-7.199,-7.2002,-7.1387,-7.0497,-6.9644,-6.8788,-6.7969,-6.7109,-6.6914,-6.6914,-6.6914,-6.6914,-6.6875,-6.6875,-6.6875,-6.6562,-6.5664,-6.4805,-6.3945,-6.3086,-6.2226,-6.1719,-6.1719,-6.1719,-6.1719,-6.1719,-6.1719,-6.1367,-6.0469,-6.039,-5.9648,-5.8008,-5.789,-5.7461,-5.664,-5.6601,-5.6601,-5.6601,-5.6601,-5.6601,-5.6601,-5.6601,-5.6601,-5.6601,-5.6601,-5.7031,-5.2647,0.0,-5.7709,-6.0903,-6.3008,-6.457,-6.5702,-6.6639,-6.7185,-6.6873,-6.6366,-6.617,-6.6756,-6.6639,-6.7107,-6.9098,-7.0621,-7.1675,-7.1948,-7.3471,-7.3588,-7.1011,-7.2456,0.0,0.0,0.0,0.0,-7.8272,-7.9483,-8.0537,-8.1396,-8.1981,-8.2293,-8.2293,-8.2293,-8.2293,-8.2293,-8.2293,-8.2293,-8.2293,-8.2293,-8.2293,-8.2293,-8.2293,-8.2293,-8.2293,-8.2293,-8.2293,-8.2215,-8.1356,-8.0498,-7.96,-7.8741,-7.7882,-7.7101,-7.7101,-7.7101,-7.7101,-7.7101,-7.6906,-7.6438,-7.4954,-7.433,-7.3822,-7.2417,-7.1995,-7.2002,-7.2004,-7.1783,-7.1246,-6.9763,-6.9218,-6.8711,-6.7226,-6.6914,-6.6914,-6.6914,-6.6914,-6.6914,-6.6914,-6.6914,-6.6601,-6.5742,-6.4883,-6.3828,-6.2344,-6.1875,-6.1719,-6.1719,-6.1719,-6.1719,-6.1719,-6.1719,-6.1562,-6.1289,-6.0742,-6.0156,-5.9609,-5.9062,-5.8359,-5.75,-5.7461,-5.7187,-5.6601,-5.6601,-5.6875,-5.7461,-5.7461,-5.7773,-5.832,-5.832,-5.8476,-5.6554,-5.9008,-6.0876,-6.3989,-6.5624,-6.6561,-6.6756,-6.7224,-6.7303,-6.6131,-6.4999,-6.4219,-6.4219,-6.3204,-6.3555,-6.7068,-6.8786,-7.0348,-7.2182,-7.3861,-7.3978,-7.148,-7.2612,0.0,0.0,0.0,0.0,-7.6906,-7.8702,-8.0068,-8.0966,-8.1825,-8.2293,-8.2293,-8.2293,-8.2293,-8.2293,-8.2293,-8.2293,-8.2293,-8.2293,-8.2293,-8.2293,-8.2293,-8.2293,-8.2293,-8.2293,-8.2293,-8.2215,-8.1005,-8.0224,-7.96,-7.839,-7.7609,-7.7101,-7.7101,-7.7101,-7.7101,-7.7101,-7.7101,-7.6828,-7.5071,-7.4486,-7.4173,-7.25,-7.2,-7.2008,-7.2016,-7.1985,-7.1677,-7.0233,-6.9687,-6.914,-6.7695,-6.7148,-6.6914,-6.6914,-6.6914,-6.6914,-6.6914,-6.6914,-6.6719,-6.6172,-6.5078,-6.3828,-6.2383,-6.1914,-6.1719,-6.1719,-6.1719,-6.1719,-6.1719,-6.1719,-6.1719,-6.1719,-6.1172,-6.0742,-6.043,-5.9922,-5.9258,-5.8398,-5.8359,-5.8086,-5.7539,-5.7539,-5.7812,-5.8359,-5.8359,-5.8633,-5.9219,-5.9219,-5.9336,-5.9679,-6.2524,-6.4702,-6.5587,-6.6951,-6.7888,-6.7068,-6.6795,-6.6249,-6.4572,-6.2735,-6.1405,0.0,0.0,-5.8753,-6.539,-6.6053,-6.7498,-7.2573,-7.3354,-7.308,0.0,0.0,0.0,0.0,0.0,0.0,-7.6867,0.0,-7.9951,-8.0888,-8.1786,-8.2293,-8.2293,-8.2293,-8.2293,-8.2293,-8.2293,-8.2293,-8.2293,-8.2293,-8.2293,-8.2293,-8.2293,-8.2293,-8.2293,-8.2293,-8.2254,-8.2098,-8.042,-7.9678,-7.9444,-7.7765,-7.7101,-7.7101,-7.7101,-7.7101,-7.7101,-7.7101,-7.7101,-7.6828,-7.5071,-7.4486,-7.4176,-7.251,-7.2006,-7.2012,-7.1987,-7.199,-7.1795,-7.0937,-7.0117,-6.9297,-6.8398,-6.7539,-6.6914,-6.6914,-6.6914,-6.6914,-6.6914,-6.6914,-6.6875,-6.6836,-6.543,-6.3984,-6.3125,-6.2265,-6.1719,-6.1719,-6.1719,-6.1719,-6.1719,-6.1719,-6.1719,-6.1719,-6.1719,-6.1367,-6.0508,-6.0469,-6.0117,-5.9297,-5.9258,-5.9258,-5.9219,-5.9219,-5.9219,-5.9258,-5.9258,-5.9297,-5.9336,-5.9336,-5.9726,-6.2375,-6.5183,-6.7328,-6.8205,-6.8279,-6.8044,-6.781,-6.6795,-6.5429,-6.3672,-6.0432,-5.7504,0.0,0.0,0.0,-6.1447,-6.5624,0.0,-7.2846,-7.4369,0.0,-7.3158,0.0,-7.433,-7.308,-7.4095,0.0,0.0,-7.7492,-7.8429,-7.9951,-8.1474,-8.2293,-8.2293,-8.2293,-8.2293,-8.2293,-8.2293,-8.2293,-8.2293,-8.2293,-8.2293,-8.2293,-8.2293,-8.2293,-8.2293,-8.2293,-8.1942,-8.1239,-8.0146,-7.9326,-7.8624,-7.7531,-7.7101,-7.7101,-7.7101,-7.7101,-7.7101,-7.7101,-7.7101,-7.6828,-7.5071,-7.4533,-7.4267,-7.2512,-7.2017,-7.1987,-7.1989,-7.1991,-7.1797,-7.0937,-7.0117,-6.9297,-6.8398,-6.7539,-6.6914,-6.6914,-6.6914,-6.6914,-6.6914,-6.6914,-6.668,-6.6055,-6.5039,-6.3984,-6.3125,-6.2265,-6.1719,-6.1719,-6.1719,-6.1719,-6.1719,-6.1719,-6.1719,-6.1719,-6.1719,-6.1601,-6.1367,-6.1367,-6.0976,-6.0117,-6.0078,-5.9805,-5.9219,-5.9219,-5.9492,-6.0078,-6.0078,-6.043,-6.1055,-6.1055,-6.1172,-6.519,-6.7571,-6.9287,-6.9386,-6.903,-6.8091,-6.5824,-6.4262,-6.2193,-5.8176,-5.513,0.0,0.0,0.0,0.0,0.0,0.0,0.0,-7.3197,-7.4642,-7.5032,0.0,-7.5227,0.0,-7.4486,-7.5266,-7.632,0.0,-7.8038,-7.8819,-8.0185,-8.1552,-8.2293,-8.2293,-8.2293,-8.2293,-8.2293,-8.2293,-8.2293,-8.2293,-8.2293,-8.2293,-8.2293,-8.2293,-8.2293,-8.2293,0.0,-8.1825,-8.0927,-8.0068,-7.917,-7.8311,-7.7453,-7.7101,-7.7101,-7.7101,-7.7101,-7.7101,-7.7101,-7.7101,-7.6828,-7.5118,-7.4577,-7.4271,-7.2523,-7.1985,-7.199,-7.1991,-7.1992,-7.1875,-7.1406,-7.039,-6.9375,-6.8867,-6.7773,-6.6914,-6.6914,-6.6914,-6.6914,-6.6914,-6.6914,-6.6758,-6.625,-6.5469,-6.457,-6.3711,-6.2812,-6.2148,-6.1758,-6.1719,-6.1719,-6.1719,-6.1719,-6.1719,-6.1719,-6.1719,-6.1719,-6.1719,-6.1719,-6.1484,-6.0976,-6.0976,-6.0742,-6.0312,-6.0312,-6.0508,-6.0976,-6.0976,-6.1211,-6.1719,-6.1719,-6.1719,-6.7888,-6.9685,-7.0699,-6.9944,-6.947,-6.7945,-6.2984,-6.0757,-5.7867,-5.1275,0.0,-4.7521,-4.6192,-4.7437,-5.0906,-5.7816,0.0,-6.6561,-7.351,-7.4408,-7.4759,-7.5852,-7.5969,-7.5969,-7.5969,-7.6089,-7.6828,-7.8468,-7.9366,-8.0185,-8.0966,-8.1825,-8.2293,-8.2293,-8.2293,-8.2293,-8.2293,-8.2293,-8.2293,-8.2293,-8.2293,-8.2293,-8.2293,-8.2293,-8.2293,-8.2293,0.0,0.0,-8.0771,-8.0029,-7.9131,-7.8155,-7.7414,-7.7101,-7.7101,-7.7101,-7.7101,-7.7101,-7.7101,-7.7101,-7.6834,-7.5126,-7.4584,-7.4275,-7.2534,-7.199,-7.199,-7.1992,-7.1992,-7.1992,-7.1992,-7.0859,-6.9609,-6.9453,-6.8203,-6.707,-6.707,-6.707,-6.7031,-6.6914,-6.6914,-6.6914,-6.6914,-6.6172,-6.5351,-6.4609,-6.3633,-6.2734,-6.1953,-6.1758,-6.1719,-6.1719,-6.1719,-6.1719,-6.1719,-6.1719,-6.1719,-6.1719,-6.1719,-6.1719,-6.1719,-6.1719,-6.1719,-6.1719,-6.1719,-6.1719,-6.1719,-6.1719,-6.1719,-6.1719,-6.1719,-6.1719,-6.9959,-7.1013,-7.1754,-7.159,-6.9903,-6.7361,-6.3618,-5.9356,0.0,0.0,-4.6119,-4.3654,-4.4085,-4.6149,-5.0048,-5.6918,0.0,0.0,0.0,0.0,-7.4369,0.0,0.0,0.0,0.0,0.0,0.0,0.0,0.0,-8.0849,-8.1005,-8.1825,-8.2293,-8.2293,-8.2293,-8.2293,-8.2293,-8.2293,-8.2293,-8.2293,-8.2293,-8.2293,-8.2293,-8.2293,-8.2293,-8.2293,-8.2293,0.0,-7.9912,-7.9756,-7.8741,-7.7296,-7.7179,-7.7101,-7.7101,-7.7101,-7.7101,-7.7101,-7.7101,-7.711,-7.6807,-7.5128,-7.459,-7.4285,-7.2535,-7.1991,-7.1992,-7.1992,-7.1992,-7.1992,-7.1992,-7.125,-7.0312,-6.957,-6.8672,-6.7969,-6.7969,-6.7969,-6.7773,-6.7031,-6.6914,-6.6914,-6.6914,-6.6172,-6.5547,-6.539,-6.4023,-6.2969,-6.2773,-6.2148,-6.1719,-6.1719,-6.1719,-6.1719,-6.1719,-6.1719,-6.1719,-6.1719,-6.1719,-6.1719,-6.1719,-6.1719,-6.1719,-6.1719,-6.1719,-6.1719,-6.1719,-6.1719,-6.1719,-6.1719,-6.1719,-6.1719,-7.1015,-7.1679,-7.2108,-7.2574,-7.0031,-6.6084,-6.0852,0.0,0.0,0.0,-4.187,-4.0422,-4.0383,0.0,0.0,0.0,0.0,0.0,0.0,0.0,0.0,0.0,0.0,0.0,0.0,0.0,0.0,0.0,0.0,-8.0732,-8.163,-8.2059,-8.2293,-8.2293,-8.2293,-8.2293,-8.2293,-8.2293,-8.2293,-8.2293,-8.2293,-8.2293,-8.2293,-8.2293,-8.2293,-8.2254,-8.1825,0.0,-7.9678,-7.9209,-7.8272,-7.7101,-7.7101,-7.7101,-7.7101,-7.7101,-7.7101,-7.7101,-7.711,-7.7117,-7.689,-7.5688,-7.4952,-7.4252,-7.2538,-7.1992,-7.1992,-7.1992,-7.1992,-7.1992,-7.1992,-7.1367,-7.0469,-6.9609,-6.8437,-6.7539,-6.7539,-6.7539,-6.7383,-6.6992,-6.6914,-6.6914,-6.6914,-6.6562,-6.6133,-6.5664,-6.4883,-6.4023,-6.3125,-6.2656,-6.2187,-6.1758,-6.1719,-6.1719,-6.1719,-6.1719,-6.1719,-6.1719,-6.1719,-6.1719,-6.1719,-6.1719,-6.1719,-6.1719,-6.1719,-6.1719,-6.1719,-6.1719,-6.1719,-6.1719,-6.1719,-6.1719,-7.1484,-7.1992,-7.2109,-7.2616,-6.9646,-6.4802,-5.7888,-5.281,0.0,0.0,-3.8281,-3.7967,-3.7654,0.0,0.0,0.0,0.0,0.0,0.0,0.0,0.0,0.0,0.0,0.0,0.0,0.0,0.0,0.0,0.0,0.0,-8.2215,-8.2293,-8.2293,-8.2293,-8.2293,-8.2293,-8.2293,-8.2293,-8.2293,-8.2293,-8.2293,-8.2293,-8.2293,-8.2293,-8.2215,-8.1981,-8.1317,0.0,0.0,-7.8663,-7.7882,-7.7101,-7.7101,-7.7101,-7.7101,-7.7104,-7.7107,-7.7107,-7.7083,-7.7128,-7.6975,-7.6166,-7.5309,-7.4294,-7.2734,-7.2148,-7.1992,-7.1992,-7.1992,-7.1992,-7.1992,-7.1484,-7.0703,-6.9687,-6.8398,-6.7344,-6.6992,-6.7031,-6.7109,-6.6953,-6.6914,-6.6914,-6.6914,-6.6914,-6.668,-6.5976,-6.5703,-6.5117,-6.3711,-6.3398,-6.293,-6.207,-6.1797,-6.1719,-6.1719,-6.1719,-6.1719,-6.1719,-6.1719,-6.1719,-6.1719,-6.1719,-6.1719,-6.1719,-6.1719,-6.1719,-6.1719,-6.1719,-6.1719,-6.1719,-6.1875,-6.1992,-7.1328,-7.1992,-7.1836,-7.1133,-6.832,-6.3905,-5.6992,0.0,0.0,-3.9883,-3.7343,-3.6717,-3.8201,-3.9527,-4.2492,0.0,0.0,-5.5024,0.0,0.0,0.0,0.0,0.0,0.0,0.0,0.0,0.0,0.0,0.0,0.0,-8.2293,-8.2293,-8.2293,-8.2293,-8.2293,-8.2293,-8.2293,-8.2293,-8.2293,-8.2293,-8.2293,-8.2293,-8.2293,-8.2293,-8.1864,-8.1122,-8.1044,0.0,0.0,-7.8429,-7.7882,-7.7101,-7.7101,-7.7101,-7.7104,-7.7117,-7.7081,-7.7083,-7.7094,-7.7141,-7.7066,-7.6168,-7.5309,-7.4411,-7.3476,-7.2617,-7.1992,-7.1992,-7.1992,-7.1992,-7.1992,-7.1953,-7.1484,-6.9883,-6.9336,-6.875,-6.7226,-6.7539,-6.7851,-6.7031,-6.6914,-6.6914,-6.6914,-6.6914,-6.6875,-6.6797,-6.6094,-6.5547,-6.539,-6.4687,-6.3867,-6.2969,-6.2187,-6.1719,-6.1719,-6.1719,-6.1719,-6.1719,-6.1719,-6.1719,-6.1719,-6.1719,-6.1719,-6.1719,-6.1719,-6.1719,-6.1719,-6.1719,-6.1719,-6.1719,-6.25,-6.289,-7.0898,-7.1992,-7.1914,-7.1562,-6.7734,-6.25,-5.664,0.0,-4.4609,-3.9648,-3.7226,-3.6211,-3.6914,-3.7733,-3.9569,-4.3358,-4.4645,-4.7963,-5.5927,0.0,0.0,0.0,0.0,0.0,0.0,0.0,0.0,0.0,0.0,0.0,-8.2254,-8.2293,-8.2293,-8.2293,-8.2293,-8.2293,-8.2293,-8.2293,-8.2293,-8.2293,-8.2293,-8.2293,-8.2293,-8.1747,-8.1317,-8.0927,-7.9873,0.0,0.0,-7.7843,-7.7414,-7.7101,-7.7101,-7.7107,-7.7115,-7.7081,-7.7087,-7.7094,-7.7141,-7.7183,-7.7067,-7.6171,-7.5312,-7.4453,-7.3554,-7.2695,-7.1992,-7.1992,-7.1992,-7.1992,-7.1992,-7.1601,-7.0937,-6.9726,-6.9062,-6.8359,-6.7148,-6.7578,-6.793,-6.707,-6.7305,-6.7539,-6.6992,-6.6914,-6.6914,-6.6914,-6.6601,-6.6172,-6.5664,-6.5312,-6.4765,-6.3867,-6.3008,-6.2265,-6.1758,-6.1719,-6.1719,-6.1719,-6.1719,-6.1719,-6.1719,-6.1719,-6.1719,-6.1719,-6.1719,-6.1719,-6.1719,-6.2226,-6.2461,-6.25,-6.3398,-6.3789,-6.9062,-7.0859,-7.1094,-7.0625,-6.6328,-6.0898,0.0,-4.9375,-4.3476,-3.9414,-3.7226,-3.6016,-3.6016,-3.6719,-3.7851,-3.9609,-4.1015,-4.4178,-5.0856,0.0,0.0,0.0,0.0,0.0,0.0,0.0,0.0,0.0,0.0,0.0,0.0,-8.1513,-8.1786,-8.2293,-8.2293,-8.2293,-8.2293,-8.2293,-8.2293,-8.2293,-8.2059,-8.1903,-8.1903,-8.1005,-8.0459,-8.0146,0.0,0.0,0.0,-7.7335,-7.7104,-7.7107,-7.7107,-7.7117,-7.7089,-7.713,-7.7135,-7.7141,-7.7184,-7.7186,-7.7069,-7.6172,-7.5312,-7.4453,-7.3555,-7.2695,-7.2031,-7.2305,-7.2383,-7.2344,-7.207,-7.1523,-7.0781,-6.9687,-6.8984,-6.8281,-6.7148,-6.7383,-6.7617,-6.7031,-6.7383,-6.7617,-6.6992,-6.6914,-6.6914,-6.6914,-6.6914,-6.668,-6.6055,-6.5976,-6.5664,-6.4765,-6.414,-6.332,-6.2187,-6.1836,-6.1719,-6.1719,-6.1719,-6.1836,-6.207,-6.207,-6.2226,-6.2461,-6.2461,-6.2461,-6.2461,-6.3086,-6.3398,-6.3398,-6.4297,-6.4805,-6.5546,-6.8164,-6.9023,-6.7383,-6.3672,-5.9062,0.0,-4.8047,-4.2734,-3.9297,-3.7226,-3.6016,-3.6016,-3.6719,-3.7851,-3.9609,-4.2031,-4.5781,-5.1833,0.0,0.0,0.0,0.0,0.0,0.0,0.0,0.0,0.0,0.0,0.0,0.0,-7.9717,-8.0537,-8.2254,-8.2293,-8.2293,-8.2293,-8.2293,-8.2293,-8.2293,-8.1435,-8.1005,-8.0966,-8.0107,-7.9248,0.0,0.0,0.0,0.0,-7.7101,-7.711,-7.7083,-7.7083,-7.7091,-7.7099,-7.7183,-7.7184,-7.7184,-7.7187,-7.7187,-7.707,-7.6172,-7.5312,-7.4453,-7.3555,-7.2695,-7.2187,-7.3047,-7.3281,-7.3086,-7.2226,-7.1992,-7.1562,-6.9805,-6.9453,-6.9023,-6.7265,-6.6914,-6.6914,-6.6914,-6.6914,-6.6914,-6.6914,-6.6914,-6.6914,-6.6914,-6.6914,-6.6914,-6.6875,-6.6875,-6.6562,-6.5664,-6.5586,-6.4883,-6.3125,-6.2187,-6.1719,-6.1719,-6.1719,-6.2109,-6.2969,-6.3008,-6.3398,-6.4258,-6.4258,-6.4258,-6.4258,-6.4297,-6.4297,-6.4297,-6.5195,-6.6055,-5.8856,-6.1091,-6.1875,-5.9531,-5.656,-5.3156,-4.9171,-4.494,-4.106,-3.8229,-3.6747,-3.593,-3.5976,-3.6211,-3.7734,-4.1836,-4.3164,-4.5586,0.0,0.0,0.0,0.0,0.0,0.0,0.0,0.0,0.0,0.0,0.0,0.0,0.0,-7.9717,-7.9951,-8.0498,-8.1083,-8.1396,-8.1396,-8.1396,-8.1396,-8.1396,-8.0537,-8.0107,-8.0068,-7.9209,0.0,0.0,0.0,0.0,0.0,-7.7112,-7.712,-7.7085,-7.7091,-7.7138,-7.7183,-7.7184,-7.7186,-7.7187,-7.7187,-7.7187,-7.6953,-7.5508,-7.4805,-7.4336,-7.2851,-7.2226,-7.207,-7.2344,-7.2851,-7.3086,-7.2226,-7.1992,-7.1562,-6.9805,-6.9453,-6.9023,-6.7265,-6.7383,-6.7773,-6.7773,-6.7773,-6.7773,-6.7773,-6.7305,-6.6914,-6.6914,-6.6914,-6.6914,-6.6914,-6.6914,-6.6797,-6.6523,-6.5976,-6.5156,-6.3984,-6.3633,-6.3476,-6.3476,-6.3476,-6.3594,-6.3867,-6.3906,-6.4023,-6.4297,-6.4297,-6.4297,-6.4297,-6.4883,-6.5508,-6.6094,-6.6367,-6.664,-5.3355,-5.5798,-5.6708,-5.4716,-5.2282,-4.9493,-4.6368,-4.2999,-3.9908,-3.7668,-3.6548,-3.5932,-3.5976,-3.6289,-3.7656,-4.1211,-4.2578,0.0,0.0,0.0,0.0,0.0,0.0,0.0,0.0,0.0,0.0,0.0,0.0,0.0,0.0,-7.871,-7.8708,-7.8702,-7.9873,-8.0498,-8.0498,-8.0498,-8.0498,-8.0498,-7.9639,-7.9209,-7.917,-7.8311,0.0,0.0,0.0,0.0,0.0,-7.7085,-7.7091,-7.7133,-7.7139,-7.7144,-7.7186,-7.7186,-7.7187,-7.7187,-7.7187,-7.6992,-7.6484,-7.5078,-7.414,-7.3476,-7.2734,-7.25,-7.2422,-7.2109,-7.2617,-7.3086,-7.2226,-7.1992,-7.1562,-6.9844,-6.9453,-6.9023,-6.7265,-6.7344,-6.7812,-6.8125,-6.8203,-6.8203,-6.8203,-6.7734,-6.7265,-6.6953,-6.6914,-6.6914,-6.6914,-6.6914,-6.6914,-6.6914,-6.6406,-6.5859,-6.5312,-6.4687,-6.4297,-6.4297,-6.4297,-6.4453,-6.4765,-6.4805,-6.4961,-6.5273,-6.5273,-6.5273,-6.5273,-6.582,-6.6367,-6.6914,-6.6914,-6.6914,0.0,-5.1554,-5.2656,-5.1717,-4.9718,-4.7291,-4.4796,-4.1818,0.0,-3.7434,-3.6516,-3.6015,-3.6172,-3.6797,-3.7695,-3.8945,-4.125,0.0,0.0,0.0,0.0,0.0,0.0,0.0,0.0,0.0,0.0,0.0,0.0,0.0,0.0,-7.7085,-7.7117,-7.7104,-7.8666,-7.9525,-7.96,-7.96,-7.96,-7.96,-7.8705,-7.8314,-7.8275,-7.7456,0.0,0.0,0.0,0.0,0.0,-7.7096,-7.7142,-7.7184,-7.7184,-7.7186,-7.7187,-7.7187,-7.7187,-7.7187,-7.7187,-7.664,-7.5742,-7.4805,-7.3359,-7.2148,-7.3007,-7.3281,-7.3125,-7.2305,-7.2695,-7.3086,-7.2226,-7.1992,-7.1562,-6.9883,-6.9531,-6.9101,-6.7383,-6.7031,-6.7344,-6.8203,-6.832,-6.8281,-6.8281,-6.8242,-6.789,-6.7031,-6.6914,-6.6914,-6.6914,-6.6914,-6.6914,-6.6914,-6.6914,-6.6914,-6.6914,-6.543,-6.4492,-6.4492,-6.4492,-6.4844,-6.5664,-6.5703,-6.6055,-6.6875,-6.6914,-6.6914,-6.6914,-6.6914,-6.6914,-6.6914,-6.6914,-6.6914,-4.0615,0.0,-4.3635,-4.2109,-4.1247,-4.0424,0.0,-3.8197,-3.7294,-3.632,-3.5997,-3.6297,-3.7733,-3.7617,-3.8867,-4.3711,-4.6094,0.0,0.0,0.0,0.0,0.0,0.0,0.0,0.0,0.0,0.0,0.0,0.0,0.0,0.0,-7.7096,-7.7094,-7.7093,-7.7483,-7.8022,-7.8702,-7.8702,-7.8702,-7.8702,-7.7815,-7.7391,-7.7393,-7.7206,0.0,0.0,0.0,0.0,-7.7096,-7.7142,-7.7184,-7.7184,-7.7187,-7.7187,-7.7187,-7.7187,-7.7187,-7.7187,-7.7187,-7.664,-7.5664,-7.4101,-7.289,-7.2148,-7.291,-7.3233,-7.3242,-7.3047,-7.3125,-7.3086,-7.2226,-7.1992,-7.1562,-6.9844,-6.9922,-6.9961,-6.8242,-6.8398,-6.9062,-6.9922,-6.9609,-6.918,-6.914,-6.8594,-6.789,-6.7031,-6.6914,-6.6914,-6.6914,-6.6914,-6.6914,-6.6914,-6.6914,-6.6914,-6.6914,-6.6523,-6.6289,-6.6289,-6.6289,-6.6367,-6.6601,-6.6601,-6.668,-6.6914,-6.6914,-6.6914,-6.6914,-6.6914,-6.6914,-6.6914,-6.6914,-6.6914,-3.6903,-3.8947,-4.0667,-3.9725,-3.9486,-3.9213,-3.836,-3.7565,-3.6763,-3.5953,0.0,-3.6312,-3.7734,-3.793,-3.9336,-4.3789,-4.6328,0.0,0.0,0.0,0.0,0.0,0.0,0.0,0.0,0.0,0.0,0.0,0.0,0.0,0.0,-7.7142,-7.7141,-7.7099,-7.7099,-7.7329,-7.7786,-7.7786,-7.7786,-7.7786,-7.7323,-7.7091,-7.7091,-7.7096,-7.7099,0.0,0.0,0.0,-7.7142,-7.7185,-7.7187,-7.7187,-7.7187,-7.7187,-7.7187,-7.7143,-7.7099,-7.7058,-7.6573,-7.5629,-7.434,-7.301,-7.2268,-7.2065,-7.3236,-7.3137,-7.2664,-7.3072,-7.2966,-7.2578,-7.2109,-7.1992,-7.164,-7.0312,-7.0351,-7.0351,-6.9023,-6.9101,-6.9648,-7.0547,-7.0351,-7.0039,-7.0,-6.9648,-6.8945,-6.7695,-6.75,-6.7344,-6.6953,-6.6914,-6.6914,-6.6914,-6.6914,-6.6914,-6.6914,-6.6914,-6.6914,-6.6914,-6.6914,-6.6914,-6.6914,-6.6914,-6.6914,-6.6914,-6.6914,-6.6914,-6.6914,-6.6914,-6.6914,-6.6914,-6.6914,-6.6914,-3.6173,-3.8572,-4.0855,-4.0352,-4.039,-4.0352,-3.9501,0.0,0.0,0.0,0.0,0.0,-3.7851,-3.8789,0.0,0.0,0.0,0.0,0.0,0.0,0.0,0.0,0.0,0.0,0.0,0.0,0.0,0.0,0.0,0.0,0.0,-7.7185,-7.7184,-7.7101,-7.7101,-7.7101,-7.7101,-7.7099,-7.7099,-7.7099,-7.7099,-7.7139,-7.7139,-7.7101,-7.7101,0.0,0.0,0.0,-7.7185,-7.7187,-7.7187,-7.7187,-7.7187,-7.7186,-7.7145,-7.7032,-7.689,-7.661,-7.5518,-7.4199,-7.2874,-7.1973,-7.1778,-7.2162,-7.3703,-7.3085,-7.2067,-7.299,-7.2625,-7.1949,-7.1951,-7.1952,-7.1757,-7.0898,-7.0781,-7.0664,-6.9805,-6.9687,-7.0039,-7.0742,-7.0898,-7.0859,-7.0703,-7.0703,-7.0195,-6.8633,-6.8281,-6.793,-6.7187,-6.6992,-6.6914,-6.6914,-6.6914,-6.6914,-6.6914,-6.6914,-6.6914,-6.6914,-6.6914,-6.6914,-6.6914,-6.6914,-6.6914,-6.6914,-6.6914,-6.6914,-6.6914,-6.6914,-6.6914,-6.6914,-6.6914,-6.6914,-3.834,-4.0352,-4.1119,-3.8218,-3.8605,-3.9462,-3.8605,-3.8202,0.0,0.0,0.0,0.0,0.0,0.0,0.0,0.0,0.0,0.0,0.0,0.0,0.0,0.0,0.0,0.0,0.0,0.0,0.0,0.0,0.0,0.0,0.0,-7.7187,-7.7187,-7.7187,-7.7187,-7.7187,-7.7187,-7.7143,-7.7099,-7.7099,-7.7143,-7.7184,-7.7184,-7.7186,-7.7187,0.0,0.0,-7.7187,-7.7187,-7.7187,-7.7187,-7.7187,-7.7091,-7.7037,-7.699,-7.6873,-7.6365,-7.5507,-7.3932,-7.3225,-7.2874,-7.1973,-7.2167,-7.2879,-7.3768,-7.343,-7.2885,-7.3635,-7.2822,-7.1768,-7.1831,-7.1844,-7.1657,-7.0898,-7.125,-7.1562,-7.0703,-7.1094,-7.164,-7.1758,-7.1797,-7.1562,-7.082,-7.0703,-7.039,-6.9453,-6.8672,-6.8164,-6.8008,-6.7344,-6.6914,-6.6914,-6.6914,-6.6914,-6.6914,-6.6914,-6.6914,-6.6914,-6.6914,-6.6914,-6.6914,-6.6914,-6.6914,-6.6914,-6.6914,-6.6914,-6.6914,-6.6914,-6.6914,-6.6914,-6.6914,-6.6914,-3.7141,-3.8998,-4.0507,-3.9804,-4.1319,-4.275,-4.1854,-4.0969,-4.0327,0.0,0.0,0.0,0.0,0.0,0.0,0.0,0.0,0.0,0.0,0.0,0.0,0.0,0.0,0.0,0.0,0.0,0.0,0.0,0.0,0.0,0.0,0.0,-7.7187,-7.7187,-7.7187,-7.7187,-7.7187,-7.7186,-7.7146,-7.7146,-7.7186,-7.7187,-7.7187,-7.7187,-7.7187,-7.7187,0.0,-7.7146,-7.7096,-7.7096,-7.677,-7.6272,-7.6197,-7.5911,-7.5473,-7.5385,-7.4732,-7.3834,-7.3057,-7.2474,-7.2008,-7.162,-7.2039,-7.2876,-7.3714,-7.3714,-7.3488,-7.3869,-7.285,-7.1726,-7.1777,-7.1792,-7.1727,-7.1483,-7.1719,-7.1875,-7.1484,-7.1719,-7.1992,-7.1992,-7.1992,-7.1875,-7.1484,-7.1406,-7.1133,-7.0273,-6.9805,-6.9375,-6.8945,-6.8125,-6.7617,-6.7617,-6.7187,-6.6914,-6.6914,-6.6914,-6.6914,-6.6914,-6.6914,-6.6914,-6.6914,-6.6914,-6.6914,-6.6914,-6.6914,-6.6914,-6.6914,-6.6914,-6.6914,-6.6914,-6.6914,-6.6914,-3.6676,-3.8185,-4.0004,-4.2086,-4.3943,-4.5374,-4.5722,-4.4511,-4.3441,0.0,0.0,0.0,0.0,0.0,0.0,0.0,0.0,0.0,0.0,0.0,0.0,0.0,0.0,0.0,0.0,0.0,0.0,0.0,0.0,0.0,0.0,0.0,-7.6601,-7.6601,-7.6601,-7.6601,-7.6601,-7.6601,-7.6797,-7.7187,-7.7187,-7.7187,-7.7187,-7.6992,-7.6914,-7.6875,-7.6639,-7.6473,-7.6399,-7.6344,-7.5872,-7.5174,-7.5183,-7.4762,-7.4099,-7.3851,-7.3268,-7.2568,-7.2375,-7.1872,-7.1291,-7.1291,-7.2026,-7.3032,-7.369,-7.4038,-7.4154,-7.396,-7.2956,-7.1874,-7.1759,-7.1757,-7.1825,-7.1946,-7.1991,-7.1992,-7.1992,-7.1992,-7.1992,-7.1992,-7.1992,-7.1992,-7.1992,-7.1992,-7.1758,-7.1094,-7.082,-7.0469,-6.9844,-6.9023,-6.8398,-6.8203,-6.7617,-6.7109,-6.6914,-6.6914,-6.6914,-6.6914,-6.6914,-6.6914,-6.6914,-6.6914,-6.6914,-6.6914,-6.6914,-6.6914,-6.6914,-6.6914,-6.6914,-6.6914,-6.6914,-6.6992,-3.9578,-3.9965,-4.0274,-4.3595,-4.3943,-4.4523,-4.843,-4.7973,-4.74,-4.9792,0.0,0.0,0.0,0.0,0.0,0.0,0.0,0.0,0.0,0.0,0.0,0.0,0.0,0.0,0.0,0.0,0.0,0.0,0.0,0.0,0.0,0.0,0.0,-7.4805,-7.4805,-7.4805,-7.4805,-7.4805,-7.5586,-7.7187,-7.7187,-7.7187,-7.7187,-7.6367,-7.5976,-7.5937,-7.5021,-7.4611,-7.4564,-7.445,-7.4371,-7.4272,-7.4211,-7.4082,-7.3812,-7.3027,-7.2656,-7.2491,-7.1678,-7.133,-7.1291,-7.1291,-7.2452,-7.3806,-7.3883,-7.4425,-7.485,-7.4115,-7.3248,-7.2393,-7.1706,-7.1628,-7.1741,-7.1783,-7.1906,-7.1992,-7.1992,-7.1992,-7.1992,-7.1992,-7.1992,-7.1992,-7.1992,-7.1992,-7.1992,-7.1914,-7.1211,-7.0664,-7.0625,-6.9844,-6.9023,-6.8281,-6.8125,-6.7773,-6.6953,-6.6914,-6.6914,-6.6914,-6.6914,-6.6914,-6.6914,-6.6914,-6.6914,-6.6914,-6.6914,-6.6914,-6.6914,-6.6914,-6.6914,-6.6914,-6.6914,-6.7344,-3.787,-3.9307,-4.1009,-4.3866,-4.5955,-4.7966,-5.0635,-5.1177,-5.1796,-5.434,-5.4243,0.0,0.0,0.0,0.0,0.0,0.0,0.0,0.0,0.0,0.0,0.0,0.0,0.0,0.0,0.0,0.0,0.0,0.0,0.0,0.0,0.0,0.0,-7.4609,-7.4609,-7.4609,-7.4609,-7.4609,-7.4922,-7.5586,-7.5586,-7.5586,-7.5586,-7.5234,-7.5037,-7.4945,-7.4577,-7.432,-7.423,-7.4177,-7.3783,-7.3168,-7.258,-7.2344,-7.2258,-7.191,-7.1794,-7.1756,-7.1407,-7.1291,-7.1369,-7.191,-7.2916,-7.3999,-7.4502,-7.5237,-7.5624,-7.427,-7.3651,-7.3126,-7.1819,-7.1529,-7.1595,-7.1767,-7.1846,-7.1903,-7.1992,-7.1992,-7.1992,-7.1992,-7.1992,-7.1992,-7.1992,-7.1992,-7.1992,-7.1992,-7.1719,-7.1523,-7.1523,-7.0742,-7.0078,-6.9805,-6.8828,-6.8086,-6.7734,-6.7226,-6.6914,-6.6914,-6.6914,-6.6914,-6.6914,-6.6914,-6.6914,-6.6914,-6.6914,-6.6914,-6.6914,-6.6914,-6.6914,-6.6914,-6.7461,-6.789,-3.7251,-3.8837,-4.1126,-4.4214,-4.7154,-5.0171,-5.3459,-5.4465,-5.5664,-5.9029,-5.8639,-5.7808,0.0,0.0,0.0,0.0,0.0,0.0,0.0,0.0,0.0,0.0,0.0,0.0,0.0,0.0,0.0,0.0,0.0,0.0,0.0,0.0,0.0,0.0,-7.3789,-7.3789,-7.3789,-7.3789,-7.3789,-7.3789,-7.3748,-7.4022,-7.4609,-7.4255,-7.4087,-7.3978,-7.3622,-7.3391,-7.3268,-7.3216,-7.2793,-7.2142,-7.1523,-7.1291,-7.1291,-7.1291,-7.1291,-7.1291,-7.1291,-7.1485,-7.1794,-7.2413,-7.338,-7.4386,-7.4928,-7.5508,-7.5701,-7.4309,-7.369,-7.3181,-7.1785,-7.1478,-7.1544,-7.1687,-7.1741,-7.1774,-7.1891,-7.1904,-7.1947,-7.1898,-7.1949,-7.1992,-7.1949,-7.1952,-7.1992,-7.1992,-7.1992,-7.1992,-7.1992,-7.1484,-7.1015,-7.0742,-6.9414,-6.8594,-6.8594,-6.8047,-6.7578,-6.7344,-6.7305,-6.7187,-6.6914,-6.6914,-6.6914,-6.6914,-6.6914,-6.6914,-6.6914,-6.7187,-6.7305,-6.7344,-6.8164,-6.8711,-3.845,-3.8837,-4.0545,-4.4762,0.0,0.0,-5.7056,-5.7946,-5.8797,-6.398,-6.3064,-6.1077,-6.0277,0.0,0.0,0.0,0.0,0.0,0.0,0.0,0.0,0.0,0.0,0.0,0.0,0.0,0.0,0.0,0.0,0.0,0.0,0.0,0.0,0.0,-7.1992,-7.1992,-7.1992,-7.1992,-7.1992,-7.1992,-7.1854,-7.2754,-7.4531,-7.3533,-7.308,-7.3036,-7.1972,-7.1481,-7.1503,-7.1348,-7.1291,-7.1291,-7.1291,-7.1291,-7.1291,-7.1291,-7.1291,-7.1291,-7.1291,-7.1872,-7.2607,-7.2607,-7.3728,-7.5071,-7.5109,-7.5071,-7.4928,-7.4115,-7.3264,-7.2413,-7.1523,-7.1417,-7.1481,-7.1481,-7.1601,-7.17,-7.17,-7.1741,-7.1774,-7.1721,-7.1875,-7.1951,-7.1802,-7.1906,-7.1992,-7.1992,-7.1992,-7.1992,-7.1992,-7.1992,-7.168,-7.0781,-6.9922,-6.9453,-6.9492,-6.9453,-6.9062,-6.8242,-6.8203,-6.7812,-6.6953,-6.6914,-6.6914,-6.6914,-6.6914,-6.6914,-6.6914,-6.7773,-6.8203,-6.8242,-6.9023,-6.9883,-3.8251,-4.0152,0.0,-4.5955,0.0,0.0,0.0,-6.0615,0.0,0.0,-6.5645,-6.3842,0.0,0.0,0.0,0.0,0.0,0.0,0.0,0.0,0.0,0.0,0.0,0.0,0.0,0.0,0.0,0.0,0.0,0.0,0.0,0.0,0.0,0.0,-7.1992,-7.1992,-7.1992,-7.1904,-7.1854,-7.1852,-7.1753,-7.2069,-7.2633,-7.226,-7.2061,-7.1972,-7.1645,-7.1452,-7.1348,-7.1324,-7.1291,-7.1291,-7.1291,-7.1291,-7.1291,-7.1291,-7.1678,-7.222,-7.222,-7.28,-7.3612,-7.4193,-7.4309,-7.4347,-7.4928,-7.4695,-7.4077,-7.3226,-7.28,-7.2413,-7.1523,-7.1345,-7.1397,-7.1495,-7.1521,-7.1587,-7.1683,-7.1726,-7.1702,-7.1705,-7.175,-7.1799,-7.1789,-7.1844,-7.1902,-7.1992,-7.1992,-7.1992,-7.1992,-7.1992,-7.1914,-7.164,-7.082,-7.0312,-7.0351,-6.9765,-6.9336,-6.914,-6.9062,-6.8398,-6.6953,-6.6914,-6.6914,-6.6914,-6.75,-6.7812,-6.7812,-6.8633,-6.9062,-6.914,-6.9922,-7.0469,-4.0455,-4.2744,0.0,-4.9668,-5.373,-5.7976,-6.2588,0.0,0.0,0.0,0.0,0.0,0.0,0.0,0.0,0.0,0.0,0.0,0.0,0.0,0.0,0.0,0.0,0.0,0.0,0.0,0.0,0.0,0.0,0.0,0.0,0.0,0.0,0.0,-7.1887,-7.1887,-7.1887,-7.1813,-7.1749,-7.1749,-7.1689,-7.1626,-7.1692,-7.162,-7.1573,-7.152,-7.1443,-7.1378,-7.1291,-7.1291,-7.1291,-7.1291,-7.1291,-7.1291,-7.1291,-7.1291,-7.1833,-7.2607,-7.2607,-7.338,-7.4386,-7.4579,-7.4502,-7.4425,-7.4579,-7.4038,-7.3264,-7.2761,-7.2336,-7.1949,-7.1446,-7.1291,-7.1334,-7.1378,-7.1406,-7.1443,-7.1513,-7.158,-7.1608,-7.1544,-7.1634,-7.1711,-7.1692,-7.1757,-7.1841,-7.1904,-7.1952,-7.1992,-7.1992,-7.1992,-7.1992,-7.1992,-7.1523,-7.1211,-7.1211,-7.0742,-7.0312,-7.0,-6.9922,-6.9336,-6.8008,-6.793,-6.793,-6.789,-6.8398,-6.8672,-6.8711,-6.9531,-6.9922,-7.0,-7.082,-7.1211,-4.3788,-4.5838,0.0,-5.4619,-5.6476,0.0,-6.5876,0.0,0.0,0.0,0.0,0.0,0.0,0.0,0.0,0.0,0.0,0.0,0.0,0.0,0.0,0.0,0.0,0.0,0.0,0.0,0.0,0.0,0.0,0.0,0.0,0.0,0.0,-7.1466,-7.1466,-7.1505,-7.1583,-7.1572,-7.1605,0.0,-7.1544,-7.1495,-7.1495,-7.1495,-7.1495,-7.1486,-7.1348,-7.1291,-7.1291,-7.1291,-7.1291,-7.1291,-7.1291,-7.1291,-7.1291,-7.1369,-7.1949,-7.2723,-7.2723,-7.3767,-7.4955,-7.4154,-7.4347,-7.4734,-7.3999,-7.3187,-7.2491,-7.2491,-7.191,-7.1291,-7.1291,-7.1291,-7.1291,-7.1291,-7.1291,-7.1291,-7.1291,-7.1417,-7.1413,-7.1218,-7.1365,-7.1518,-7.1389,-7.1549,-7.1699,-7.1783,-7.19,-7.1951,-7.1951,-7.1991,-7.1992,-7.1992,-7.1992,-7.1992,-7.1992,-7.1992,-7.164,-7.0859,-7.082,-7.0508,-6.9765,-6.957,-6.9453,-6.9414,-6.9492,-6.9531,-6.9609,-7.043,-7.082,-7.0859,-7.164,-7.1992,-4.2899,-4.58,0.0,0.0,-6.0074,-6.3826,-6.6804,0.0,0.0,0.0,0.0,0.0,0.0,0.0,0.0,0.0,0.0,0.0,0.0,0.0,0.0,0.0,0.0,0.0,0.0,0.0,0.0,0.0,0.0,0.0,0.0,0.0,0.0,-6.9679,-6.964,-6.999,-7.0653,-7.059,-7.0883,0.0,-7.1387,-7.1327,-7.1327,-7.1327,-7.1327,-7.1327,-7.1313,-7.1291,-7.1291,-7.1291,-7.1291,-7.1291,-7.1291,-7.1291,-7.1369,-7.2065,-7.2877,-7.3612,-7.3612,-7.427,-7.4955,-7.4154,-7.3535,-7.3109,-7.2916,-7.2258,-7.1562,-7.1562,-7.1446,-7.1291,-7.1291,-7.1291,-7.1291,-7.1291,-7.1291,-7.1291,-7.1291,-7.1334,-7.1123,-7.0412,-7.033,-7.0388,-7.0463,-7.054,-7.081,-7.1609,-7.1755,-7.1768,-7.1768,-7.1822,-7.1848,-7.1848,-7.1949,-7.1992,-7.1992,-7.1992,-7.1914,-7.1719,-7.1719,-7.164,-7.1484,-7.0156,-6.9414,-6.9414,-7.0078,-7.043,-7.043,-7.1289,-7.1719,-7.1719,-7.1914,-7.1992,-4.3866,0.0,0.0,-5.8053,0.0,0.0,0.0,0.0,0.0,0.0,0.0,0.0,0.0,0.0,0.0,0.0,0.0,0.0,0.0,0.0,0.0,0.0,0.0,0.0,0.0,0.0,0.0,0.0,0.0,0.0,0.0,-6.8867,-6.8873,-6.8972,-6.8972,-6.9166,-6.9632,-6.958,-6.9759,-7.0224,-7.0145,-7.0092,-7.0131,-7.0943,-7.1291,-7.1291,-7.1291,-7.1291,-7.1291,-7.1291,-7.1291,-7.1291,-7.1291,-7.1291,-7.1369,-7.1794,-7.2529,-7.3264,-7.3264,-7.3844,-7.4386,-7.3535,-7.2955,-7.2529,-7.2104,-7.164,-7.1291,-7.1291,-7.1291,-7.1291,-7.1291,-7.1291,-7.1291,-7.1291,-7.1291,-7.1291,-7.1291,-7.1291,-7.1175,-7.0711,-7.0634,-7.0638,-7.0709,-7.077,-7.1038,-7.1605,-7.17,-7.17,-7.17,-7.1711,-7.1741,-7.1741,-7.1816,-7.1885,-7.1903,-7.1904,-7.1948,-7.1992,-7.1949,-7.1948,-7.1992,-7.105,-7.0581,-7.0625,-7.1094,-7.1328,-7.1328,-7.1797,-7.1992,-7.1992,-7.1992,-7.1952,-4.433,0.0,-5.3489,-6.0615,-6.4213,0.0,0.0,0.0,0.0,0.0,0.0,0.0,0.0,0.0,0.0,0.0,0.0,0.0,0.0,0.0,0.0,0.0,0.0,0.0,0.0,0.0,0.0,0.0,0.0,0.0,-6.8352,-6.8352,-6.8352,-6.8352,-6.8352,-6.8429,-6.8584,-6.8584,-6.8661,-6.8816,-6.8816,-6.8816,-6.8854,-7.0247,-7.0943,-7.1059,-7.1214,-7.1291,-7.1291,-7.1291,-7.1291,-7.1291,-7.1291,-7.1291,-7.133,-7.1485,-7.1988,-7.2607,-7.2607,-7.3071,-7.3535,-7.2645,-7.2375,-7.222,-7.1523,-7.1291,-7.1291,-7.1291,-7.1291,-7.1291,-7.1291,-7.1291,-7.1291,-7.1291,-7.1291,-7.1291,-7.1291,-7.1291,-7.1253,-7.1098,-7.1059,-7.1059,-7.1059,-7.1291,-7.1489,-7.1615,-7.1634,-7.1634,-7.1634,-7.1653,-7.1671,-7.1671,-7.1689,-7.1736,-7.1771,-7.1777,-7.1836,-7.1947,-7.1841,-7.1839,-7.1947,-7.1841,-7.1839,-7.1948,-7.1991,-7.1992,-7.1992,-7.1992,-7.1992,-7.1952,-7.1992,-7.1907,-4.0584,0.0,-5.6476,0.0,0.0,0.0,0.0,0.0,0.0,0.0,0.0,0.0,0.0,0.0,0.0,0.0,0.0,0.0,0.0,0.0,0.0,0.0,0.0,0.0,0.0,0.0,0.0,0.0,0.0,0.0,-6.6533,-6.6533,-6.6533,-6.6533,-6.6533,-6.692,-6.7655,-6.7655,-6.8042,-6.8816,-6.8816,-6.8816,-6.8816,-6.9048,-6.9512,-7.0208,-7.0982,-7.1291,-7.1291,-7.1291,-7.1291,-7.1291,-7.1291,-7.1291,-7.1369,-7.2142,-7.2491,-7.2607,-7.2607,-7.2684,-7.2645,-7.1756,-7.1485,-7.1446,-7.133,-7.1291,-7.1291,-7.1291,-7.1291,-7.1291,-7.1291,-7.1291,-7.1291,-7.1291,-7.1291,-7.1291,-7.1291,-7.1291,-7.1059,-7.0324,-7.017,-7.017,-7.017,-7.0821,-7.1306,-7.1337,-7.1348,-7.1348,-7.1348,-7.146,-7.1513,-7.1513,-7.1634,-7.1705,-7.1721,-7.1721,-7.1731,-7.1746,-7.1731,-7.1731,-7.1746,-7.1731,-7.1731,-7.1746,-7.1898,-7.1992,-7.1992,-7.1992,-7.1949,-7.1844,-7.1949,-7.1895,-4.3092,-5.0094,-5.6592,0.0,0.0,0.0,0.0,0.0,0.0,0.0,0.0,0.0,0.0,0.0,0.0,0.0,0.0,0.0,0.0,0.0,0.0,0.0,0.0,0.0,0.0,0.0,0.0,0.0,0.0,-6.6185,-6.6185,-6.6185,-6.6185,-6.6185,-6.6185,-6.6379,-6.6766,-6.6766,-6.6959,-6.7346,-6.7346,-6.7346,-6.7346,-6.7849,-6.8545,-6.9357,-6.9744,-7.017,-7.0556,-7.0556,-7.0866,-7.1291,-7.1291,-7.1291,-7.133,-7.1717,-7.1872,-7.1872,-7.1872,-7.1872,-7.1794,-7.1407,-7.1291,-7.1291,-7.1291,-7.1291,-7.1291,-7.1291,-7.1291,-7.1291,-7.1291,-7.1291,-7.1291,-7.1291,-7.1291,-7.1291,-7.1291,-7.1291,-7.1175,-7.0789,-7.0711,-7.0711,-7.0711,-7.1059,-7.1291,-7.1291,-7.1291,-7.1291,-7.1291,-7.1337,-7.1397,-7.1397,-7.1443,-7.1489,-7.158,-7.1587,-7.1621,-7.1694,-7.1634,-7.1628,-7.17,-7.1634,-7.1628,-7.17,-7.1788,-7.1836,-7.19,-7.19,-7.1852,-7.1792,-7.1854,-7.1764,-4.3711,-4.8933,-5.3304,-5.9309,0.0,0.0,0.0,0.0,0.0,0.0,0.0,0.0,0.0,0.0,0.0,0.0,0.0,0.0,0.0,0.0,0.0,0.0,0.0,0.0,0.0,0.0,0.0,0.0,0.0,-6.6185,-6.6185,-6.6417,-6.6533,-6.6533,-6.6533,-6.6533,-6.6533,-6.6301,-6.6185,-6.6185,-6.6185,-6.6185,-6.6224,-6.6882,-6.7539,-6.8158,-6.8622,-6.9125,-6.9705,-6.9705,-7.0208,-7.0982,-7.0982,-7.1098,-7.1291,-7.1291,-7.1291,-7.1291,-7.1291,-7.1291,-7.1291,-7.1291,-7.1291,-7.1291,-7.1291,-7.1291,-7.1291,-7.1291,-7.1291,-7.1291,-7.1291,-7.1291,-7.1291,-7.1291,-7.1291,-7.1291,-7.1291,-7.1291,-7.1291,-7.1291,-7.1291,-7.1291,-7.1291,-7.1291,-7.1291,-7.1291,-7.1291,-7.1291,-7.1291,-7.1291,-7.1291,-7.1291,-7.1291,-7.1327,-7.1443,-7.1452,-7.1473,-7.1594,-7.1489,-7.1473,-7.1594,-7.1489,-7.152,-7.1601,-7.1601,-7.1644,-7.1767,-7.1767,-7.1757,-7.1737,-7.1757,-7.1666,-3.8495,-4.1893,0.0,-5.1301,0.0,0.0,0.0,0.0,0.0,0.0,0.0,0.0,0.0,0.0,0.0,0.0,0.0,0.0,0.0,0.0,0.0,0.0,0.0,0.0,0.0,0.0,0.0,0.0,0.0,-6.6185,-6.6185,-6.6998,-6.7423,-6.7423,-6.7423,-6.7423,-6.7423,-6.6611,-6.6185,-6.6185,-6.6185,-6.6185,-6.6185,-6.6263,-6.6301,-6.6417,-6.8081,-6.8816,-6.8854,-6.8854,-6.9357,-7.0054,-7.0054,-7.0556,-7.1291,-7.1291,-7.1291,-7.1291,-7.1291,-7.1291,-7.1291,-7.1291,-7.1291,-7.1291,-7.1291,-7.1291,-7.1291,-7.1291,-7.1291,-7.1291,-7.1291,-7.1291,-7.1291,-7.1291,-7.1291,-7.1291,-7.1291,-7.1291,-7.1291,-7.1291,-7.1291,-7.1291,-7.1291,-7.1291,-7.1291,-7.1291,-7.1291,-7.1291,-7.1291,-7.1291,-7.1291,-7.1291,-7.1291,-7.1302,-7.1313,-7.1313,-7.1313,-7.1334,-7.1324,-7.1313,-7.1334,-7.1313,-7.1313,-7.1334,-7.1334,-7.1452,-7.1711,-7.1711,-7.1647,-7.1513,-7.1653,-7.1566,-3.6864,-4.0113,0.0,0.0,0.0,0.0,0.0,0.0,0.0,0.0,0.0,0.0,0.0,0.0,0.0,0.0,0.0,0.0,0.0,0.0,0.0,0.0,0.0,0.0,0.0,0.0,0.0,0.0,0.0,0.0,-6.6185,-6.6495,-6.6688,-6.6688,-6.6688,-6.692,-6.7501,-6.665,-6.6495,-6.7036,-6.6456,-6.6185,-6.6185,-6.6185,-6.6185,-6.6224,-6.6843,-6.7462,-6.7965,-6.7965,-6.8468,-6.928,-6.9783,-7.017,-7.0518,-7.1098,-7.1291,-7.1291,-7.1291,-7.1291,-7.1291,-7.1291,-7.1291,-7.1291,-7.1291,-7.1291,-7.1291,-7.1291,-7.1291,-7.1291,-7.1291,-7.1291,-7.1291,-7.1291,-7.1291,-7.1291,-7.1291,-7.1291,-7.1291,-7.1291,-7.1291,-7.1291,-7.1291,-7.1291,-7.1291,-7.1291,-7.1291,-7.1291,-7.1291,-7.1291,-7.1291,-7.1291,-7.1291,-7.1291,-7.1291,-7.1291,-7.1291,-7.1291,-7.1291,-7.1291,-7.1291,-7.1291,-7.1291,-7.1291,-7.1291,-7.1407,-7.1573,-7.1573,-7.1544,-7.1481,-7.1544,-7.1486,-3.435,-3.729,0.0,0.0,0.0,0.0,0.0,0.0,0.0,0.0,0.0,0.0,0.0,0.0,0.0,0.0,0.0,0.0,0.0,0.0,0.0,0.0,0.0,0.0,0.0,0.0,0.0,0.0,0.0,0.0,-6.6185,-6.6495,-6.665,-6.665,-6.665,-6.692,-6.7501,-6.692,-6.692,-6.7501,-6.692,-6.6495,-6.6185,-6.6185,-6.6185,-6.6185,-6.6185,-6.6533,-6.7075,-6.7075,-6.7578,-6.8468,-6.928,-6.9744,-7.0092,-7.0982,-7.1291,-7.1291,-7.1291,-7.1291,-7.1291,-7.1291,-7.1291,-7.1291,-7.1291,-7.1291,-7.1291,-7.1291,-7.1291,-7.1291,-7.1291,-7.1291,-7.1291,-7.1291,-7.1291,-7.1291,-7.1291,-7.1291,-7.1291,-7.1291,-7.1291,-7.1291,-7.1291,-7.1291,-7.1291,-7.1291,-7.1291,-7.1291,-7.1291,-7.1291,-7.1291,-7.1291,-7.1291,-7.1291,-7.1291,-7.1291,-7.1291,-7.1291,-7.1291,-7.1291,-7.1291,-7.1291,-7.1291,-7.1291,-7.1291,-7.1327,-7.1425,-7.1425,-7.1425,-7.1425,-7.1425,-7.1397,0.0,0.0,0.0,0.0,0.0,0.0,0.0,0.0,0.0,0.0,0.0,0.0,0.0,0.0,0.0,0.0,0.0,0.0,0.0,0.0,0.0,0.0,0.0,0.0,0.0,0.0,0.0,0.0,0.0,-6.6185,-6.6185,-6.6998,-6.7462,-6.7462,-6.7462,-6.7462,-6.7501,-6.7462,-6.7501,-6.7539,-6.7501,-6.7036,-6.6224,-6.6224,-6.6224,-6.6224,-6.6224,-6.6224,-6.6224,-6.6224,-6.6688,-6.7539,-6.8429,-6.9241,-7.0054,-7.0943,-7.1291,-7.1291,-7.1291,-7.1291,-7.1291,-7.1291,-7.1291,-7.1291,-7.1291,-7.1291,-7.1291,-7.1291,-7.1291,-7.1291,-7.1291,-7.1291,-7.1291,-7.1291,-7.1291,-7.1291,-7.1291,-7.1291,-7.1291,-7.1291,-7.1291,-7.1291,-7.1291,-7.1291,-7.1291,-7.1291,-7.1291,-7.1291,-7.1291,-7.1291,-7.1291,-7.1291,-7.1291,-7.1291,-7.1291,-7.1291,-7.1291,-7.1291,-7.1291,-7.1291,-7.1291,-7.1291,-7.1291,-7.1291,-7.1291,-7.1291,-7.1291,-7.1291,-7.1291,-7.1291,-7.1291,-7.1291,-3.0752,0.0,0.0,0.0,0.0,0.0,0.0,0.0,0.0,0.0,0.0,0.0,0.0,0.0,0.0,0.0,0.0,0.0,0.0,0.0,0.0,0.0,0.0,0.0,0.0,0.0,0.0,0.0,-6.6185,-6.6185,-6.6185,-6.6417,-6.6572,-6.6572,-6.6572,-6.6843,-6.7501,-6.6882,-6.7191,-6.8429,-6.7152,-6.6766,-6.7114,-6.6495,-6.6533,-6.7152,-6.7152,-6.7152,-6.7075,-6.6456,-6.634,-6.665,-6.7539,-6.839,-6.9241,-7.0054,-7.075,-7.1291,-7.1291,-7.1291,-7.1291,-7.1291,-7.1291,-7.1291,-7.1291,-7.1291,-7.1291,-7.1291,-7.1291,-7.1291,-7.1291,-7.1291,-7.1291,-7.1291,-7.1291,-7.1291,-7.1291,-7.1291,-7.1291,-7.1291,-7.1291,-7.1291,-7.1291,-7.1291,-7.1291,-7.1291,-7.1291,-7.1291,-7.1291,-7.1291,-7.1291,-7.1291,-7.1291,-7.1291,-7.1291,-7.1291,-7.1291,-7.1291,-7.1291,-7.1291,-7.1291,-7.1291,-7.1291,-7.1291,-7.1291,-7.1291,-7.1291,-7.1291,-7.1291,-7.1291,-7.1291,-7.1291,-3.2063,-3.3499,0.0,0.0,0.0,0.0,0.0,0.0,0.0,0.0,0.0,0.0,0.0,0.0,0.0,0.0,0.0,0.0,0.0,0.0,0.0,0.0,0.0,0.0,0.0,0.0,0.0,-6.6185,-6.6185,-6.6185,-6.6185,-6.6185,-6.6185,-6.6185,-6.6185,-6.6611,-6.7501,-6.6998,-6.7268,-6.8236,-6.723,-6.6804,-6.6959,-6.6804,-6.7036,-6.7539,-6.7887,-6.8042,-6.7965,-6.7114,-6.6533,-6.6301,-6.7152,-6.8042,-6.8893,-6.9705,-7.0556,-7.1291,-7.1291,-7.1291,-7.1291,-7.1291,-7.1291,-7.1291,-7.1291,-7.1291,-7.1291,-7.1291,-7.1291,-7.1291,-7.1291,-7.1291,-7.1291,-7.1291,-7.1291,-7.1291,-7.1291,-7.1291,-7.1291,-7.1291,-7.1291,-7.1291,-7.1291,-7.1291,-7.1291,-7.1291,-7.1291,-7.1291,-7.1291,-7.1291,-7.1291,-7.1291,-7.1291,-7.1291,-7.1291,-7.1291,-7.1291,-7.1291,-7.1291,-7.1291,-7.1291,-7.1291,-7.1291,-7.1291,-7.1291,-7.1291,-7.1291,-7.1291,-7.1291,-7.1291,-7.1291,-7.1291,-3.4461,-3.5466,-3.7715,0.0,0.0,0.0,-4.5026,-4.5374,0.0,0.0,0.0,0.0,0.0,0.0,0.0,0.0,0.0,0.0,0.0,0.0,0.0,0.0,0.0,0.0,0.0,-6.5605,-6.6069,-6.6069,-6.6147,-6.6185,-6.6185,-6.6185,-6.6185,-6.6185,-6.6185,-6.6572,-6.7346,-6.7346,-6.7384,-6.7501,-6.7384,-6.7036,-6.6495,-6.7191,-6.7617,-6.781,-6.8584,-6.8932,-6.8854,-6.8119,-6.723,-6.6417,-6.7075,-6.7965,-6.8893,-6.9589,-7.0479,-7.1291,-7.1291,-7.1291,-7.1291,-7.1291,-7.1291,-7.1291,-7.1291,-7.1291,-7.1291,-7.1291,-7.1291,-7.1291,-7.1291,-7.1291,-7.1291,-7.1291,-7.1291,-7.1291,-7.1291,-7.1291,-7.1291,-7.1291,-7.1291,-7.1291,-7.1291,-7.1291,-7.1291,-7.1291,-7.1291,-7.1291,-7.1291,-7.1291,-7.1291,-7.1291,-7.1291,-7.1291,-7.1291,-7.1291,-7.1291,-7.1291,-7.1291,-7.1291,-7.1291,-7.1291,-7.1291,-7.1291,-7.1291,-7.1291,-7.1291,-7.1291,-7.1291,-7.1291,-7.1291,-7.1291,-3.8572,-3.8611,-3.8766,-3.787,0.0,0.0,0.0,-3.8882,0.0,0.0,0.0,0.0,0.0,0.0,0.0,0.0,0.0,0.0,0.0,0.0,0.0,0.0,0.0,0.0,0.0,-6.4725,-6.5218,-6.5218,-6.5837,-6.6185,-6.6185,-6.6185,-6.6185,-6.6185,-6.6185,-6.6263,-6.6456,-6.6456,-6.6804,-6.7501,-6.6804,-6.7114,-6.8274,-6.7733,-6.8236,-6.9512,-6.9705,-6.9783,-6.9744,-6.9589,-6.8622,-6.7191,-6.665,-6.7423,-6.8816,-6.897,-7.0015,-7.1291,-7.1291,-7.1291,-7.1291,-7.1291,-7.1291,-7.1291,-7.1291,-7.1291,-7.1291,-7.1291,-7.1291,-7.1291,-7.1291,-7.1291,-7.1291,-7.1291,-7.1291,-7.1291,-7.1291,-7.1291,-7.1291,-7.1291,-7.1291,-7.1291,-7.1291,-7.1291,-7.1291,-7.1291,-7.1291,-7.1291,-7.1291,-7.1291,-7.1291,-7.1291,-7.1291,-7.1291,-7.1291,-7.1291,-7.1291,-7.1291,-7.1291,-7.1291,-7.1291,-7.1291,-7.1291,-7.1291,-7.1291,-7.1291,-7.1291,-7.1291,-7.1291,-7.1291,-7.1291,-7.1291,-4.1319,-4.1042,-4.1197,-4.0307,0.0,0.0,0.0,0.0,0.0,0.0,0.0,0.0,0.0,0.0,0.0,0.0,0.0,0.0,0.0,0.0,0.0,0.0,0.0,0.0,0.0,-6.3594,-6.4338,-6.4338,-6.5141,-6.5605,-6.5605,-6.5992,-6.6185,-6.6185,-6.6185,-6.6185,-6.6185,-6.6185,-6.6417,-6.6843,-6.6417,-6.6882,-6.8158,-6.8158,-6.8816,-7.0015,-7.044,-7.0634,-7.0595,-7.017,-6.9512,-6.8622,-6.7346,-6.7655,-6.8816,-6.8816,-6.986,-7.1291,-7.1291,-7.1291,-7.1291,-7.1291,-7.1291,-7.1291,-7.1291,-7.1291,-7.1291,-7.1291,-7.1291,-7.1291,-7.1291,-7.1291,-7.1291,-7.1291,-7.1291,-7.1291,-7.1291,-7.1291,-7.1291,-7.1291,-7.1291,-7.1291,-7.1291,-7.1291,-7.1291,-7.1291,-7.1291,-7.1291,-7.1291,-7.1291,-7.1291,-7.1291,-7.1291,-7.1291,-7.1291,-7.1291,-7.1291,-7.1291,-7.1291,-7.1291,-7.1291,-7.1291,-7.1291,-7.1291,-7.1291,-7.1291,-7.1291,-7.1291,-7.1291,-7.1291,-7.1291,-7.1291,0.0,0.0,0.0,0.0,0.0,-4.023,0.0,0.0,0.0,-4.228,0.0,0.0,0.0,0.0,0.0,0.0,0.0,0.0,0.0,0.0,0.0,0.0,0.0,0.0,0.0,-6.1505,-6.2636,-6.3642,-6.3758,-6.4145,-6.4948,-6.5605,-6.6031,-6.6185,-6.6185,-6.6185,-6.6185,-6.6185,-6.6185,-6.6185,-6.6185,-6.6727,-6.7771,-6.8468,-6.9319,-7.0286,-7.0982,-7.1291,-7.1253,-7.0518,-7.0131,-6.986,-6.8352,-6.8274,-6.9048,-6.9048,-6.9976,-7.1291,-7.1291,-7.1291,-7.1291,-7.1291,-7.1291,-7.1291,-7.1291,-7.1291,-7.1291,-7.1291,-7.1291,-7.1291,-7.1291,-7.1291,-7.1291,-7.1291,-7.1291,-7.1291,-7.1291,-7.1291,-7.1291,-7.1291,-7.1291,-7.1291,-7.1291,-7.1291,-7.1291,-7.1291,-7.1291,-7.1291,-7.1291,-7.1291,-7.1291,-7.1291,-7.1291,-7.1291,-7.1291,-7.1291,-7.1291,-7.1291,-7.1291,-7.1291,-7.1291,-7.1291,-7.1291,-7.1291,-7.1291,-7.1291,-7.1291,-7.1291,-7.1291,-7.1291,-7.1291,-7.1291,0.0,0.0,0.0,0.0,-4.4717,0.0,0.0,0.0,-3.8843,-3.7096,0.0,0.0,0.0,0.0,0.0,0.0,0.0,0.0,0.0,0.0,0.0,0.0,0.0,0.0,0.0,0.0,-5.8758,-6.3371,-6.0973,-6.1011,-6.4803,-6.5102,-6.545,-6.6185,-6.6185,-6.6185,-6.6185,-6.6185,-6.6185,-6.6185,-6.6185,-6.7075,-6.8661,-6.8738,-6.9667,-7.1175,-7.1253,-7.1291,-7.1291,-7.1175,-7.0711,-6.9899,-6.9009,-6.9164,-6.986,-6.986,-7.0479,-7.1291,-7.1291,-7.1291,-7.1291,-7.1291,-7.1291,-7.1291,-7.1291,-7.1291,-7.1291,-7.1291,-7.1291,-7.1291,-7.1291,-7.1291,-7.1291,-7.1291,-7.1291,-7.1291,-7.1291,-7.1291,-7.1291,-7.1291,-7.1291,-7.1291,-7.1291,-7.1291,-7.1291,-7.1291,-7.1291,-7.1291,-7.1291,-7.1291,-7.1291,-7.1291,-7.1291,-7.1291,-7.1291,-7.1291,-7.1291,-7.1291,-7.1291,-7.1291,-7.1291,-7.1291,-7.1291,-7.1291,-7.1291,-7.1291,-7.1291,-7.1291,-7.1291,-7.1291,-7.1291,-7.1291,0.0,0.0,0.0,0.0,0.0,0.0,0.0,0.0,-3.7986,0.0,0.0,0.0,0.0,0.0,0.0,0.0,0.0,0.0,0.0,0.0,0.0,0.0,0.0,0.0,0.0,0.0,0.0,0.0,0.0,-5.9068,-6.1892,-6.3903,-6.5141,-6.5489,-6.5953,-6.6185,-6.6185,-6.6185,-6.6185,-6.6185,-6.6185,-6.7114,-6.8816,-6.8816,-6.9705,-7.1291,-7.1291,-7.1291,-7.1291,-7.1291,-7.1059,-7.0711,-7.0363,-7.0131,-6.9976,-6.9976,-7.0556,-7.1291,-7.1291,-7.1291,-7.1291,-7.1291,-7.1291,-7.1291,-7.1291,-7.1291,-7.1291,-7.1291,-7.1291,-7.1291,-7.1291,-7.1291,-7.1291,-7.1291,-7.1291,-7.1291,-7.1291,-7.1678,-7.2065,-7.2065,-7.2452,-7.28,-7.28,-7.1949,-7.1291,-7.1291,-7.1291,-7.1291,-7.1291,-7.1291,-7.1291,-7.1291,-7.1291,-7.1291,-7.1291,-7.1291,-7.1291,-7.1291,-7.1291,-7.1291,-7.1291,-7.1291,-7.1291,-7.1291,-7.1291,-7.1291,-7.1291,-7.1291,-7.1291,-7.1291,-7.1291,-7.1291,-5.0906,0.0,0.0,0.0,0.0,0.0,0.0,0.0,0.0,0.0,0.0,0.0,0.0,0.0,0.0,0.0,0.0,0.0,0.0,0.0,0.0,0.0,0.0,0.0,0.0,0.0,0.0,0.0,0.0,0.0,-5.9725,-6.224,-6.4019,-6.4948,-6.5566,-6.5992,-6.6185,-6.6185,-6.6185,-6.6185,-6.6185,-6.6998,-6.8468,-6.87,-6.9589,-7.0943,-7.1214,-7.1291,-7.1291,-7.1291,-7.1291,-7.1291,-7.1291,-7.0905,-7.0363,-7.0363,-7.075,-7.1291,-7.1291,-7.1291,-7.1291,-7.1291,-7.1291,-7.1291,-7.1291,-7.1291,-7.1291,-7.1291,-7.1291,-7.1291,-7.1291,-7.1291,-7.1369,-7.1601,-7.164,-7.1717,-7.1949,-7.2491,-7.2955,-7.2955,-7.3458,-7.3883,-7.3883,-7.2645,-7.164,-7.164,-7.1446,-7.1291,-7.1291,-7.1291,-7.1291,-7.1291,-7.1291,-7.1291,-7.1291,-7.1291,-7.1291,-7.1291,-7.1291,-7.1407,-7.164,-7.1446,-7.1407,-7.164,-7.1407,-7.1291,-7.1291,-7.1291,-7.1291,-7.1291,-7.1291,-7.1291,0.0,0.0,0.0,-4.6721,0.0,0.0,0.0,0.0,-4.07,0.0,0.0,0.0,0.0,0.0,0.0,-3.8599,0.0,0.0,0.0,0.0,0.0,0.0,0.0,0.0,0.0,0.0,0.0,0.0,0.0,0.0,-5.9455,-5.9996,-6.1582,-6.4909,-6.5025,-6.5412,-6.6185,-6.6185,-6.6185,-6.6185,-6.6185,-6.6688,-6.7578,-6.8429,-6.9241,-7.0092,-7.0943,-7.1291,-7.1291,-7.1291,-7.1291,-7.1291,-7.1291,-7.1291,-7.1253,-7.1253,-7.1291,-7.1291,-7.1291,-7.1291,-7.1291,-7.1291,-7.1291,-7.1291,-7.1291,-7.1291,-7.1291,-7.1291,-7.1291,-7.1291,-7.1291,-7.1291,-7.1523,-7.2375,-7.2568,-7.28,-7.3612,-7.3844,-7.3844,-7.3844,-7.3883,-7.3883,-7.3883,-7.3148,-7.2568,-7.2568,-7.1833,-7.1291,-7.1291,-7.1291,-7.1291,-7.1291,-7.1291,-7.1291,-7.1291,-7.1291,-7.1291,-7.1291,-7.1291,-7.1678,-7.2529,-7.1756,-7.1678,-7.2529,-7.1717,-7.1291,-7.1291,-7.1291,-7.1291,-7.1291,-7.1291,-7.1291,0.0,0.0,-5.7366,-5.0473,0.0,0.0,0.0,0.0,0.0,0.0,0.0,0.0,0.0,0.0,-4.0739,-3.9307,-3.8102,0.0,0.0,0.0,0.0,0.0,0.0,0.0,0.0,0.0,0.0,0.0,0.0,0.0,0.0,-5.8372,-6.0925,-6.3207,-6.4406,-6.5373,-6.6185,-6.6185,-6.6185,-6.6185,-6.6185,-6.665,-6.7539,-6.839,-6.9241,-7.0054,-7.0905,-7.1291,-7.1291,-7.1291,-7.1291,-7.1291,-7.1291,-7.1291,-7.1291,-7.1291,-7.1291,-7.1291,-7.1291,-7.1291,-7.1291,-7.1291,-7.1291,-7.1291,-7.1291,-7.1291,-7.1291,-7.1291,-7.1291,-7.1446,-7.2026,-7.2142,-7.2375,-7.3264,-7.3458,-7.3535,-7.3844,-7.4309,-7.4695,-7.4695,-7.516,-7.5546,-7.5546,-7.4811,-7.4077,-7.3535,-7.3226,-7.3032,-7.3032,-7.3032,-7.3032,-7.3032,-7.3032,-7.3032,-7.3032,-7.3032,-7.3032,-7.3032,-7.3032,-7.3148,-7.3458,-7.3187,-7.3148,-7.3458,-7.3187,-7.3032,-7.3032,-7.3032,-7.3032,-7.2993,-7.2413,-7.1833,-6.1254,-6.1012,0.0,-5.4443,-5.2271,0.0,-4.4682,0.0,0.0,0.0,0.0,0.0,0.0,0.0,0.0,-4.0597,-3.867,0.0,0.0,0.0,0.0,0.0,0.0,0.0,0.0,0.0,-4.1274,-4.3982,0.0,0.0,0.0,0.0,-5.9261,-6.1853,-6.3632,-6.5064,-6.6185,-6.6185,-6.6185,-6.6185,-6.6185,-6.6495,-6.7075,-6.8274,-6.9087,-6.9628,-7.0789,-7.1291,-7.1291,-7.1291,-7.1291,-7.1291,-7.1291,-7.1291,-7.1291,-7.1291,-7.1291,-7.1291,-7.1291,-7.1291,-7.1291,-7.1291,-7.1291,-7.1291,-7.1291,-7.1291,-7.1291,-7.1291,-7.1523,-7.1872,-7.2452,-7.2839,-7.3264,-7.4115,-7.4347,-7.4425,-7.4734,-7.5198,-7.5546,-7.5546,-7.6011,-7.6397,-7.6397,-7.5933,-7.5276,-7.4463,-7.4077,-7.3883,-7.3883,-7.3883,-7.3883,-7.3883,-7.3883,-7.3883,-7.3883,-7.3883,-7.3883,-7.3883,-7.3883,-7.4038,-7.4309,-7.4015,-7.4003,-7.4274,-7.398,-7.3825,-7.3849,-7.3849,-7.386,-7.3883,-7.3303,-7.2761]},{"header":{"parameterUnit":"m.s-1","parameterCategory":1,"la1":30.6,"la2":29.2853,"lo1":-89.7004,"lo2":-87.6739,"dy":0.0162,"dx":0.0183,"nx":112,"ny":82,"refTime":"2026-05-03T00:00:00:Z","depth":0,"parameterNumber":3,"parameterNumberName":"V-component_of_WINDS"},"data":[0.0,0.0,0.0,0.0,0.0,0.0,0.0,0.0,0.0,0.0,0.0,0.0,0.0,0.0,0.0,0.0,0.0,0.0,0.0,0.0,0.0,0.0,0.0,0.0,0.0,0.0,0.0,0.0,0.0,0.0,0.0,0.0,0.0,0.0,0.0,0.0,0.0,0.0,0.0,0.0,0.0,0.0,0.0,0.0,0.0,0.0,0.0,0.0,0.0,0.0,0.0,0.0,0.0,0.0,0.0,0.0,0.0,0.0,0.0,0.0,0.0,0.0,0.0,0.0,0.0,0.0,0.0,0.0,0.0,0.0,0.0,0.0,0.0,0.0,0.0,0.0,0.0,0.0,0.0,0.0,0.0,0.0,0.0,0.0,0.0,0.0,0.0,0.0,0.0,0.0,0.0,-0.1914,-0.1856,-0.1606,-0.1242,-0.087,-0.0498,-0.0109,0.0,0.0,0.0,0.0,0.0,0.0,0.0,0.0,0.0,0.0,0.0,0.0,0.0,0.0,0.0,0.0,0.0,0.0,0.0,0.0,0.0,0.0,0.0,0.0,0.0,0.0,0.0,0.0,0.0,0.0,0.0,0.0,0.0,0.0,0.0,0.0,0.0,0.0,0.0,0.0,0.0,0.0,0.0,0.0,0.0,0.0,0.0,0.0,0.0,0.0,0.0,0.0,0.0,0.0,0.0,0.0,0.0,0.0,0.0,0.0,0.0,0.0,0.0,0.0,0.0,0.0,0.0,0.0,0.0,0.0,0.0,0.0,0.0,0.0,0.0,0.0,0.0,0.0,0.0,0.0,0.0,0.0,0.0,0.0,0.0,0.0,0.0,0.0,0.0,0.0,0.0,0.0,0.0,0.0,0.0,0.0,0.0,0.0,0.0,0.0,0.0,0.0,0.0,0.0,-0.176,-0.2114,-0.2139,-0.1892,-0.1259,-0.1068,-0.0808,-0.0392,0.0,0.0,0.0,0.0,0.0,0.0,0.0,0.0,0.0,0.0,0.0,0.0,0.0,0.0,0.0,0.0,0.0,0.0,0.0,0.0,0.0,0.0,0.0,0.0,0.0,0.0,0.0,0.0,0.0,0.0,0.0,0.0,0.0,0.0,0.0,0.0,0.0,0.0,0.0,0.0,0.0,0.0,0.0,0.0,0.0,0.0,0.0,0.0,0.0,0.0,0.0,0.0,0.0,0.0,0.0,0.0,0.0,0.0,0.0,0.0,0.0,0.0,0.0,0.0,0.0,0.0,0.0,0.0,0.0,0.0,0.0,0.0,0.0,0.0,0.0,0.0,0.0,0.0,0.0,0.0,0.0,0.0,0.0,0.0,0.0,0.0,0.0,0.0,0.0,0.0,0.0,0.0,0.0,0.0,0.0,0.0,0.0,0.0,0.0,0.0,0.0,0.0,0.0,-0.1738,-0.1911,-0.2172,-0.2255,-0.1995,-0.1264,-0.115,-0.0884,-0.0226,-0.0051,0.0,0.0,0.0,0.0,0.0,0.0,0.0,0.0,0.0,0.0,0.0,0.0,0.0,0.0,0.0,0.0,0.0,0.0,0.0,0.0,0.0,0.0,0.0,0.0,0.0,0.0,0.0,0.0,0.0,0.0,0.0,0.0,0.0,0.0,0.0,0.0,0.0,0.0,0.0,0.0,0.0,0.0,0.0,0.0,0.0,0.0,0.0,0.0,0.0,0.0,0.0,0.0,0.0,0.0,0.0,0.0,0.0,0.0,0.0,0.0,0.0,0.0,0.0,0.0,0.0,0.0,0.0,0.0,0.0,0.0,0.0,0.0,0.0,0.0,0.0,0.0,0.0,0.0,0.0,0.0,0.0,0.0,0.0,0.0,0.0,0.0,0.0,0.0,0.0,0.0,0.0,0.0,0.0,0.0,0.0,0.0,0.0,0.0,0.0,0.0,0.0,0.0,-0.1941,-0.2076,-0.2198,-0.2283,-0.202,-0.1406,-0.122,-0.0888,-0.0226,-0.01,0.0,0.0,0.0,0.0,0.0,0.0,0.0,0.0,0.0,0.0,0.0,0.0,0.0,0.0,0.0,0.0,0.0,0.0,0.0,0.0,0.0,0.0,0.0,0.0,0.0,0.0,0.0,0.0,0.0,0.0,0.0,0.0,0.0,0.0,0.0,0.0,0.0,0.0,0.0,0.0,0.0,0.0,0.0,0.0,0.0,0.0,0.0,0.0,0.0,0.0,0.0,0.0,0.0,0.0,0.0,0.0,0.0,0.0,0.0,0.0,0.0,0.0,0.0,0.0,0.0,0.0,0.0,0.0,0.0,0.0,0.0,0.0,0.0,0.0,0.0,0.0,0.0,0.0,0.0,0.0,0.0,0.0,0.0,0.0,0.0,0.0,0.0,0.0,0.0,0.0,0.0,0.0,0.0,0.0,0.0,0.0,0.0,0.0,0.0,0.0,0.0,0.0,-0.2007,-0.2199,-0.2169,-0.2224,-0.2093,-0.1687,-0.1387,-0.1104,-0.0846,-0.029,0.0,0.0,0.0,0.0,0.0,0.0,0.0,0.0,0.0,0.0,0.0,0.0,0.0,0.0,0.0,0.0,0.0,0.0,0.0,0.0,0.0,0.0,0.0,0.0,0.0,0.0,0.0,0.0,0.0,0.0,0.0,0.0,0.0,0.0,0.0,0.0,0.0,0.0,0.0,0.0,0.0,0.0,0.0,0.0,0.0,0.0,0.0,0.0,0.0,0.0,0.0,0.0,0.0,0.0,0.0,0.0,0.0,0.0,0.0,0.0,0.0,0.0,0.0,0.0,0.0,0.0,0.0,0.0,0.0,0.0,0.0,0.0,0.0,0.0,0.0,0.0,0.0,0.0,0.0,0.0,0.0,0.0,0.0,0.0,0.0,0.0,0.0,0.0,0.0,0.0,0.0,0.0,0.0,0.0,0.0,0.0,0.0,0.0,0.0,0.0,0.0,0.0,-0.2024,-0.2148,0.0,-0.2282,-0.2147,-0.1756,-0.1338,-0.0993,-0.0667,0.0,0.0,0.0,0.0,0.0,0.0,0.0,0.0,0.0,0.0,0.0,0.0,0.0,0.0,0.0,0.0,0.0,0.0,0.0,0.0,0.0,0.0,0.0,0.0,0.0,0.0,0.0,0.0,0.0,0.0,0.0,0.0,0.0,0.0,0.0,0.0,0.0,0.0,0.0,0.0,0.0,0.0,0.0,0.0,0.0,0.0,0.0,0.0,0.0,0.0,0.0,0.0,0.0,0.0,0.0,0.0,0.0,0.0,0.0,0.0,0.0,0.0,0.0,0.0,0.0,0.0,0.0,0.0,0.0,0.0,0.0,0.0,0.0,0.0,0.0,0.0,0.0,0.0,0.0,0.0,0.0,0.0,0.0,0.0,0.0,0.0,0.0,0.0,0.0,0.0,0.0,0.0,0.0,0.0,0.0,0.0,0.0,0.0,0.0,0.0,0.0,0.0,-0.1795,-0.1973,-0.2157,0.0,-0.2294,-0.2235,-0.192,-0.142,-0.1,-0.0722,0.0,0.0,0.0,0.0,0.0,0.0,0.0,0.0,0.0,0.0,0.0,0.0,0.0,0.0,0.0,0.0,0.0,0.0,0.0,0.0,0.0,0.0,0.0,0.0,0.0,0.0,0.0,0.0,0.0,0.0,0.0,0.0,0.0,0.0,0.0,0.0,0.0,0.0,0.0,0.0,0.0,0.0,0.0,0.0,0.0,0.0,0.0,0.0,0.0,0.0,0.0,0.0,0.0,0.0,0.0,0.0,0.0,0.0,0.0,0.0,0.0,0.0,0.0,0.0,0.0,0.0,0.0,0.0,0.0,0.0,0.0,0.0,0.0,0.0,0.0,0.0,0.0,0.0,0.0,0.0,0.0,0.0,0.0,0.0,0.0,0.0,0.0,0.0,0.0,0.0,0.0,0.0,0.0,0.0,0.0,0.0,0.0,0.0,0.0,0.0,0.0,0.0,-0.178,-0.206,-0.2258,-0.2289,-0.2343,-0.2365,-0.2335,-0.1626,-0.118,0.0,0.0,0.0,0.0,0.0,0.0,0.0,0.0,0.0,0.0,0.0,0.0,0.0,0.0,0.0,0.0,0.0,0.0,0.0,0.0,0.0,0.0,0.0,0.0,0.0,0.0,0.0,0.0,0.0,0.0,0.0,0.0,0.0,0.0,0.0,0.0,0.0,0.0,0.0,0.0,0.0,0.0,0.0,0.0,0.0,0.0,0.0,0.0,0.0,0.0,0.0,0.0,0.0,0.0,0.0,0.0,0.0,0.0,0.0,0.0,0.0,0.0,0.0,0.0,0.0,0.0,0.0,0.0,0.0,0.0,0.0,0.0,0.0,0.0,0.0,0.0,0.0,0.0,0.0,0.0,0.0,0.0,0.0,0.0,0.0,0.0,0.0,0.0,0.0,0.0,0.0,0.0,0.0,0.0,0.0,0.0,0.0,0.0,0.0,0.0,0.0,0.0,0.0,-0.1838,-0.2121,-0.2319,-0.2349,-0.2368,-0.2365,-0.2335,-0.1861,-0.1454,-0.1111,0.0,0.0,0.0,0.0,0.0,0.0,0.0,0.0,0.0,0.0,0.0,0.0,0.0,0.0,0.0,0.0,0.0,0.0,0.0,0.0,0.0,0.0,0.0,0.0,0.0,0.0,0.0,0.0,0.0,0.0,0.0,0.0,0.0,0.0,0.0,0.0,0.0,0.0,0.0,0.0,0.0,0.0,0.0,0.0,0.0,0.0,0.0,0.0,0.0,0.0,0.0,0.0,0.0,0.0,0.0,0.0,0.0,0.0,0.0,0.0,0.0,0.0,0.0,0.0,0.0,0.0,0.0,0.0,0.0,0.0,0.0,0.0,0.0,0.0,0.0,0.0,0.0,0.0,0.0,0.0,0.0,0.0,0.0,0.0,0.0,0.0,0.0,0.0,0.0,0.0,0.0,0.0,0.0,0.0,0.0,0.0,0.0,0.0,0.0,0.0,0.0,0.0,-0.1862,-0.2147,-0.2349,-0.2391,-0.2257,-0.2177,-0.2298,-0.1844,-0.137,-0.1127,0.0,0.0,0.0,0.0,0.0,0.0,0.0,0.0,0.0,0.0,0.0,0.0,0.0,0.0,0.0,0.0,0.0,0.0,0.0,0.0,0.0,0.0,0.0,0.0,0.0,0.0,0.0,0.0,0.0,0.0,0.0,0.0,0.0,0.0,0.0,0.0,0.0,0.0,0.0,0.0,0.0,0.0,0.0,0.0,0.0,0.0,0.0,0.0,0.0,0.0,0.0,0.0,0.0,0.0,0.0,0.0,0.0,0.0,0.0,0.0,0.0,0.0,0.0,0.0,0.0,0.0,0.0,0.0,0.0,0.0,0.0,0.0,0.0,0.0,0.0,0.0,0.0,0.0,0.0,0.0,0.0,0.0,0.0,0.0,0.0,0.0,0.0,0.0,0.0,0.0,0.0,0.0,0.0,0.0,0.0,0.0,0.0,0.0,0.0,0.0,0.0,0.0,-0.1866,-0.2154,-0.2364,-0.2421,-0.2071,-0.1998,-0.2351,-0.1683,-0.1217,-0.1167,0.0,0.0,0.0,0.0,0.0,0.0,0.0,0.0,0.0,0.0,0.0,0.0,0.0,0.0,0.0,0.0,0.0,0.0,0.0,0.0,0.0,0.0,0.0,0.0,0.0,0.0,0.0,0.0,0.0,0.0,0.0,0.0,0.0,0.0,0.0,0.0,0.0,0.0,0.0,0.0,0.0,0.0,0.0,0.0,0.0,0.0,0.0,0.0,0.0,0.0,0.0,0.0,0.0,0.0,0.0,0.0,0.0,0.0,0.0,0.0,-0.1783,0.0,0.0,0.0,0.0,0.0,0.0,0.0,0.0,0.0,0.0,0.0,0.0,0.0,0.0,0.0,0.0,0.0,0.0,0.0,0.0,0.0,0.0,0.0,0.0,0.0,0.0,0.0,0.0,0.0,0.0,0.0,0.0,0.0,0.0,0.0,0.0,0.0,0.0,0.0,0.0,0.0,-0.1898,-0.2204,-0.2418,-0.2455,-0.2409,-0.225,-0.1973,-0.1756,-0.1432,-0.0783,-0.0589,0.0,0.0,0.0,0.0,0.0,0.0,0.0,0.0,0.0,0.0,0.0,0.0,0.0,0.0,0.0,0.0,0.0,0.0,0.0,0.0,0.0,0.0,0.0,0.0,0.0,0.0,0.0,0.0,0.0,0.0,0.0,0.0,0.0,0.0,0.0,0.0,0.0,0.0,0.0,0.0,0.0,0.0,0.0,0.0,0.0,0.0,0.0,0.0,0.0,0.0,0.0,0.0,0.0,0.0,0.0,0.0,0.0,0.0,0.0,0.0,-0.185,0.0,0.0,0.0,0.0,0.0,0.0,0.0,0.0,0.0,0.0,0.0,0.0,0.0,0.0,0.0,0.0,0.0,0.0,0.0,0.0,0.0,0.0,0.0,0.0,0.0,0.0,0.0,0.0,0.0,0.0,0.0,0.0,0.0,0.0,0.0,0.0,0.0,0.0,0.0,0.0,-0.1928,-0.2229,-0.244,-0.2487,-0.2324,-0.2068,-0.1804,-0.1594,-0.1229,-0.0621,-0.0563,0.0,0.0,0.0,0.0,0.0,0.0,0.0,0.0,0.0,0.0,0.0,0.0,0.0,0.0,0.0,0.0,0.0,0.0,0.0,0.0,0.0,0.0,0.0,0.0,0.0,0.0,0.0,0.0,0.0,0.0,0.0,0.0,0.0,0.0,0.0,0.0,0.0,0.0,0.0,0.0,0.0,0.0,0.0,0.0,0.0,0.0,0.0,0.0,0.0,0.0,0.0,0.0,0.0,-0.2264,-0.2324,-0.2394,-0.2372,-0.2373,-0.2386,-0.2211,-0.209,-0.2007,0.0,0.0,0.0,0.0,0.0,0.0,0.0,0.0,0.0,0.0,0.0,0.0,0.0,0.0,0.0,0.0,0.0,0.0,0.0,0.0,0.0,0.0,0.0,0.0,0.0,-0.1952,-0.1936,0.0,0.0,0.0,0.0,0.0,0.0,0.0,0.0,0.0,0.0,0.0,0.0,-0.1951,-0.2225,-0.242,-0.247,-0.2131,-0.1798,-0.1705,-0.1362,-0.0957,-0.0513,-0.0416,-0.0272,0.0,0.0,0.0,0.0,0.0,0.0,0.0,0.0,0.0,0.0,0.0,0.0,0.0,0.0,0.0,0.0,0.0,0.0,0.0,0.0,0.0,0.0,0.0,0.0,0.0,0.0,0.0,0.0,0.0,0.0,0.0,0.0,-0.1379,-0.1489,0.0,0.0,0.0,0.0,0.0,0.0,0.0,0.0,0.0,0.0,0.0,0.0,0.0,-0.2138,-0.2134,-0.2371,-0.2459,-0.2469,-0.2577,-0.2634,-0.2645,-0.2641,-0.2642,-0.2643,-0.2616,0.0,-0.2168,-0.2124,0.0,0.0,0.0,0.0,0.0,0.0,0.0,0.0,0.0,0.0,0.0,0.0,0.0,0.0,0.0,0.0,0.0,0.0,0.0,0.0,0.0,0.0,-0.2065,-0.2104,-0.2189,-0.2172,0.0,-0.1832,-0.1648,-0.1516,-0.143,0.0,0.0,0.0,0.0,0.0,0.0,0.0,-0.1956,-0.217,-0.2312,-0.2319,-0.2262,-0.1977,-0.1317,-0.1213,-0.0899,-0.0134,-0.0062,-0.0058,0.0,0.0,0.0,0.0,0.0,0.0,0.0,0.0,0.0,0.0,0.0,0.0,0.0,0.0,0.0,0.0,0.0,0.0,0.0,0.0,0.0,0.0,0.0,0.0,0.0,0.0,0.0,0.0,0.0,0.0,0.0,-0.143,-0.1566,-0.1576,-0.161,-0.165,0.0,0.0,0.0,0.0,0.0,0.0,0.0,0.0,0.0,-0.2215,-0.2309,-0.2394,-0.2393,-0.2583,-0.2657,-0.2691,-0.2761,-0.2812,-0.2842,-0.281,-0.2803,-0.2815,-0.2765,-0.2661,-0.2515,-0.2349,-0.2202,-0.2072,0.0,0.0,0.0,0.0,-0.1924,-0.1936,-0.2038,-0.2065,0.0,-0.2005,0.0,0.0,0.0,0.0,0.0,0.0,0.0,0.0,0.0,0.0,-0.2129,-0.2213,-0.2232,-0.2223,-0.2198,-0.2082,-0.1922,0.0,-0.1644,-0.1562,-0.1388,0.0,0.0,0.0,0.0,0.0,-0.1982,-0.217,-0.2297,-0.2313,-0.2081,-0.1789,-0.1226,-0.0979,-0.0547,-0.0068,0.0,0.0,0.0,0.0,0.0,0.0,0.0,0.0,0.0,0.0,0.0,0.0,0.0,0.0,0.0,0.0,0.0,0.0,0.0,0.0,0.0,0.0,0.0,0.0,0.0,0.0,0.0,0.0,0.0,0.0,0.0,0.0,0.0,-0.157,-0.1699,-0.1677,-0.176,-0.183,0.0,0.0,0.0,0.0,0.0,0.0,-0.2116,-0.2202,-0.2312,-0.2454,-0.254,-0.2622,-0.2705,-0.2757,-0.281,-0.2863,-0.2886,-0.2919,-0.296,-0.2908,-0.2896,-0.2912,-0.2838,-0.2801,-0.2776,-0.2534,-0.2379,-0.2281,-0.2166,-0.2095,-0.2064,-0.2123,-0.2135,-0.214,-0.2268,-0.2313,-0.2301,-0.2225,0.0,-0.2061,-0.1858,0.0,0.0,0.0,0.0,-0.1959,-0.2079,-0.2127,-0.217,-0.2277,-0.2301,-0.23,-0.2292,-0.2243,-0.2136,0.0,-0.1857,-0.1778,-0.1524,0.0,0.0,0.0,0.0,-0.1848,-0.2026,-0.2168,-0.2264,-0.2285,-0.1897,-0.1536,-0.1203,-0.0756,-0.0339,0.0,0.0,0.0,0.0,0.0,0.0,0.0,0.0,0.0,0.0,0.0,0.0,0.0,0.0,0.0,0.0,0.0,0.0,0.0,0.0,0.0,0.0,0.0,0.0,0.0,0.0,0.0,0.0,0.0,0.0,0.0,0.0,0.0,0.0,0.0,0.0,-0.1772,-0.1933,0.0,0.0,0.0,0.0,-0.2039,-0.2131,-0.2247,-0.2395,-0.2462,-0.2552,-0.2673,-0.2737,-0.28,-0.2861,-0.2891,-0.2923,-0.2954,-0.2956,-0.2958,-0.296,-0.2928,-0.2915,-0.2915,-0.2883,-0.2853,-0.2814,-0.2656,-0.2571,-0.2533,-0.2439,-0.2402,-0.2395,-0.2372,-0.2379,-0.2401,-0.238,-0.2373,-0.2383,-0.2433,-0.2334,-0.2174,-0.2076,-0.1986,0.0,0.0,-0.2029,-0.2083,-0.2204,-0.2167,-0.2183,-0.2316,-0.2331,-0.2323,-0.2297,-0.2243,-0.2178,0.0,-0.2024,-0.1936,-0.1779,0.0,-0.1798,-0.1857,-0.19,-0.197,-0.209,-0.2138,-0.223,-0.2231,-0.1823,-0.1492,-0.1101,-0.0747,-0.0339,0.0,0.0,0.0,0.0,0.0,0.0,0.0,0.0,0.0,0.0,0.0,0.0,0.0,0.0,0.0,0.0,0.0,0.0,0.0,0.0,0.0,0.0,0.0,0.0,0.0,0.0,0.0,0.0,0.0,0.0,0.0,0.0,0.0,0.0,0.0,0.0,-0.2008,-0.2136,0.0,-0.2124,-0.2144,-0.2199,-0.2289,-0.2361,-0.2459,-0.259,-0.2654,-0.2725,-0.2807,-0.2848,-0.2889,-0.293,-0.2941,-0.296,-0.2991,-0.2991,-0.3001,-0.3018,-0.2968,-0.2945,-0.2942,-0.2894,-0.2868,-0.2852,-0.2778,-0.2707,-0.2641,-0.2587,-0.2544,-0.2512,-0.2519,-0.2518,-0.2512,-0.2519,-0.251,-0.2489,-0.2451,-0.2357,-0.2248,-0.2196,-0.2158,-0.2071,-0.2091,-0.2187,-0.2223,-0.2286,-0.2229,-0.2235,-0.2328,-0.2333,-0.233,-0.232,-0.2286,-0.2247,-0.2204,-0.2108,-0.2004,-0.1914,-0.1921,-0.1933,-0.1918,-0.1973,-0.2039,-0.2101,-0.2136,-0.2223,-0.2223,-0.1818,-0.1484,-0.1152,-0.0736,-0.0333,0.0,0.0,0.0,0.0,0.0,0.0,0.0,0.0,0.0,0.0,0.0,0.0,0.0,0.0,0.0,0.0,0.0,0.0,0.0,0.0,0.0,0.0,0.0,0.0,0.0,0.0,0.0,0.0,0.0,0.0,0.0,0.0,0.0,0.0,0.0,-0.2098,-0.2148,-0.2296,-0.2371,-0.2239,-0.2352,-0.2414,-0.2493,-0.2555,-0.2632,-0.2733,-0.2777,-0.2826,-0.2886,-0.2906,-0.2935,-0.2976,-0.2976,-0.2992,-0.3022,-0.3022,-0.3032,-0.3145,-0.2988,-0.2961,-0.2958,-0.29,-0.2874,-0.2872,-0.2852,-0.2801,-0.2735,-0.2694,-0.2654,-0.262,-0.263,-0.262,-0.2604,-0.2602,-0.2583,-0.2547,-0.2465,-0.2399,-0.2345,-0.2315,-0.2233,-0.2232,-0.2293,-0.2305,-0.2322,-0.2331,-0.2333,-0.2333,-0.2333,-0.2333,-0.2333,-0.2333,-0.2311,-0.2282,-0.218,-0.2172,-0.2084,-0.2005,-0.2023,-0.2035,-0.1997,-0.2041,-0.209,-0.2121,-0.2142,-0.2223,-0.2223,-0.175,-0.1346,-0.1144,-0.0659,-0.0261,0.0,0.0,0.0,0.0,0.0,0.0,0.0,0.0,0.0,0.0,0.0,0.0,0.0,0.0,0.0,0.0,0.0,0.0,0.0,0.0,0.0,0.0,0.0,0.0,0.0,0.0,0.0,0.0,0.0,0.0,0.0,0.0,0.0,-0.1786,-0.2053,-0.2217,-0.2179,-0.2412,-0.2497,-0.2439,-0.2514,-0.259,-0.2566,-0.2707,-0.2766,-0.2827,-0.283,-0.2857,-0.2916,-0.2917,-0.2946,-0.3007,-0.3009,-0.3022,-0.3148,-0.3148,-0.3052,-0.3048,-0.2988,-0.2961,-0.2957,-0.29,-0.2874,-0.2874,-0.2874,-0.2856,-0.2825,-0.2763,-0.2739,-0.2733,-0.2703,-0.2692,-0.2684,-0.2624,-0.2585,-0.2551,-0.2491,-0.2472,-0.2465,-0.2433,-0.2425,-0.2418,-0.2387,-0.2378,-0.2371,-0.2341,-0.2333,-0.2333,-0.2333,-0.2333,-0.2333,-0.226,-0.2311,-0.2282,-0.218,-0.2153,-0.2183,-0.2121,-0.211,-0.211,-0.211,-0.211,0.0,-0.2218,-0.2223,-0.2223,-0.2223,-0.1548,-0.1144,-0.1076,-0.0453,0.0,0.0,0.0,0.0,0.0,0.0,0.0,0.0,0.0,0.0,0.0,0.0,0.0,0.0,0.0,0.0,0.0,0.0,0.0,0.0,0.0,0.0,0.0,0.0,0.0,0.0,0.0,0.0,0.0,0.0,0.0,0.0,0.0,-0.1993,-0.2001,-0.2172,-0.2333,-0.2429,-0.256,-0.2646,-0.265,-0.2694,-0.2737,-0.2776,-0.2793,-0.2821,-0.2859,-0.2861,-0.2889,-0.2947,-0.2949,-0.2979,-0.3039,-0.304,-0.3044,-0.3148,-0.3148,-0.304,-0.3018,-0.2979,-0.295,-0.2927,-0.289,-0.2874,-0.2874,-0.2874,-0.287,-0.2856,-0.2795,-0.2758,-0.2733,-0.2703,-0.2692,-0.2687,-0.2647,-0.2615,-0.2583,-0.2547,-0.2519,-0.2496,-0.2466,-0.2457,-0.2446,-0.2393,-0.2378,-0.2371,-0.2341,-0.2333,-0.2333,-0.2333,-0.2333,-0.226,-0.1968,-0.2109,-0.2089,-0.155,-0.1609,-0.1937,-0.2153,-0.2142,-0.2142,-0.2142,-0.2142,0.0,-0.2221,-0.2223,-0.2223,-0.2223,-0.2001,-0.165,-0.111,-0.0895,-0.0502,0.0,0.0,0.0,0.0,0.0,0.0,0.0,0.0,-0.0046,0.0,0.0,0.0,0.0,0.0,0.0,0.0,0.0,0.0,0.0,0.0,0.0,0.0,0.0,0.0,0.0,0.0,0.0,0.0,0.0,0.0,0.0,-0.2015,-0.2162,-0.2225,-0.2335,-0.2448,-0.2557,-0.2654,-0.2718,-0.2736,-0.2777,-0.281,-0.2827,-0.2841,-0.2856,-0.2872,-0.2874,-0.2901,-0.296,-0.2961,-0.2991,-0.3051,-0.3148,-0.3148,-0.3148,-0.3039,-0.3024,-0.3005,-0.2962,-0.2932,0.0,-0.2886,-0.2874,-0.2874,-0.2874,-0.2874,0.0,0.0,0.0,0.0,0.0,-0.2692,-0.2688,-0.2657,-0.2627,-0.2597,-0.2568,-0.254,-0.2511,-0.2493,-0.2488,-0.2476,-0.2414,-0.2397,-0.2387,-0.2343,-0.2333,-0.2333,-0.2333,-0.2333,-0.2187,-0.1895,-0.1968,-0.1881,-0.1199,-0.1262,0.0,-0.1691,-0.175,-0.1818,-0.1952,-0.1952,-0.1952,-0.1952,-0.1952,-0.1885,-0.175,-0.1538,-0.1256,-0.0912,-0.0699,0.0,0.0,0.0,0.0,0.0,0.0,0.0,0.0,0.0,0.0,0.0,0.0,0.0,0.0,-0.0447,-0.0663,0.0,0.0,0.0,0.0,0.0,0.0,0.0,0.0,0.0,0.0,0.0,0.0,0.0,0.0,0.0,0.0,-0.2181,-0.2316,-0.2459,-0.2506,-0.2555,-0.2554,-0.2703,-0.2743,-0.2743,-0.2797,-0.2834,-0.2834,-0.2859,-0.2874,-0.2874,0.0,0.0,0.0,0.0,-0.2988,-0.3047,-0.3051,-0.3148,-0.3052,-0.3021,-0.3005,-0.2999,-0.2942,-0.2915,-0.2909,-0.2885,-0.2874,-0.2874,-0.2874,-0.287,-0.2859,-0.2804,-0.278,-0.2766,-0.2713,-0.2692,-0.2688,-0.2661,0.0,0.0,-0.2572,-0.2541,-0.2514,-0.2514,-0.2514,-0.2502,-0.244,-0.2424,-0.2409,-0.2349,-0.2333,-0.226,-0.226,-0.226,-0.2187,-0.175,-0.175,-0.1665,-0.106,-0.0983,-0.1044,-0.1017,-0.1079,-0.1212,-0.1481,-0.1548,-0.1548,-0.1616,-0.1616,-0.1481,-0.1212,0.0,0.0,-0.0527,-0.0253,-0.0062,0.0,0.0,0.0,0.0,0.0,0.0,0.0,0.0,0.0,0.0,0.0,-0.011,-0.0384,-0.0432,-0.0564,0.0,0.0,0.0,0.0,0.0,0.0,0.0,0.0,0.0,0.0,0.0,0.0,0.0,0.0,0.0,-0.2187,-0.2279,-0.2425,-0.2527,-0.2567,-0.26,-0.2559,-0.2722,-0.2774,-0.2774,-0.283,-0.2866,-0.2866,-0.2871,-0.2874,-0.2874,-0.2874,0.0,-0.2924,-0.2949,-0.2979,-0.3016,-0.304,-0.3148,-0.3052,0.0,0.0,-0.2969,-0.2932,-0.2904,-0.2882,-0.2876,-0.2874,-0.2874,-0.2874,-0.2845,-0.28,-0.2788,-0.2754,-0.2709,-0.2697,-0.2692,-0.2691,-0.2686,-0.2647,-0.2601,-0.2596,-0.2557,-0.2514,-0.2514,-0.2514,0.0,-0.244,-0.2424,-0.2409,-0.2349,-0.2333,-0.226,-0.1968,-0.2114,-0.2041,-0.1021,-0.1312,-0.1451,-0.0429,-0.0495,-0.0628,-0.0275,-0.0678,-0.1144,-0.1212,-0.1212,-0.1279,-0.1548,-0.1616,-0.1548,-0.1481,-0.1466,-0.1118,-0.0519,-0.0446,-0.0311,0.0,0.0,0.0,0.0,0.0,0.0,0.0,0.0,0.0,0.0,0.0,0.0,-0.0057,-0.0324,-0.053,0.0,0.0,0.0,0.0,0.0,0.0,0.0,0.0,0.0,0.0,0.0,-0.1779,-0.1868,0.0,-0.2162,-0.2252,-0.2368,-0.2477,-0.2568,-0.2593,-0.2619,-0.2664,-0.2724,-0.2766,-0.2782,-0.2825,-0.2857,-0.2872,-0.2874,-0.2874,-0.2874,-0.2874,-0.2887,-0.2915,-0.2931,-0.2953,-0.2984,-0.3014,-0.3022,-0.3006,-0.2991,-0.2968,-0.2938,-0.2908,-0.2887,-0.2874,-0.2874,-0.2874,-0.2874,-0.2874,-0.2838,-0.2784,-0.2784,-0.2746,-0.2692,-0.2692,-0.2692,-0.2692,-0.2692,-0.2653,-0.2601,-0.2601,-0.2562,-0.2514,-0.2514,-0.2514,-0.2504,-0.2459,-0.2435,-0.2413,-0.2367,-0.2197,-0.2041,-0.1822,-0.175,-0.1532,-0.0802,-0.0948,-0.0943,-0.0142,-0.0141,-0.0209,-0.0068,-0.0338,-0.0606,-0.0808,-0.0808,-0.0875,-0.101,-0.1077,-0.101,-0.0808,-0.0803,-0.0662,-0.0261,-0.0256,-0.0187,0.0,0.0,0.0,0.0,0.0,0.0,0.0,0.0,0.0,0.0,0.0,0.0,0.0,-0.0116,-0.0288,0.0,0.0,0.0,0.0,0.0,0.0,0.0,0.0,-0.1669,-0.1763,-0.1851,-0.1943,-0.2052,-0.2161,-0.227,-0.2378,-0.2442,-0.2504,-0.2582,-0.2593,-0.2613,-0.2668,-0.2712,-0.275,-0.2781,-0.2811,-0.2841,-0.2871,-0.2874,-0.2874,-0.2874,-0.2874,-0.2885,-0.2906,-0.2913,-0.2928,-0.2953,-0.2983,-0.2986,-0.2961,-0.2956,-0.2939,-0.2915,-0.2887,-0.2874,-0.2874,-0.2874,-0.2874,-0.2874,-0.2874,-0.2838,-0.2784,-0.2784,-0.2746,-0.2692,-0.2692,-0.2692,-0.2692,-0.2692,-0.2653,-0.2601,-0.2601,-0.2562,-0.2514,-0.2514,-0.2514,-0.2508,-0.2477,-0.2371,-0.2265,-0.2311,-0.1988,-0.1677,-0.1604,-0.1386,-0.1095,-0.0584,-0.0511,-0.0508,-0.0071,0.0,0.0,0.0,0.0,-0.0068,-0.0337,-0.0404,-0.0404,-0.0471,-0.0471,-0.0404,-0.0135,-0.0067,-0.0067,0.0,0.0,0.0,0.0,0.0,0.0,0.0,0.0,0.0,0.0,0.0,0.0,0.0,0.0,0.0,0.0,0.0,0.0,-0.0403,-0.0766,-0.1252,-0.1494,-0.1577,-0.1655,0.0,0.0,-0.1924,-0.2039,-0.2116,-0.218,-0.2248,-0.2313,-0.238,-0.2448,-0.2487,-0.2522,-0.2559,-0.2564,-0.2577,-0.2608,-0.2687,-0.275,-0.2781,-0.2811,-0.2841,-0.2871,-0.2874,-0.2874,-0.2874,-0.2874,-0.2875,-0.2879,-0.2902,-0.2917,-0.292,-0.2951,-0.2965,-0.2961,-0.2934,-0.2919,-0.2915,-0.2887,-0.2874,-0.2874,-0.2874,-0.2874,-0.2874,-0.2874,-0.2838,-0.2784,-0.2784,-0.2746,-0.2692,-0.2692,-0.2692,-0.2692,-0.2692,-0.2653,-0.2601,-0.2601,-0.2562,-0.2514,-0.2514,-0.2514,-0.2508,-0.2477,-0.2218,-0.1887,-0.1864,-0.1546,-0.1168,-0.0803,-0.0949,-0.1022,-0.0219,-0.0365,-0.051,-0.0073,0.0,0.0,0.0,0.0,0.0,-0.0067,-0.0067,-0.0135,-0.0471,-0.0471,-0.0471,-0.0471,-0.0471,-0.0333,0.0,0.0,0.0,0.0,0.0,0.0,0.0,0.0,0.0,0.0,0.0,0.0,0.0,0.0,0.0,0.0,0.0,0.0,-0.0819,-0.1221,-0.154,0.0,-0.1829,-0.1885,-0.2023,-0.2057,-0.208,-0.2148,-0.221,-0.2266,-0.2308,-0.2364,-0.2418,0.0,-0.2495,-0.2525,-0.2556,-0.2574,-0.2589,-0.26,-0.265,-0.2697,-0.2728,-0.2774,-0.2815,-0.2845,-0.2864,-0.2874,-0.2874,-0.2874,-0.2874,-0.2874,-0.2886,-0.2891,-0.2891,-0.292,-0.2927,-0.2911,-0.2915,-0.2906,-0.2891,-0.2879,-0.2874,-0.2874,-0.2874,-0.2874,-0.2874,-0.2874,-0.2838,-0.2784,-0.2784,-0.2746,-0.2692,-0.2692,-0.2692,-0.2692,-0.2692,-0.2664,-0.2626,-0.2607,-0.2574,-0.2537,-0.2519,-0.2514,-0.2511,-0.2499,-0.2164,-0.1832,-0.1809,-0.1341,-0.081,-0.0658,-0.0584,-0.0438,-0.0073,-0.0146,-0.0218,0.0,0.0,0.0,0.0,0.0,0.0,0.0,0.0,-0.0067,-0.0202,-0.0202,-0.0202,-0.0202,-0.0202,-0.0134,0.0,0.0,0.0,0.0,0.0,0.0,0.0,0.0,0.0,0.0,0.0,0.0,0.0,0.0,0.0,0.0,0.0,0.0,-0.1091,0.0,0.0,-0.1941,-0.2016,-0.2072,-0.2133,-0.217,-0.22,-0.223,-0.2271,-0.2313,-0.235,-0.2387,-0.2427,-0.2474,-0.2493,-0.2512,-0.2542,-0.2564,-0.2574,-0.2566,-0.2592,-0.2619,-0.2641,-0.2713,-0.2777,-0.2825,-0.2849,-0.2866,-0.2874,-0.2874,-0.2874,-0.2874,-0.2874,-0.2874,-0.2874,-0.2894,-0.2894,-0.2874,-0.2894,-0.2894,-0.2874,-0.2874,-0.2874,-0.2874,-0.2874,-0.2874,-0.2874,-0.2866,-0.283,-0.2782,-0.2774,-0.2739,-0.2692,-0.2692,-0.2692,-0.2692,-0.2692,-0.2672,-0.2559,-0.2612,-0.2583,-0.2555,-0.2523,-0.2514,-0.2514,-0.2357,-0.2025,-0.1615,-0.1519,-0.0975,-0.0445,-0.0439,-0.0219,0.0,0.0,0.0,0.0,0.0,0.0,0.0,0.0,0.0,0.0,0.0,0.0,0.0,0.0,0.0,0.0,0.0,0.0,0.0,0.0,0.0,0.0,0.0,0.0,0.0,0.0,0.0,0.0,0.0,0.0,0.0,0.0,0.0,0.0,0.0,0.0,0.0,0.0,0.0,-0.1933,-0.1967,-0.2128,-0.2166,-0.2228,-0.2264,-0.2294,-0.2323,-0.233,-0.235,-0.2409,-0.2398,-0.2409,-0.2499,-0.2489,-0.2481,-0.2511,-0.2517,-0.2506,-0.2477,-0.25,-0.2519,0.0,-0.2626,-0.2732,-0.2822,-0.2829,-0.2842,-0.2872,-0.2874,-0.2874,-0.2874,-0.2874,-0.2874,-0.2874,-0.2875,-0.2875,-0.2874,-0.2875,-0.2875,-0.2874,-0.2874,-0.2874,-0.2874,-0.2874,-0.2874,-0.2871,-0.2842,-0.2811,-0.2781,-0.2751,-0.272,-0.2692,-0.2692,-0.2692,-0.2692,-0.2692,-0.2672,-0.2559,-0.2612,-0.2583,-0.2555,-0.2523,-0.2514,-0.2435,-0.2043,-0.1636,-0.1231,-0.076,-0.03,0.0,0.0,0.0,0.0,0.0,0.0,0.0,0.0,0.0,0.0,0.0,0.0,0.0,0.0,0.0,0.0,0.0,0.0,0.0,0.0,0.0,0.0,0.0,0.0,0.0,0.0,0.0,0.0,0.0,0.0,0.0,0.0,0.0,0.0,0.0,0.0,0.0,0.0,0.0,0.0,-0.0976,0.0,-0.17,-0.206,-0.22,-0.2255,-0.2294,-0.2327,-0.2346,-0.2335,-0.2318,-0.2311,-0.2331,-0.2327,-0.2343,-0.2413,-0.2466,-0.2503,-0.2512,-0.2566,-0.257,-0.248,-0.253,0.0,0.0,0.0,0.0,-0.2733,-0.2776,-0.2812,-0.2842,-0.2863,-0.2874,-0.2874,-0.2874,-0.2874,-0.2874,-0.2874,-0.2874,-0.2874,-0.2874,-0.2874,-0.2874,-0.2874,-0.2874,-0.2874,-0.2874,-0.2874,-0.2871,-0.2841,-0.2811,-0.278,-0.275,-0.272,-0.2692,-0.2692,-0.2692,-0.2692,-0.2692,-0.2686,-0.2669,-0.2617,-0.2596,-0.2578,-0.2529,-0.2278,-0.2043,-0.1964,-0.141,-0.0777,-0.0609,-0.0302,0.0,0.0,0.0,0.0,0.0,0.0,0.0,0.0,0.0,0.0,0.0,0.0,0.0,0.0,0.0,0.0,0.0,0.0,0.0,0.0,0.0,0.0,0.0,0.0,0.0,0.0,0.0,0.0,0.0,0.0,0.0,0.0,0.0,0.0,0.0,0.0,0.0,0.0,0.0,0.0,-0.0987,-0.1352,-0.1661,-0.2095,-0.2292,-0.2324,-0.2331,-0.2348,-0.235,-0.2309,-0.227,-0.2243,-0.2243,-0.2207,-0.2219,-0.2342,-0.2402,-0.2457,-0.2521,-0.2579,-0.2583,-0.2496,-0.2536,0.0,0.0,0.0,0.0,-0.2686,-0.2748,-0.2796,-0.2827,-0.2857,-0.2874,-0.2874,-0.2874,-0.2874,-0.2874,-0.2874,-0.2874,-0.2874,-0.2874,-0.2874,-0.2874,-0.2874,-0.2874,-0.2874,-0.2874,-0.2874,-0.2871,-0.2829,-0.2801,-0.278,-0.2737,-0.271,-0.2692,-0.2692,-0.2692,-0.2692,-0.2692,-0.2692,-0.2683,-0.2622,-0.2601,-0.259,-0.2373,-0.2121,-0.1807,-0.1493,-0.1021,-0.0547,-0.046,-0.0228,0.0,0.0,0.0,0.0,0.0,0.0,0.0,0.0,0.0,0.0,0.0,0.0,0.0,0.0,0.0,0.0,0.0,0.0,0.0,0.0,0.0,0.0,0.0,0.0,0.0,0.0,0.0,0.0,0.0,0.0,0.0,0.0,0.0,0.0,0.0,0.0,0.0,0.0,0.0,0.0,-0.0977,-0.1364,-0.1765,-0.2219,-0.2338,-0.2371,-0.2342,-0.2333,-0.2313,-0.2184,-0.2191,-0.2211,0.0,0.0,-0.2052,-0.2283,-0.2307,-0.2357,-0.2534,-0.2562,-0.2552,0.0,0.0,0.0,0.0,0.0,0.0,-0.2684,0.0,-0.2792,-0.2825,-0.2856,-0.2874,-0.2874,-0.2874,-0.2874,-0.2874,-0.2874,-0.2874,-0.2874,-0.2874,-0.2874,-0.2874,-0.2874,-0.2874,-0.2874,-0.2874,-0.2872,-0.2867,-0.2808,-0.2782,-0.2774,-0.2716,-0.2692,-0.2692,-0.2692,-0.2692,-0.2692,-0.2692,-0.2692,-0.2683,-0.2622,-0.2601,-0.2509,-0.2057,-0.1886,-0.165,-0.0864,-0.055,-0.047,-0.0077,0.0,0.0,0.0,0.0,0.0,0.0,0.0,0.0,0.0,0.0,0.0,0.0,0.0,0.0,0.0,0.0,0.0,0.0,0.0,0.0,0.0,0.0,0.0,0.0,0.0,0.0,0.0,0.0,0.0,0.0,0.0,0.0,0.0,0.0,0.0,0.0,0.0,0.0,0.0,0.0,0.0,-0.0953,-0.128,-0.1469,-0.2233,-0.2384,-0.2376,-0.2368,-0.2333,-0.2285,-0.2223,-0.211,-0.2008,0.0,0.0,0.0,-0.2146,-0.2292,0.0,-0.2544,-0.2597,0.0,-0.2555,0.0,-0.2596,-0.2552,-0.2587,0.0,0.0,-0.2706,-0.2739,-0.2792,-0.2845,-0.2874,-0.2874,-0.2874,-0.2874,-0.2874,-0.2874,-0.2874,-0.2874,-0.2874,-0.2874,-0.2874,-0.2874,-0.2874,-0.2874,-0.2874,-0.2861,-0.2837,-0.2799,-0.277,-0.2746,-0.2707,-0.2692,-0.2692,-0.2692,-0.2692,-0.2692,-0.2692,-0.2692,-0.2683,-0.2622,-0.2359,-0.2107,-0.1978,-0.1414,-0.0864,-0.0628,-0.0393,-0.0157,0.0,0.0,0.0,0.0,0.0,0.0,0.0,0.0,0.0,0.0,0.0,0.0,0.0,0.0,0.0,0.0,0.0,0.0,0.0,0.0,0.0,0.0,0.0,0.0,0.0,0.0,0.0,0.0,0.0,0.0,0.0,0.0,0.0,0.0,0.0,0.0,0.0,0.0,0.0,0.0,0.0,0.0,-0.0782,-0.0958,-0.1134,-0.1968,-0.2109,-0.2155,-0.2155,-0.2104,-0.2036,-0.1777,-0.1684,0.0,0.0,0.0,0.0,0.0,0.0,0.0,-0.2556,-0.2607,-0.262,0.0,-0.2627,0.0,-0.2601,-0.2628,-0.2665,0.0,-0.2725,-0.2752,-0.28,-0.2848,-0.2874,-0.2874,-0.2874,-0.2874,-0.2874,-0.2874,-0.2874,-0.2874,-0.2874,-0.2874,-0.2874,-0.2874,-0.2874,-0.2874,0.0,-0.2857,-0.2826,-0.2796,-0.2765,-0.2735,-0.2705,-0.2692,-0.2692,-0.2692,-0.2692,-0.2692,-0.2692,-0.2692,-0.2683,-0.2377,-0.2197,-0.1945,-0.1503,-0.1021,-0.055,-0.0393,-0.0157,0.0,0.0,0.0,0.0,0.0,0.0,0.0,0.0,0.0,0.0,0.0,0.0,0.0,0.0,0.0,0.0,0.0,0.0,0.0,0.0,0.0,0.0,0.0,0.0,0.0,0.0,0.0,0.0,0.0,0.0,0.0,0.0,0.0,0.0,0.0,0.0,0.0,0.0,0.0,0.0,0.0,0.0,0.0,-0.0518,-0.0608,-0.0771,-0.1526,-0.1743,-0.1779,-0.1718,-0.1724,-0.1642,-0.1175,0.0,-0.1296,-0.131,-0.1501,-0.1778,-0.2019,0.0,-0.2324,-0.2567,-0.2598,-0.2611,-0.2649,-0.2653,-0.2653,-0.2653,-0.2574,-0.2683,-0.274,-0.2772,-0.28,-0.2827,-0.2857,-0.2874,-0.2874,-0.2874,-0.2874,-0.2874,-0.2874,-0.2874,-0.2874,-0.2874,-0.2874,-0.2874,-0.2874,-0.2874,-0.2874,0.0,0.0,-0.2821,-0.2795,-0.2763,-0.2729,-0.2703,-0.2692,-0.2692,-0.2692,-0.2692,-0.2692,-0.2692,-0.2692,-0.2515,-0.2131,-0.1953,-0.1783,-0.087,-0.055,-0.0471,-0.0079,0.0,0.0,0.0,0.0,0.0,0.0,0.0,0.0,0.0,0.0,0.0,0.0,0.0,0.0,0.0,0.0,0.0,0.0,0.0,0.0,0.0,0.0,0.0,0.0,0.0,0.0,0.0,0.0,0.0,0.0,0.0,0.0,0.0,0.0,0.0,0.0,0.0,0.0,0.0,0.0,0.0,0.0,0.0,0.0,-0.0458,-0.062,-0.0704,-0.125,-0.1602,-0.169,-0.1388,-0.149,0.0,0.0,-0.1107,-0.1238,-0.1203,-0.146,-0.1748,-0.1988,0.0,0.0,0.0,0.0,-0.2597,0.0,0.0,0.0,0.0,0.0,0.0,0.0,0.0,-0.2823,-0.2829,-0.2857,-0.2874,-0.2874,-0.2874,-0.2874,-0.2874,-0.2874,-0.2874,-0.2874,-0.2874,-0.2874,-0.2874,-0.2874,-0.2874,-0.2874,-0.2874,0.0,-0.2791,-0.2785,-0.275,-0.2699,-0.2695,-0.2692,-0.2692,-0.2692,-0.2692,-0.2692,-0.2692,-0.244,-0.2095,-0.2049,-0.1709,-0.1297,-0.0791,-0.0393,-0.0079,0.0,0.0,0.0,0.0,0.0,0.0,0.0,0.0,0.0,0.0,0.0,0.0,0.0,0.0,0.0,0.0,0.0,0.0,0.0,0.0,0.0,0.0,0.0,0.0,0.0,0.0,0.0,0.0,0.0,0.0,0.0,0.0,0.0,0.0,0.0,0.0,0.0,0.0,0.0,0.0,0.0,0.0,0.0,0.0,0.0,-0.0232,-0.0313,-0.0393,-0.0792,-0.107,-0.1153,-0.0929,0.0,0.0,0.0,-0.0639,-0.0794,-0.0793,0.0,0.0,0.0,0.0,0.0,0.0,0.0,0.0,0.0,0.0,0.0,0.0,0.0,0.0,0.0,0.0,-0.2819,-0.2851,-0.2866,-0.2874,-0.2874,-0.2874,-0.2874,-0.2874,-0.2874,-0.2874,-0.2874,-0.2874,-0.2874,-0.2874,-0.2874,-0.2874,-0.2872,-0.2857,0.0,-0.2782,-0.2766,-0.2733,-0.2692,-0.2692,-0.2692,-0.2692,-0.2692,-0.2692,-0.2692,-0.244,-0.2188,-0.1929,-0.1486,-0.1145,-0.0891,-0.0396,-0.0157,0.0,0.0,0.0,0.0,0.0,0.0,0.0,0.0,0.0,0.0,0.0,0.0,0.0,0.0,0.0,0.0,0.0,0.0,0.0,0.0,0.0,0.0,0.0,0.0,0.0,0.0,0.0,0.0,0.0,0.0,0.0,0.0,0.0,0.0,0.0,0.0,0.0,0.0,0.0,0.0,0.0,0.0,0.0,0.0,0.0,0.0,0.0,0.0,-0.0079,-0.0396,-0.0532,-0.0566,-0.0505,-0.0518,0.0,0.0,-0.0209,-0.0373,-0.0411,0.0,0.0,0.0,0.0,0.0,0.0,0.0,0.0,0.0,0.0,0.0,0.0,0.0,0.0,0.0,0.0,0.0,-0.2871,-0.2874,-0.2874,-0.2874,-0.2874,-0.2874,-0.2874,-0.2874,-0.2874,-0.2874,-0.2874,-0.2874,-0.2874,-0.2874,-0.2871,-0.2863,-0.284,0.0,0.0,-0.2747,-0.272,-0.2692,-0.2692,-0.2692,-0.2692,-0.2608,-0.2524,-0.2524,-0.2018,-0.1767,-0.1596,-0.0914,-0.0739,-0.0648,-0.0159,0.0,0.0,0.0,0.0,0.0,0.0,0.0,0.0,0.0,0.0,0.0,0.0,0.0,0.0,0.0,0.0,0.0,0.0,0.0,0.0,0.0,0.0,0.0,0.0,0.0,0.0,0.0,0.0,0.0,0.0,0.0,0.0,0.0,0.0,0.0,0.0,0.0,0.0,0.0,0.0,0.0,0.0,0.0,0.0,0.0,0.0,0.0,0.0,0.0,0.0,-0.0078,-0.0298,-0.0418,-0.0124,0.0,0.0,-0.0087,-0.0163,-0.032,-0.0375,-0.0604,-0.0834,0.0,0.0,-0.1261,0.0,0.0,0.0,0.0,0.0,0.0,0.0,0.0,0.0,0.0,0.0,0.0,-0.2874,-0.2874,-0.2874,-0.2874,-0.2874,-0.2874,-0.2874,-0.2874,-0.2874,-0.2874,-0.2874,-0.2874,-0.2874,-0.2874,-0.2859,-0.2833,-0.283,0.0,0.0,-0.2739,-0.272,-0.2692,-0.2692,-0.2692,-0.2608,-0.2188,-0.2103,-0.2018,-0.1514,-0.1094,-0.0841,-0.0748,-0.0739,-0.0649,-0.016,0.0,0.0,0.0,0.0,0.0,0.0,0.0,0.0,0.0,0.0,0.0,0.0,0.0,0.0,0.0,0.0,0.0,0.0,0.0,0.0,0.0,0.0,0.0,0.0,0.0,0.0,0.0,0.0,0.0,0.0,0.0,0.0,0.0,0.0,0.0,0.0,0.0,0.0,0.0,0.0,0.0,0.0,0.0,0.0,0.0,0.0,0.0,0.0,0.0,0.0,0.0,-0.0074,-0.0136,0.0,0.0,-0.0146,-0.0043,-0.0081,-0.0118,-0.0161,-0.0247,-0.0345,-0.0378,-0.0536,-0.0733,-0.1098,0.0,0.0,0.0,0.0,0.0,0.0,0.0,0.0,0.0,0.0,0.0,-0.2872,-0.2874,-0.2874,-0.2874,-0.2874,-0.2874,-0.2874,-0.2874,-0.2874,-0.2874,-0.2874,-0.2874,-0.2874,-0.2855,-0.284,-0.2826,-0.2789,0.0,0.0,-0.2718,-0.2703,-0.2692,-0.2692,-0.2524,-0.2272,-0.2103,-0.185,-0.1514,-0.1094,-0.0842,-0.0673,-0.0332,-0.0246,-0.0244,-0.008,0.0,0.0,0.0,0.0,0.0,0.0,0.0,0.0,0.0,0.0,0.0,0.0,0.0,0.0,0.0,0.0,0.0,0.0,0.0,0.0,0.0,0.0,0.0,0.0,0.0,0.0,0.0,0.0,0.0,0.0,0.0,0.0,0.0,0.0,0.0,0.0,0.0,0.0,0.0,0.0,0.0,0.0,0.0,0.0,0.0,0.0,0.0,0.0075,0.0,0.0,0.0,0.0,0.0,0.0,0.0,0.0,0.0,0.0,0.0,0.0,0.0,0.0,0.0,-0.0179,-0.0337,-0.0555,0.0,0.0,0.0,0.0,0.0,0.0,0.0,0.0,0.0,0.0,0.0,0.0,-0.2846,-0.2856,-0.2874,-0.2874,-0.2874,-0.2874,-0.2874,-0.2874,-0.2874,-0.2866,-0.286,-0.286,-0.2829,-0.281,-0.2799,0.0,0.0,0.0,-0.2701,-0.2608,-0.2524,-0.2524,-0.2188,-0.1766,-0.1683,-0.1431,-0.1094,-0.0674,-0.0505,-0.042,-0.0083,0.0,0.0,0.0,0.0,0.0,0.0,0.0,0.0,0.0,0.0,0.0,0.0,0.0,0.0,0.0,0.0,0.0,0.0,0.0,0.0,0.0,0.0,0.0,0.0,0.0,0.0,0.0,0.0,0.0,0.0,0.0,0.0,0.0,0.0,0.0,0.0,0.0,0.0,0.0,0.0,0.0,0.0,0.0,0.0,0.0,0.0,0.0,0.0,0.0,0.0,0.0286,0.0,0.0,0.0,0.0,0.0,0.0,0.0,0.0,0.0,0.0,0.0,0.0,0.0,0.0,0.0,0.0,-0.015,-0.0565,0.0,0.0,0.0,0.0,0.0,0.0,0.0,0.0,0.0,0.0,0.0,0.0,-0.2784,-0.2812,-0.2872,-0.2874,-0.2874,-0.2874,-0.2874,-0.2874,-0.2874,-0.2844,-0.2829,-0.2827,-0.2797,-0.2767,0.0,0.0,0.0,0.0,-0.2692,-0.244,-0.2018,-0.2018,-0.1682,-0.1262,-0.0842,-0.0674,-0.0674,-0.0168,0.0,0.0,0.0,0.0,0.0,0.0,0.0,0.0,0.0,0.0,0.0,0.0,0.0,0.0,0.0,0.0,0.0,0.0,0.0,0.0,0.0,0.0,0.0,0.0,0.0,0.0,0.0,0.0,0.0,0.0,0.0,0.0,0.0,0.0,0.0,0.0,0.0,0.0,0.0,0.0,0.0,0.0,0.0,0.0,0.0,0.0,0.0,0.0,0.0,0.0,0.0,0.0,0.0,0.1156,0.0533,0.0,0.0,0.0494,0.0928,0.0912,0.1373,0.1658,0.1001,0.0882,0.0706,0.0118,0.0,0.0,0.0,0.0,-0.005,0.0,0.0,0.0,0.0,0.0,0.0,0.0,0.0,0.0,0.0,0.0,0.0,0.0,-0.2784,-0.2792,-0.2811,-0.2831,-0.2842,-0.2842,-0.2842,-0.2842,-0.2842,-0.2812,-0.2797,-0.2796,-0.2766,0.0,0.0,0.0,0.0,0.0,-0.2356,-0.2104,-0.1934,-0.1682,-0.1262,-0.0842,-0.0758,-0.0505,-0.0168,-0.0084,0.0,0.0,0.0,0.0,0.0,0.0,0.0,0.0,0.0,0.0,0.0,0.0,0.0,0.0,0.0,0.0,0.0,0.0,0.0,0.0,0.0,0.0,0.0,0.0,0.0,0.0,0.0,0.0,0.0,0.0,0.0,0.0,0.0,0.0,0.0,0.0,0.0,0.0,0.0,0.0,0.0,0.0,0.0,0.0,0.0,0.0,0.0,0.0,0.0,0.0,0.0,0.0,0.0,0.2155,0.1583,0.1114,0.1074,0.154,0.1945,0.1872,0.2018,0.2048,0.1439,0.1037,0.0627,0.0118,0.0,0.0,0.0,0.0,0.0,0.0,0.0,0.0,0.0,0.0,0.0,0.0,0.0,0.0,0.0,0.0,0.0,0.0,-0.2491,-0.2577,-0.2748,-0.2789,-0.2811,-0.2811,-0.2811,-0.2811,-0.2811,-0.2781,-0.2766,-0.2765,-0.2735,0.0,0.0,0.0,0.0,0.0,-0.1934,-0.1682,-0.1515,-0.1178,-0.0842,-0.0421,-0.0421,-0.0253,0.0,0.0,0.0,0.0,0.0,0.0,0.0,0.0,0.0,0.0,0.0,0.0,0.0,0.0,0.0,0.0,0.0,0.0,0.0,0.0,0.0,0.0,0.0,0.0,0.0,0.0,0.0,0.0,0.0,0.0,0.0,0.0,0.0,0.0,0.0,0.0,0.0,0.0,0.0,0.0,0.0,0.0,0.0,0.0,0.0,0.0,0.0,0.0,0.0,0.0,0.0,0.0,0.0,0.0,0.0,0.0,0.2984,0.2875,0.288,0.2932,0.2944,0.2789,0.2192,0.0,0.143,0.0757,0.0157,0.0039,0.0,0.0,0.0,0.0,0.0,0.0,0.0,0.0,0.0,0.0,0.0,0.0,0.0,0.0,0.0,0.0,0.0,0.0,-0.1934,-0.2188,-0.2608,-0.2661,-0.269,-0.278,-0.278,-0.278,-0.278,-0.2662,-0.2649,-0.2648,-0.262,0.0,0.0,0.0,0.0,0.0,-0.143,-0.101,-0.0674,-0.0674,-0.0421,0.0,0.0,0.0,0.0,0.0,0.0,0.0,0.0,0.0,0.0,0.0159,0.008,0.0,0.0,0.0,0.0,0.0,0.0,0.0,0.0,0.0,0.0,0.0,0.0,0.0,0.0,0.0,0.0,0.0,0.0,0.0,0.0,0.0,0.0,0.0,0.0,0.0,0.0,0.0,0.0,0.0,0.0,0.0,0.0,0.0,0.0,0.0,0.0,0.0,0.0,0.0,0.0,0.0,0.0,0.0,0.0,0.0,0.0,0.4807,0.0,0.2573,0.2575,0.3156,0.3625,0.0,0.393,0.392,0.25,0.2044,0.1505,0.0247,0.0,0.0,0.0,0.0,0.0,0.0,0.0,0.0,0.0,0.0,0.0,0.0,0.0,0.0,0.0,0.0,0.0,0.0,-0.143,-0.1514,-0.1598,-0.1606,-0.1958,-0.2748,-0.2748,-0.2748,-0.2748,-0.2377,-0.2196,-0.2111,-0.1769,0.0,0.0,0.0,0.0,-0.143,-0.101,-0.0758,-0.0674,-0.0337,-0.0084,0.0,0.0,0.0,0.0,0.0,0.0,0.0,0.0,0.0,0.0236,0.167,0.1118,0.0,0.0,0.0,0.0,0.0,0.0,0.0,0.0,0.0,0.0,0.0,0.0,0.0,0.0,0.0,0.0,0.0,0.0,0.0,0.0,0.0,0.0,0.0,0.0,0.0,0.0,0.0,0.0,0.0,0.0,0.0,0.0,0.0,0.0,0.0,0.0,0.0,0.0,0.0,0.0,0.0,0.0,0.0,0.0,0.0,0.0,0.5186,0.461,0.3961,0.3956,0.4368,0.4685,0.4583,0.4321,0.3742,0.2711,0.0,0.107,0.0165,0.0,0.0,0.0,0.0,0.0,0.0,0.0,0.0,0.0,0.0,0.0,0.0,0.0,0.0,0.0,0.0,0.0,0.0,-0.101,-0.1094,-0.1262,-0.1262,-0.1519,-0.2037,-0.2037,-0.2037,-0.2037,-0.1772,-0.1682,-0.1682,-0.143,-0.1262,0.0,0.0,0.0,-0.101,-0.0589,-0.0337,-0.0337,-0.0084,0.0,0.0084,0.0926,0.1262,0.1345,0.2089,0.2311,0.2271,0.231,0.2287,0.2517,0.3518,0.3113,0.2141,0.1435,0.0637,0.0,0.0,0.0,0.0,0.0,0.0,0.0,0.0,0.0,0.0,0.0,0.0,0.0,0.0,0.0,0.0,0.0,0.0,0.0,0.0,0.0,0.0,0.0,0.0,0.0,0.0,0.0,0.0,0.0,0.0,0.0,0.0,0.0,0.0,0.0,0.0,0.0,0.0,0.0,0.0,0.0,0.0,0.0,0.5044,0.5378,0.5696,0.5626,0.5632,0.5626,0.5508,0.0,0.0,0.0,0.0,0.0,0.0248,0.0085,0.0,0.0,0.0,0.0,0.0,0.0,0.0,0.0,0.0,0.0,0.0,0.0,0.0,0.0,0.0,0.0,0.0,-0.0589,-0.0758,-0.1093,-0.1093,-0.1093,-0.1093,-0.1262,-0.1262,-0.1262,-0.1262,-0.1178,-0.1178,-0.1093,-0.1093,0.0,0.0,0.0,-0.0589,-0.0168,0.0,0.0,0.0337,0.0421,0.0673,0.2438,0.3105,0.3261,0.4702,0.5107,0.5016,0.5033,0.5019,0.5125,0.5477,0.5351,0.4802,0.3745,0.214,0.0706,0.0471,0.0392,0.0313,0.0077,0.0,0.0,0.0,0.0,0.0,0.0,0.0,0.0,0.0,0.0,0.0,0.0,0.0,0.0,0.0,0.0,0.0,0.0,0.0,0.0,0.0,0.0,0.0,0.0,0.0,0.0,0.0,0.0,0.0,0.0,0.0,0.0,0.0,0.0,0.0,0.0,0.0,0.0,0.5346,0.5626,0.5779,0.5371,0.5426,0.5502,0.5426,0.5199,0.0,0.0,0.0,0.0,0.0,0.0,0.0,0.0,0.0,0.0,0.0,0.0,0.0,0.0,0.0,0.0,0.0,0.0,0.0,0.0,0.0,0.0,0.0,-0.0084,-0.0168,-0.0168,-0.0168,-0.0168,-0.0168,-0.0926,-0.1262,-0.1262,-0.0926,-0.0758,-0.0758,-0.0421,-0.0168,0.0,0.0,-0.0084,-0.0084,0.0,0.0,0.0168,0.1682,0.227,0.252,0.4281,0.4922,0.4866,0.5008,0.504,0.5016,0.5033,0.5046,0.5496,0.7022,0.6424,0.5416,0.6766,0.5731,0.3918,0.2508,0.2117,0.1798,0.0309,0.0,0.0,0.0,0.0,0.0,0.0,0.0,0.0,0.0,0.0,0.0,0.0,0.0,0.0,0.0,0.0,0.0,0.0,0.0,0.0,0.0,0.0,0.0,0.0,0.0,0.0,0.0,0.0,0.0,0.0,0.0,0.0,0.0,0.0,0.0,0.0,0.0,0.0,0.5178,0.5437,0.5648,0.5594,0.5761,0.5961,0.5882,0.5439,0.4907,0.0,0.0,0.0,0.0,0.0,0.0,0.0,0.0,0.0,0.0,0.0,0.0,0.0,0.0,0.0,0.0,0.0,0.0,0.0,0.0,0.0,0.0,0.0,0.0,0.0,0.0,0.0,0.0,-0.0421,-0.0589,-0.0589,-0.0421,-0.0337,-0.0337,-0.0084,0.0,0.0,0.0,0.0589,0.143,0.143,0.201,0.2913,0.3743,0.3978,0.4121,0.6016,0.7196,0.7923,0.784,0.7777,0.7727,0.7686,0.781,0.8062,0.8969,0.8643,0.8211,0.8988,0.7175,0.4623,0.2899,0.2507,0.2113,0.039,0.0,0.0,0.0,0.0,0.0,0.0,0.0,0.0,0.0,0.0,0.0,0.0,0.0,0.0,0.0,0.0,0.0,0.0,0.0,0.0,0.0,0.0,0.0,0.0,0.0,0.0,0.0,0.0,0.0,0.0,0.0,0.0,0.0,0.0,0.0,0.0,0.0,0.0,0.5114,0.5324,0.5578,0.5915,0.6176,0.6377,0.6426,0.5761,0.519,0.0,0.0,0.0,0.0,0.0,0.0,0.0,0.0,0.0,0.0,0.0,0.0,0.0,0.0,0.0,0.0,0.0,0.0,0.0,0.0,0.0,0.0,0.0,0.0,0.0,0.0,0.0,0.0,0.0,0.0,0.0,0.0,0.0,0.0,0.0,0.0,0.0,0.0418,0.1335,0.2668,0.3083,0.3976,0.5174,0.5587,0.5966,0.6401,0.7762,0.9077,1.0199,1.0172,1.0101,1.0019,1.0019,1.0123,1.0264,1.0356,1.0405,1.0422,1.0394,0.8393,0.5814,0.4075,0.3368,0.2665,0.102,0.0314,0.0,0.0,0.0,0.0,0.0,0.0,0.0,0.0,0.0,0.0,0.0,0.0,0.0,0.0,0.0,0.0,0.0,0.0,0.0,0.0,0.0,0.0,0.0,0.0,0.0,0.0,0.0,0.0,0.0,0.0,0.0,0.0,0.0,0.0,0.0,0.0,0.0,0.5518,0.5572,0.5615,0.6127,0.6176,0.6257,0.6806,0.6689,0.6556,0.6942,0.0,0.0,0.0,0.0,0.0,0.0,0.0,0.0,0.0,0.0,0.0,0.0,0.0,0.0,0.0,0.0,0.0,0.0,0.0,0.0,0.0,0.0,0.0,0.0,0.0,0.0,0.0,0.0,0.0,0.0,0.0,0.0,0.0,0.0,0.0,0.0083,0.1637,0.2361,0.2604,0.4228,0.4875,0.5194,0.6901,0.8522,1.0045,1.002,1.013,1.0188,1.0074,1.0025,1.0019,1.0019,1.0182,1.0373,1.0384,1.046,1.052,1.0416,1.0131,0.945,0.7616,0.5952,0.4388,0.2742,0.1098,0.0,0.0,0.0,0.0,0.0,0.0,0.0,0.0,0.0,0.0,0.0,0.0,0.0,0.0,0.0,0.0,0.0,0.0,0.0,0.0,0.0,0.0,0.0,0.0,0.0,0.0,0.0,0.0,0.0,0.0,0.0,0.0,0.0,0.0,0.0,0.0,0.0,0.5322,0.5481,0.5718,0.6165,0.6458,0.6741,0.7116,0.7192,0.7279,0.7697,0.6961,0.0,0.0,0.0,0.0,0.0,0.0,0.0,0.0,0.0,0.0,0.0,0.0,0.0,0.0,0.0,0.0,0.0,0.0,0.0,0.0,0.0,0.0,0.0,0.0,0.0,0.0,0.0,0.0,0.0,0.0,0.0,0.0,0.0,0.0573,0.1554,0.2197,0.3732,0.5761,0.6408,0.7267,0.8256,0.8912,0.9524,1.0155,1.0106,1.009,1.0085,1.0036,1.0019,1.003,1.0106,1.0248,1.04,1.0471,1.0574,1.0628,1.0438,1.0351,0.9871,0.8024,0.7045,0.587,0.3133,0.2038,0.1255,0.0236,0.0,0.0,0.0,0.0,0.0,0.0,0.0,0.0,0.0,0.0,0.0,0.0,0.0,0.0,0.0,0.0,0.0,0.0,0.0,0.0,0.0,0.0,0.0,0.0,0.0,0.0,0.0,0.0,0.0,0.0,0.0,0.0,0.0,0.0,0.0,0.5235,0.5458,0.5734,0.6214,0.6627,0.7051,0.7513,0.7655,0.7823,0.8296,0.798,0.7098,0.0,0.0,0.0,0.0,0.0,0.0,0.0,0.0,0.0,0.0,0.0,0.0,0.0,0.0,0.0,0.0,0.0,0.0,0.0,0.0,0.0,0.0,0.0,0.0,0.0,0.0,0.0,0.0,0.0563,0.0484,0.0,0.0567,0.1455,0.2583,0.3617,0.5454,0.7701,0.818,0.9099,1.0139,1.0052,1.0019,1.0019,1.0019,1.0019,1.0019,1.0019,1.0047,1.009,1.0177,1.0313,1.0454,1.053,1.0612,1.0639,1.0443,1.0356,1.0041,0.8655,0.7907,0.6889,0.462,0.3681,0.2977,0.1804,0.1177,0.0942,0.149,0.0706,0.0157,0.0706,0.0314,0.0,0.0,0.0,0.0,0.0,0.0,0.0,0.0,0.0,0.0,0.0,0.0,0.0,0.0,0.0,0.0,0.0,0.0,0.0,0.0,0.0,0.0,0.0,0.0,0.0,0.0,0.0,0.0,0.5404,0.5458,0.5653,0.6241,0.0,0.0,0.8019,0.8144,0.8263,0.8992,0.7883,0.6352,0.481,0.0,0.0,0.0,0.0,0.0,0.0,0.0,0.0,0.0,0.0,0.0,0.0,0.0,0.0,0.0,0.0,0.0,0.0,0.0,0.0,0.0,0.0,0.0,0.0,0.0,0.0,0.0079,0.1725,0.1667,0.0081,0.1765,0.2552,0.271,0.6059,0.7513,0.7673,0.9314,1.0019,1.0019,1.0019,1.0019,1.0019,1.0019,1.0019,1.0019,1.0019,1.0101,1.0204,1.0204,1.0362,1.0634,1.0639,1.0634,1.053,1.0416,1.0297,1.0177,1.0052,0.8769,0.7513,0.7513,0.6264,0.5014,0.5014,0.3681,0.2977,0.4701,0.2353,0.0549,0.2194,0.1098,0.0,0.0,0.0,0.0,0.0,0.0,0.0,0.0,0.0,0.0,0.0,0.0,0.0,0.0,0.0,0.0,0.0,0.0,0.0,0.0,0.0,0.0,0.0,0.0,0.0,0.0,0.0,0.0,0.5418,0.5643,0.0,0.6458,0.0,0.0,0.0,0.8519,0.0,0.0,0.8934,0.8263,0.0,0.0,0.0,0.0,0.0,0.0,0.0,0.0,0.0,0.0,0.0,0.0,0.0,0.0,0.0,0.0,0.0,0.0,0.0,0.0,0.0,0.0,0.0,0.0,0.0,0.1177,0.1725,0.1803,0.3447,0.3383,0.1823,0.3471,0.4881,0.6059,0.7056,0.8141,0.9314,0.9786,1.0019,1.0019,1.0019,1.0019,1.0019,1.0019,1.0074,1.015,1.015,1.0231,1.0346,1.0427,1.0443,1.0449,1.053,1.0498,1.0411,1.0291,1.0231,1.0177,1.0052,0.963,0.8925,0.7751,0.7123,0.642,0.5248,0.4623,0.4385,0.4936,0.4231,0.3292,0.2585,0.2117,0.1334,0.0157,0.0,0.0,0.0,0.0,0.0,0.0,0.0,0.0,0.0,0.0,0.0,0.0,0.0,0.0,0.0,0.0,0.0,0.0,0.0,0.0,0.0,0.0,0.0,0.0,0.0,0.0,0.5731,0.6007,0.0,0.698,0.7551,0.8212,0.8796,0.0,0.0,0.0,0.0,0.0,0.0,0.0,0.0,0.0,0.0,0.0,0.0,0.0,0.0,0.0,0.0,0.0,0.0,0.0,0.0,0.0,0.0,0.0,0.0,0.0,0.0,0.0,0.1961,0.1961,0.1961,0.2978,0.3525,0.3525,0.517,0.548,0.4542,0.5558,0.6577,0.7517,0.8219,0.908,1.0019,1.0019,1.0019,1.0019,1.0019,1.0019,1.0019,1.0019,1.0095,1.0204,1.0204,1.0313,1.0454,1.0481,1.0471,1.046,1.0481,1.0405,1.0297,1.0226,1.0166,1.0112,1.0041,1.0019,0.9708,0.8764,0.853,0.8219,0.7201,0.6499,0.6186,0.6889,0.5874,0.4857,0.4542,0.3368,0.2195,0.1177,0.0392,0.0,0.0,0.0,0.0,0.0,0.0,0.0,0.0,0.0,0.0,0.0,0.0,0.0,0.0,0.0,0.0,0.0,0.0,0.0,0.0,0.0,0.0,0.0,0.0,0.0,0.6154,0.6442,0.0,0.7676,0.7937,0.0,0.9258,0.0,0.0,0.0,0.0,0.0,0.0,0.0,0.0,0.0,0.0,0.0,0.0,0.0,0.0,0.0,0.0,0.0,0.0,0.0,0.0,0.0,0.0,0.0,0.0,0.0,0.0,0.4997,0.4997,0.5,0.5006,0.5162,0.5243,0.0,0.6889,0.7751,0.7751,0.7751,0.7751,0.7829,0.9314,1.0019,1.0019,1.0019,1.0019,1.0019,1.0019,1.0019,1.0019,1.003,1.0112,1.0221,1.0221,1.0367,1.0618,1.0422,1.0449,1.0503,1.04,1.0286,1.0188,1.0188,1.0106,1.0019,1.0019,1.0019,1.0019,1.0019,1.0019,1.0019,1.0019,0.8769,0.8136,0.9692,0.7501,0.5864,0.7267,0.4925,0.2895,0.2742,0.1412,0.0471,0.0471,0.0314,0.0236,0.0236,0.0079,0.0,0.0,0.0,0.0,0.0,0.0,0.0,0.0,0.0,0.0,0.0,0.0,0.0,0.0,0.0,0.0,0.0,0.0,0.0,0.6029,0.6437,0.0,0.0,0.8443,0.897,0.9389,0.0,0.0,0.0,0.0,0.0,0.0,0.0,0.0,0.0,0.0,0.0,0.0,0.0,0.0,0.0,0.0,0.0,0.0,0.0,0.0,0.0,0.0,0.0,0.0,0.0,0.0,0.4796,0.4793,0.4817,0.4863,0.6176,0.6825,0.0,0.8686,0.947,0.947,0.947,0.947,0.947,0.9864,1.0019,1.0019,1.0019,1.0019,1.0019,1.0019,1.0019,1.003,1.0128,1.0242,1.0346,1.0346,1.0438,1.0618,1.0422,1.0335,1.0275,1.0248,1.0155,1.0057,1.0057,1.0041,1.0019,1.0019,1.0019,1.0019,1.0019,1.0019,1.0019,1.0019,0.9708,0.9521,0.9818,0.9259,0.8487,0.7484,0.6715,0.5884,0.4615,0.4153,0.3918,0.3918,0.2743,0.196,0.196,0.0785,0.0,0.0,0.0,0.0,0.0,0.0,0.0,0.0,0.0,0.0,0.0,0.0,0.0,0.0,0.0,0.0,0.0,0.0,0.0,0.6165,0.0,0.0,0.8223,0.0,0.0,0.0,0.0,0.0,0.0,0.0,0.0,0.0,0.0,0.0,0.0,0.0,0.0,0.0,0.0,0.0,0.0,0.0,0.0,0.0,0.0,0.0,0.0,0.0,0.0,0.0,0.838,0.7999,0.7097,0.7097,0.7117,0.7165,0.8005,0.8488,0.8545,0.9468,0.9851,0.9856,0.997,1.0019,1.0019,1.0019,1.0019,1.0019,1.0019,1.0019,1.0019,1.0019,1.0019,1.003,1.009,1.0193,1.0297,1.0297,1.0378,1.0454,1.0335,1.0253,1.0193,1.0134,1.0068,1.0019,1.0019,1.0019,1.0019,1.0019,1.0019,1.0019,1.0019,1.0019,1.0019,1.0019,1.0019,1.0003,0.9938,0.9927,0.9613,0.876,0.7907,0.684,0.5243,0.5014,0.5014,0.5014,0.4229,0.3681,0.3681,0.29,0.2039,0.1255,0.1177,0.0863,0.0079,0.0785,0.0863,0.0,0.0775,0.0847,0.0,0.0,0.0,0.0,0.0,0.0,0.0,0.0,0.0392,0.623,0.0,0.7577,0.8519,0.9024,0.0,0.0,0.0,0.0,0.0,0.0,0.0,0.0,0.0,0.0,0.0,0.0,0.0,0.0,0.0,0.0,0.0,0.0,0.0,0.0,0.0,0.0,0.0,0.0,0.0,0.9606,0.9606,0.9606,0.9606,0.9606,0.9617,0.9639,0.9639,0.965,0.9671,0.9671,0.9671,0.9677,0.9873,0.997,0.9987,1.0008,1.0019,1.0019,1.0019,1.0019,1.0019,1.0019,1.0019,1.0025,1.0047,1.0117,1.0204,1.0204,1.0269,1.0335,1.021,1.0172,1.015,1.0052,1.0019,1.0019,1.0019,1.0019,1.0019,1.0019,1.0019,1.0019,1.0019,1.0019,1.0019,1.0019,1.0019,1.0014,0.9992,0.9987,0.9987,0.9987,0.8832,0.7435,0.6108,0.5874,0.5874,0.5874,0.5639,0.5405,0.5405,0.517,0.4466,0.3055,0.2899,0.2352,0.0942,0.2195,0.2273,0.0942,0.2195,0.2273,0.0863,0.0314,0.0,0.0,0.0,0.0157,0.0392,0.0157,0.102,0.5659,0.0,0.7937,0.0,0.0,0.0,0.0,0.0,0.0,0.0,0.0,0.0,0.0,0.0,0.0,0.0,0.0,0.0,0.0,0.0,0.0,0.0,0.0,0.0,0.0,0.0,0.0,0.0,0.0,0.0,0.9351,0.9351,0.9351,0.9351,0.9351,0.9405,0.9508,0.9508,0.9563,0.9671,0.9671,0.9671,0.9671,0.9704,0.9769,0.9867,0.9976,1.0019,1.0019,1.0019,1.0019,1.0019,1.0019,1.0019,1.003,1.0139,1.0188,1.0204,1.0204,1.0215,1.021,1.0085,1.0047,1.0041,1.0025,1.0019,1.0019,1.0019,1.0019,1.0019,1.0019,1.0019,1.0019,1.0019,1.0019,1.0019,1.0019,1.0019,0.9987,0.9883,0.9862,0.9862,0.9862,0.9717,0.9625,0.9392,0.9314,0.9314,0.9314,0.8063,0.7201,0.7201,0.5874,0.4936,0.4701,0.4701,0.4544,0.431,0.4544,0.4544,0.431,0.4544,0.4544,0.431,0.149,0.0,0.0,0.0,0.0785,0.2117,0.0706,0.1647,0.6056,0.704,0.7954,0.0,0.0,0.0,0.0,0.0,0.0,0.0,0.0,0.0,0.0,0.0,0.0,0.0,0.0,0.0,0.0,0.0,0.0,0.0,0.0,0.0,0.0,0.0,0.0,0.0,0.0,0.9302,0.9302,0.9302,0.9302,0.9302,0.9302,0.9329,0.9383,0.9383,0.941,0.9465,0.9465,0.9465,0.9465,0.9536,0.9633,0.9748,0.9802,0.9862,0.9916,0.9916,0.996,1.0019,1.0019,1.0019,1.0025,1.0079,1.0101,1.0101,1.0101,1.0101,1.009,1.0036,1.0019,1.0019,1.0019,1.0019,1.0019,1.0019,1.0019,1.0019,1.0019,1.0019,1.0019,1.0019,1.0019,1.0019,1.0019,1.0019,1.0003,0.9949,0.9938,0.9938,0.9938,0.9987,1.0019,1.0019,1.0019,1.0019,1.0019,0.9392,0.8925,0.8925,0.8219,0.7435,0.6499,0.642,0.603,0.5092,0.5874,0.5952,0.5014,0.5874,0.5952,0.5014,0.3527,0.2352,0.1412,0.1412,0.1803,0.2507,0.1725,0.3212,0.6143,0.6877,0.7491,0.8269,0.0,0.0,0.0,0.0,0.0,0.0,0.0,0.0,0.0,0.0,0.0,0.0,0.0,0.0,0.0,0.0,0.0,0.0,0.0,0.0,0.0,0.0,0.0,0.0,0.0,0.9302,0.9302,0.9334,0.9351,0.9351,0.9351,0.9351,0.9351,0.9318,0.9302,0.9302,0.9302,0.9302,0.9307,0.94,0.9492,0.9579,0.9644,0.9715,0.9796,0.9796,0.9867,0.9976,0.9976,0.9992,1.0019,1.0019,1.0019,1.0019,1.0019,1.0019,1.0019,1.0019,1.0019,1.0019,1.0019,1.0019,1.0019,1.0019,1.0019,1.0019,1.0019,1.0019,1.0019,1.0019,1.0019,1.0019,1.0019,1.0019,1.0019,1.0019,1.0019,1.0019,1.0019,1.0019,1.0019,1.0019,1.0019,1.0019,1.0019,1.0019,1.0019,1.0019,1.0019,0.947,0.8219,0.8141,0.7591,0.6342,0.7435,0.7591,0.6342,0.7435,0.7517,0.6264,0.6264,0.5245,0.3133,0.3133,0.3368,0.376,0.3368,0.4933,0.5367,0.5888,0.0,0.7153,0.0,0.0,0.0,0.0,0.0,0.0,0.0,0.0,0.0,0.0,0.0,0.0,0.0,0.0,0.0,0.0,0.0,0.0,0.0,0.0,0.0,0.0,0.0,0.0,0.0,0.9302,0.9302,0.9416,0.9476,0.9476,0.9476,0.9476,0.9476,0.9362,0.9302,0.9302,0.9302,0.9302,0.9302,0.9313,0.9318,0.9334,0.9568,0.9671,0.9677,0.9677,0.9748,0.9845,0.9845,0.9916,1.0019,1.0019,1.0019,1.0019,1.0019,1.0019,1.0019,1.0019,1.0019,1.0019,1.0019,1.0019,1.0019,1.0019,1.0019,1.0019,1.0019,1.0019,1.0019,1.0019,1.0019,1.0019,1.0019,1.0019,1.0019,1.0019,1.0019,1.0019,1.0019,1.0019,1.0019,1.0019,1.0019,1.0019,1.0019,1.0019,1.0019,1.0019,1.0019,0.9942,0.9864,0.9864,0.9864,0.9708,0.9786,0.9864,0.9708,0.9864,0.9864,0.9708,0.9708,0.8141,0.4857,0.4857,0.5717,0.7201,0.5639,0.6655,0.5181,0.5638,0.0,0.0,0.0,0.0,0.0,0.0,0.0,0.0,0.0,0.0,0.0,0.0,0.0,0.0,0.0,0.0,0.0,0.0,0.0,0.0,0.0,0.0,0.0,0.0,0.0,0.0,0.0,0.0,0.9302,0.9345,0.9372,0.9372,0.9372,0.9405,0.9487,0.9367,0.9345,0.9421,0.934,0.9302,0.9302,0.9302,0.9302,0.9307,0.9394,0.9481,0.9552,0.9552,0.9622,0.9737,0.9807,0.9862,0.9911,0.9992,1.0019,1.0019,1.0019,1.0019,1.0019,1.0019,1.0019,1.0019,1.0019,1.0019,1.0019,1.0019,1.0019,1.0019,1.0019,1.0019,1.0019,1.0019,1.0019,1.0019,1.0019,1.0019,1.0019,1.0019,1.0019,1.0019,1.0019,1.0019,1.0019,1.0019,1.0019,1.0019,1.0019,1.0019,1.0019,1.0019,1.0019,1.0019,1.0019,1.0019,1.0019,1.0019,1.0019,1.0019,1.0019,1.0019,1.0019,1.0019,1.0019,0.8847,0.6577,0.6577,0.6889,0.7513,0.6889,0.7829,0.4828,0.5241,0.0,0.0,0.0,0.0,0.0,0.0,0.0,0.0,0.0,0.0,0.0,0.0,0.0,0.0,0.0,0.0,0.0,0.0,0.0,0.0,0.0,0.0,0.0,0.0,0.0,0.0,0.0,0.0,0.9302,0.9345,0.9367,0.9367,0.9367,0.9405,0.9487,0.9405,0.9405,0.9487,0.9405,0.9345,0.9302,0.9302,0.9302,0.9302,0.9302,0.9351,0.9427,0.9427,0.9497,0.9622,0.9737,0.9802,0.9851,0.9976,1.0019,1.0019,1.0019,1.0019,1.0019,1.0019,1.0019,1.0019,1.0019,1.0019,1.0019,1.0019,1.0019,1.0019,1.0019,1.0019,1.0019,1.0019,1.0019,1.0019,1.0019,1.0019,1.0019,1.0019,1.0019,1.0019,1.0019,1.0019,1.0019,1.0019,1.0019,1.0019,1.0019,1.0019,1.0019,1.0019,1.0019,1.0019,1.0019,1.0019,1.0019,1.0019,1.0019,1.0019,1.0019,1.0019,1.0019,1.0019,1.0019,0.947,0.8375,0.8375,0.8375,0.8375,0.8375,0.8925,0.0,0.0,0.0,0.0,0.0,0.0,0.0,0.0,0.0,0.0,0.0,0.0,0.0,0.0,0.0,0.0,0.0,0.0,0.0,0.0,0.0,0.0,0.0,0.0,0.0,0.0,0.0,0.0,0.0,0.9302,0.9302,0.9416,0.9481,0.9481,0.9481,0.9481,0.9487,0.9481,0.9487,0.9492,0.9487,0.9421,0.9307,0.9307,0.9307,0.9307,0.9307,0.9307,0.9307,0.9307,0.9372,0.9492,0.9617,0.9731,0.9845,0.997,1.0019,1.0019,1.0019,1.0019,1.0019,1.0019,1.0019,1.0019,1.0019,1.0019,1.0019,1.0019,1.0019,1.0019,1.0019,1.0019,1.0019,1.0019,1.0019,1.0019,1.0019,1.0019,1.0019,1.0019,1.0019,1.0019,1.0019,1.0019,1.0019,1.0019,1.0019,1.0019,1.0019,1.0019,1.0019,1.0019,1.0019,1.0019,1.0019,1.0019,1.0019,1.0019,1.0019,1.0019,1.0019,1.0019,1.0019,1.0019,1.0019,1.0019,1.0019,1.0019,1.0019,1.0019,1.0019,1.0019,0.4322,0.0,0.0,0.0,0.0,0.0,0.0,0.0,0.0,0.0,0.0,0.0,0.0,0.0,0.0,0.0,0.0,0.0,0.0,0.0,0.0,0.0,0.0,0.0,0.0,0.0,0.0,0.0,0.9302,0.9302,0.9302,0.9334,0.9356,0.9356,0.9356,0.9394,0.9487,0.94,0.9443,0.9617,0.9438,0.9383,0.9432,0.9345,0.9351,0.9438,0.9438,0.9438,0.9427,0.934,0.9323,0.9367,0.9492,0.9612,0.9731,0.9845,0.9943,1.0019,1.0019,1.0019,1.0019,1.0019,1.0019,1.0019,1.0019,1.0019,1.0019,1.0019,1.0019,1.0019,1.0019,1.0019,1.0019,1.0019,1.0019,1.0019,1.0019,1.0019,1.0019,1.0019,1.0019,1.0019,1.0019,1.0019,1.0019,1.0019,1.0019,1.0019,1.0019,1.0019,1.0019,1.0019,1.0019,1.0019,1.0019,1.0019,1.0019,1.0019,1.0019,1.0019,1.0019,1.0019,1.0019,1.0019,1.0019,1.0019,1.0019,1.0019,1.0019,1.0019,1.0019,1.0019,0.4542,0.4708,0.0,0.0,0.0,0.0,0.0,0.0,0.0,0.0,0.0,0.0,0.0,0.0,0.0,0.0,0.0,0.0,0.0,0.0,0.0,0.0,0.0,0.0,0.0,0.0,0.0,0.9302,0.9302,0.9302,0.9302,0.9302,0.9302,0.9302,0.9302,0.9362,0.9487,0.9416,0.9454,0.959,0.9449,0.9389,0.941,0.9389,0.9421,0.9492,0.9541,0.9563,0.9552,0.9432,0.9351,0.9318,0.9438,0.9563,0.9682,0.9796,0.9916,1.0019,1.0019,1.0019,1.0019,1.0019,1.0019,1.0019,1.0019,1.0019,1.0019,1.0019,1.0019,1.0019,1.0019,1.0019,1.0019,1.0019,1.0019,1.0019,1.0019,1.0019,1.0019,1.0019,1.0019,1.0019,1.0019,1.0019,1.0019,1.0019,1.0019,1.0019,1.0019,1.0019,1.0019,1.0019,1.0019,1.0019,1.0019,1.0019,1.0019,1.0019,1.0019,1.0019,1.0019,1.0019,1.0019,1.0019,1.0019,1.0019,1.0019,1.0019,1.0019,1.0019,1.0019,1.0019,0.4881,0.5024,0.5301,0.0,0.0,0.0,0.6328,0.6377,0.0,0.0,0.0,0.0,0.0,0.0,0.0,0.0,0.0,0.0,0.0,0.0,0.0,0.0,0.0,0.0,0.0,0.922,0.9285,0.9285,0.9296,0.9302,0.9302,0.9302,0.9302,0.9302,0.9302,0.9356,0.9465,0.9465,0.947,0.9487,0.947,0.9421,0.9345,0.9443,0.9503,0.953,0.9639,0.9688,0.9677,0.9574,0.9449,0.9334,0.9427,0.9552,0.9682,0.978,0.9905,1.0019,1.0019,1.0019,1.0019,1.0019,1.0019,1.0019,1.0019,1.0019,1.0019,1.0019,1.0019,1.0019,1.0019,1.0019,1.0019,1.0019,1.0019,1.0019,1.0019,1.0019,1.0019,1.0019,1.0019,1.0019,1.0019,1.0019,1.0019,1.0019,1.0019,1.0019,1.0019,1.0019,1.0019,1.0019,1.0019,1.0019,1.0019,1.0019,1.0019,1.0019,1.0019,1.0019,1.0019,1.0019,1.0019,1.0019,1.0019,1.0019,1.0019,1.0019,1.0019,1.0019,1.0019,1.0019,0.5378,0.5383,0.5405,0.5322,0.0,0.0,0.0,0.5421,0.0,0.0,0.0,0.0,0.0,0.0,0.0,0.0,0.0,0.0,0.0,0.0,0.0,0.0,0.0,0.0,0.0,0.9025,0.9166,0.9166,0.9253,0.9302,0.9302,0.9302,0.9302,0.9302,0.9302,0.9313,0.934,0.934,0.9389,0.9487,0.9389,0.9432,0.9595,0.9519,0.959,0.9769,0.9796,0.9807,0.9802,0.978,0.9644,0.9443,0.9367,0.9476,0.9671,0.9693,0.984,1.0019,1.0019,1.0019,1.0019,1.0019,1.0019,1.0019,1.0019,1.0019,1.0019,1.0019,1.0019,1.0019,1.0019,1.0019,1.0019,1.0019,1.0019,1.0019,1.0019,1.0019,1.0019,1.0019,1.0019,1.0019,1.0019,1.0019,1.0019,1.0019,1.0019,1.0019,1.0019,1.0019,1.0019,1.0019,1.0019,1.0019,1.0019,1.0019,1.0019,1.0019,1.0019,1.0019,1.0019,1.0019,1.0019,1.0019,1.0019,1.0019,1.0019,1.0019,1.0019,1.0019,1.0019,1.0019,0.5761,0.5768,0.579,0.5665,0.0,0.0,0.0,0.0,0.0,0.0,0.0,0.0,0.0,0.0,0.0,0.0,0.0,0.0,0.0,0.0,0.0,0.0,0.0,0.0,0.0,0.8938,0.8971,0.8971,0.9155,0.922,0.922,0.9275,0.9302,0.9302,0.9302,0.9302,0.9302,0.9302,0.9334,0.9394,0.9334,0.94,0.9579,0.9579,0.9671,0.984,0.99,0.9927,0.9921,0.9862,0.9769,0.9644,0.9465,0.9508,0.9671,0.9671,0.9818,1.0019,1.0019,1.0019,1.0019,1.0019,1.0019,1.0019,1.0019,1.0019,1.0019,1.0019,1.0019,1.0019,1.0019,1.0019,1.0019,1.0019,1.0019,1.0019,1.0019,1.0019,1.0019,1.0019,1.0019,1.0019,1.0019,1.0019,1.0019,1.0019,1.0019,1.0019,1.0019,1.0019,1.0019,1.0019,1.0019,1.0019,1.0019,1.0019,1.0019,1.0019,1.0019,1.0019,1.0019,1.0019,1.0019,1.0019,1.0019,1.0019,1.0019,1.0019,1.0019,1.0019,1.0019,1.0019,0.0,0.0,0.0,0.0,0.0,0.5654,0.0,0.0,0.0,0.5942,0.0,0.0,0.0,0.0,0.0,0.0,0.0,0.0,0.0,0.0,0.0,0.0,0.0,0.0,0.0,0.8644,0.8733,0.8874,0.889,0.8944,0.9128,0.922,0.928,0.9302,0.9302,0.9302,0.9302,0.9302,0.9302,0.9302,0.9302,0.9378,0.9525,0.9622,0.9742,0.9878,0.9976,1.0019,1.0014,0.9911,0.9856,0.9818,0.9606,0.9595,0.9704,0.9704,0.9835,1.0019,1.0019,1.0019,1.0019,1.0019,1.0019,1.0019,1.0019,1.0019,1.0019,1.0019,1.0019,1.0019,1.0019,1.0019,1.0019,1.0019,1.0019,1.0019,1.0019,1.0019,1.0019,1.0019,1.0019,1.0019,1.0019,1.0019,1.0019,1.0019,1.0019,1.0019,1.0019,1.0019,1.0019,1.0019,1.0019,1.0019,1.0019,1.0019,1.0019,1.0019,1.0019,1.0019,1.0019,1.0019,1.0019,1.0019,1.0019,1.0019,1.0019,1.0019,1.0019,1.0019,1.0019,1.0019,0.0,0.0,0.0,0.0,0.6285,0.0,0.0,0.0,0.5416,0.5214,0.0,0.0,0.0,0.0,0.0,0.0,0.0,0.0,0.0,0.0,0.0,0.0,0.0,0.0,0.0,0.0,0.8258,0.8836,0.8501,0.8507,0.9035,0.915,0.9198,0.9302,0.9302,0.9302,0.9302,0.9302,0.9302,0.9302,0.9302,0.9427,0.965,0.9661,0.9791,1.0003,1.0014,1.0019,1.0019,1.0003,0.9938,0.9824,0.9699,0.972,0.9818,0.9818,0.9905,1.0019,1.0019,1.0019,1.0019,1.0019,1.0019,1.0019,1.0019,1.0019,1.0019,1.0019,1.0019,1.0019,1.0019,1.0019,1.0019,1.0019,1.0019,1.0019,1.0019,1.0019,1.0019,1.0019,1.0019,1.0019,1.0019,1.0019,1.0019,1.0019,1.0019,1.0019,1.0019,1.0019,1.0019,1.0019,1.0019,1.0019,1.0019,1.0019,1.0019,1.0019,1.0019,1.0019,1.0019,1.0019,1.0019,1.0019,1.0019,1.0019,1.0019,1.0019,1.0019,1.0019,1.0019,1.0019,0.0,0.0,0.0,0.0,0.0,0.0,0.0,0.0,0.5339,0.0,0.0,0.0,0.0,0.0,0.0,0.0,0.0,0.0,0.0,0.0,0.0,0.0,0.0,0.0,0.0,0.0,0.0,0.0,0.0,0.8301,0.8698,0.8981,0.9155,0.9204,0.9269,0.9302,0.9302,0.9302,0.9302,0.9302,0.9302,0.9432,0.9671,0.9671,0.9796,1.0019,1.0019,1.0019,1.0019,1.0019,0.9987,0.9938,0.9889,0.9856,0.9835,0.9835,0.9916,1.0019,1.0019,1.0019,1.0019,1.0019,1.0019,1.0019,1.0019,1.0019,1.0019,1.0019,1.0019,1.0019,1.0019,1.0019,1.0019,1.0019,1.0019,1.0019,1.0019,1.0074,1.0128,1.0128,1.0182,1.0231,1.0231,1.0112,1.0019,1.0019,1.0019,1.0019,1.0019,1.0019,1.0019,1.0019,1.0019,1.0019,1.0019,1.0019,1.0019,1.0019,1.0019,1.0019,1.0019,1.0019,1.0019,1.0019,1.0019,1.0019,1.0019,1.0019,1.0019,1.0019,1.0019,1.0019,0.7154,0.0,0.0,0.0,0.0,0.0,0.0,0.0,0.0,0.0,0.0,0.0,0.0,0.0,0.0,0.0,0.0,0.0,0.0,0.0,0.0,0.0,0.0,0.0,0.0,0.0,0.0,0.0,0.0,0.0,0.8394,0.8747,0.8997,0.9128,0.9215,0.9275,0.9302,0.9302,0.9302,0.9302,0.9302,0.9416,0.9622,0.9655,0.978,0.997,1.0008,1.0019,1.0019,1.0019,1.0019,1.0019,1.0019,0.9965,0.9889,0.9889,0.9943,1.0019,1.0019,1.0019,1.0019,1.0019,1.0019,1.0019,1.0019,1.0019,1.0019,1.0019,1.0019,1.0019,1.0019,1.0019,1.003,1.0063,1.0068,1.0079,1.0112,1.0188,1.0253,1.0253,1.0324,1.0384,1.0384,1.021,1.0068,1.0068,1.0041,1.0019,1.0019,1.0019,1.0019,1.0019,1.0019,1.0019,1.0019,1.0019,1.0019,1.0019,1.0019,1.0036,1.0068,1.0041,1.0036,1.0068,1.0036,1.0019,1.0019,1.0019,1.0019,1.0019,1.0019,1.0019,0.0,0.0,0.0,0.6618,0.0,0.0,0.0,0.0,0.5675,0.0,0.0,0.0,0.0,0.0,0.0,0.5468,0.0,0.0,0.0,0.0,0.0,0.0,0.0,0.0,0.0,0.0,0.0,0.0,0.0,0.0,0.8356,0.8432,0.8655,0.9122,0.9139,0.9193,0.9302,0.9302,0.9302,0.9302,0.9302,0.9372,0.9497,0.9617,0.9731,0.9851,0.997,1.0019,1.0019,1.0019,1.0019,1.0019,1.0019,1.0019,1.0014,1.0014,1.0019,1.0019,1.0019,1.0019,1.0019,1.0019,1.0019,1.0019,1.0019,1.0019,1.0019,1.0019,1.0019,1.0019,1.0019,1.0019,1.0052,1.0172,1.0199,1.0231,1.0346,1.0378,1.0378,1.0378,1.0384,1.0384,1.0384,1.028,1.0199,1.0199,1.0095,1.0019,1.0019,1.0019,1.0019,1.0019,1.0019,1.0019,1.0019,1.0019,1.0019,1.0019,1.0019,1.0074,1.0193,1.0085,1.0074,1.0193,1.0079,1.0019,1.0019,1.0019,1.0019,1.0019,1.0019,1.0019,0.0,0.0,0.8062,0.715,0.0,0.0,0.0,0.0,0.0,0.0,0.0,0.0,0.0,0.0,0.568,0.5481,0.5355,0.0,0.0,0.0,0.0,0.0,0.0,0.0,0.0,0.0,0.0,0.0,0.0,0.0,0.0,0.8204,0.8562,0.8883,0.9052,0.9188,0.9302,0.9302,0.9302,0.9302,0.9302,0.9367,0.9492,0.9612,0.9731,0.9845,0.9965,1.0019,1.0019,1.0019,1.0019,1.0019,1.0019,1.0019,1.0019,1.0019,1.0019,1.0019,1.0019,1.0019,1.0019,1.0019,1.0019,1.0019,1.0019,1.0019,1.0019,1.0019,1.0019,1.0041,1.0123,1.0139,1.0172,1.0297,1.0324,1.0335,1.0378,1.0443,1.0498,1.0498,1.0563,1.0617,1.0617,1.0514,1.0411,1.0335,1.0291,1.0264,1.0264,1.0264,1.0264,1.0264,1.0264,1.0264,1.0264,1.0264,1.0264,1.0264,1.0264,1.028,1.0324,1.0286,1.028,1.0324,1.0286,1.0264,1.0264,1.0264,1.0264,1.0259,1.0177,1.0095,0.8745,0.8778,0.0,0.8076,0.7812,0.0,0.6528,0.0,0.0,0.0,0.0,0.0,0.0,0.0,0.0,0.5841,0.5521,0.0,0.0,0.0,0.0,0.0,0.0,0.0,0.0,0.0,0.5801,0.6181,0.0,0.0,0.0,0.0,0.8329,0.8693,0.8943,0.9144,0.9302,0.9302,0.9302,0.9302,0.9302,0.9345,0.9427,0.9595,0.9709,0.9786,0.9949,1.0019,1.0019,1.0019,1.0019,1.0019,1.0019,1.0019,1.0019,1.0019,1.0019,1.0019,1.0019,1.0019,1.0019,1.0019,1.0019,1.0019,1.0019,1.0019,1.0019,1.0019,1.0052,1.0101,1.0182,1.0237,1.0297,1.0416,1.0449,1.046,1.0503,1.0568,1.0617,1.0617,1.0683,1.0737,1.0737,1.0672,1.0579,1.0465,1.0411,1.0384,1.0384,1.0384,1.0384,1.0384,1.0384,1.0384,1.0384,1.0384,1.0384,1.0384,1.0384,1.0405,1.0443,1.0567,1.0648,1.0687,1.0809,1.0786,1.0625,1.0625,1.0545,1.0384,1.0302,1.0226]}]]